ftp/pub/palmer/observations_modified/2019/October/original_files/AR191004_BASE.txt
Download
Sample DateTime Unit Id WS Avg 2min WD Avg 2min WGS 10min WGD 10min Air Temp Rel Humidity Dew Point Pyranometer Quantum Air Pressure Snow Level Rainfall PW Current Visibility CBase 1 CBase 2 CBase 3 Vert Vis
2019/10/04 00:00:01 BASE 2.21 345 2.42 345 -7.6 95 -8.2 0 0 972.7 NA 0.0000 -SN 9999 2720 4400 0 0
2019/10/04 00:01:01 BASE 2.22 343 2.42 346 -7.6 95 -8.2 0 0 972.7 NA 0.0000 -SN 9000 2720 4760 0 0
2019/10/04 00:02:01 BASE 2.26 347 2.52 350 -7.6 95 -8.3 0 0 972.7 NA 0.0000 -SN 9999 2590 4170 0 0
2019/10/04 00:03:01 BASE 1.98 0 2.52 350 -7.6 95 -8.3 0 0 972.7 NA 0.0000 -SN 9999 2620 4070 0 0
2019/10/04 00:04:01 BASE 1.64 7 2.52 350 -7.6 95 -8.3 0 0 972.7 NA 0.0000 -SN 9999 2720 3840 0 0
2019/10/04 00:05:00 BASE 1.73 9 2.52 350 -7.6 95 -8.3 0 0 972.7 NA 0.0000 -SN 9999 2660 4360 0 0
2019/10/04 00:06:00 BASE 1.98 10 2.57 1 -7.6 95 -8.3 0 0 972.7 NA 0.0000 -SN 9999 2460 4690 0 0
2019/10/04 00:07:00 BASE 2.13 359 2.57 1 -7.6 95 -8.3 0 0 972.7 NA 0.0000 -SN 9999 3050 5910 0 0
2019/10/04 00:08:00 BASE 2.00 357 2.57 1 -7.7 95 -8.3 0 0 972.7 NA 0.0000 -SN 9999 4820 5870 0 0
2019/10/04 00:09:00 BASE 1.91 5 2.57 1 -7.7 95 -8.3 0 0 972.7 NA 0.0000 -SN 9999 4490 5770 0 0
2019/10/04 00:10:00 BASE 2.06 6 2.57 1 -7.7 95 -8.3 0 0 972.7 NA 0.0000 -SN 9999 4200 5710 0 0
2019/10/04 00:11:00 BASE 2.22 2 2.57 1 -7.7 95 -8.4 0 0 972.7 NA 0.0000 -SN 9999 2430 5640 0 0
2019/10/04 00:12:00 BASE 2.00 0 2.57 1 -7.7 95 -8.4 0 0 972.7 NA 0.0000 -SN 9999 820 5640 0 0
2019/10/04 00:13:00 BASE 1.95 6 2.57 5 -7.7 95 -8.4 0 0 972.7 NA 0.0000 -SN 9999 690 4170 0 0
2019/10/04 00:14:00 BASE 2.16 11 2.57 5 -7.7 95 -8.4 0 0 972.7 NA 0.0000 -SN 9999 620 4200 0 0
2019/10/04 00:15:00 BASE 2.13 8 2.57 5 -7.7 95 -8.4 0 0 972.7 NA 0.0000 -SN 9999 460 5680 0 0
2019/10/04 00:16:00 BASE 2.20 12 2.62 20 -7.7 95 -8.4 0 0 972.7 NA 0.0000 -SN 9999 390 5640 0 0
2019/10/04 00:17:00 BASE 2.31 10 2.62 20 -7.7 95 -8.3 0 0 972.8 NA 0.0000 -SN 9999 360 0 0 0
2019/10/04 00:18:00 BASE 2.28 5 2.78 10 -7.7 95 -8.3 0 0 972.8 NA 0.0000 -SN 8000 360 0 0 0
2019/10/04 00:19:00 BASE 2.39 8 2.93 10 -7.6 95 -8.3 0 0 972.7 NA 0.0000 -SN 7000 0 0 0 5970
2019/10/04 00:20:00 BASE 2.38 15 2.93 10 -7.6 95 -8.3 0 0 972.7 NA 0.0000 -SN 8000 0 0 0 5840
2019/10/04 00:21:00 BASE 2.33 26 2.93 10 -7.6 95 -8.3 0 0 972.7 NA 0.0000 -SN BR 9999 430 0 0 0
2019/10/04 00:22:00 BASE 2.57 36 2.93 10 -7.6 95 -8.3 0 0 972.7 NA 0.0000 -SN BR 9000 3150 0 0 0
2019/10/04 00:23:00 BASE 2.65 35 3.29 27 -7.6 95 -8.3 0 0 972.7 NA 0.0000 -SN BR 9999 3150 0 0 0
2019/10/04 00:24:00 BASE 2.63 33 3.34 25 -7.6 95 -8.3 0 0 972.7 NA 0.0000 -SN BR 9999 690 0 0 0
2019/10/04 00:25:00 BASE 2.47 34 3.34 25 -7.6 95 -8.3 0 0 972.6 NA 0.0000 -SN BR 9999 430 0 0 0
2019/10/04 00:26:00 BASE 2.20 34 3.34 25 -7.6 95 -8.3 0 0 972.6 NA 0.0000 -SN BR 9999 390 5220 0 0
2019/10/04 00:27:00 BASE 2.20 36 3.34 25 -7.6 95 -8.3 0 0 972.6 NA 0.0000 -SN BR 9999 360 5090 0 0
2019/10/04 00:28:00 BASE 2.20 34 3.34 25 -7.6 95 -8.3 0 0 972.6 NA 0.0000 -SN BR 9999 360 5020 0 0
2019/10/04 00:29:00 BASE 2.18 32 3.34 25 -7.6 95 -8.3 0 0 972.6 NA 0.0000 -SN BR 7000 330 3250 0 0
2019/10/04 00:30:00 BASE 1.50 32 3.34 25 -7.6 95 -8.3 0 0 972.6 NA 0.0000 -SN BR 6000 330 2720 0 0
2019/10/04 00:31:00 BASE 0.39 45 3.34 25 -7.6 95 -8.3 0 0 972.7 NA 0.0000 -SN BR 8000 330 3220 0 0
2019/10/04 00:32:00 BASE 0.00 58 3.34 25 -7.6 95 -8.3 0 0 972.7 NA 0.0000 -SN BR 8000 330 3250 0 0
2019/10/04 00:33:00 BASE 0.04 44 3.34 25 -7.6 95 -8.3 0 0 972.7 NA 0.0000 -SN BR 7000 330 3310 0 0
2019/10/04 00:34:00 BASE 0.38 29 2.98 28 -7.6 95 -8.2 0 0 972.7 NA 0.0000 -SN BR 7000 330 5050 0 0
2019/10/04 00:35:00 BASE 0.48 27 2.57 37 -7.6 95 -8.2 0 0 972.7 NA 0.0000 -SN BR 8000 2760 4950 0 0
2019/10/04 00:36:00 BASE 0.15 27 2.52 29 -7.6 95 -8.2 0 0 972.7 NA 0.0000 -SN BR 9999 2620 3900 0 0
2019/10/04 00:37:00 BASE 0.00 17 2.52 29 -7.6 95 -8.2 0 0 972.7 NA 0.0000 -SN BR 9999 1350 5280 0 0
2019/10/04 00:38:00 BASE 0.04 6 2.52 29 -7.6 95 -8.2 0 0 972.7 NA 0.0000 -SN BR 9999 1280 2590 0 0
2019/10/04 00:39:00 BASE 0.04 355 2.06 22 -7.6 95 -8.2 0 0 972.7 NA 0.0000 -SN BR 9999 1050 3510 0 0
2019/10/04 00:40:00 BASE 0.00 342 1.44 11 -7.6 95 -8.2 0 0 972.7 NA 0.0000 -SN BR 9999 890 3770 0 0
2019/10/04 00:41:00 BASE 0.05 329 1.44 11 -7.6 95 -8.3 0 0 972.8 NA 0.0000 -SN BR 9999 850 2200 0 0
2019/10/04 00:42:00 BASE 0.53 310 1.44 11 -7.6 95 -8.3 0 0 972.8 NA 0.0000 -SN BR 9999 690 2100 0 0
2019/10/04 00:43:00 BASE 1.30 298 1.80 297 -7.6 95 -8.3 0 0 972.8 NA 0.0000 -SN 9999 590 2030 0 0
2019/10/04 00:44:00 BASE 1.58 292 1.80 297 -7.6 95 -8.3 0 0 972.8 NA 0.0000 -SN 9999 660 2030 0 0
2019/10/04 00:45:00 BASE 1.56 287 1.85 288 -7.6 95 -8.3 0 0 972.8 NA 0.0000 -SN 9999 690 1800 0 0
2019/10/04 00:46:00 BASE 1.71 288 1.95 291 -7.6 95 -8.3 0 0 972.8 NA 0.0000 -SN 9999 590 1840 0 0
2019/10/04 00:47:00 BASE 1.87 291 2.06 292 -7.6 95 -8.3 0 0 972.8 NA 0.0000 9999 620 1710 0 0
2019/10/04 00:48:01 BASE 2.02 292 2.37 293 -7.6 95 -8.3 0 0 972.9 NA 0.0000 -SN 9999 620 4230 0 0
2019/10/04 00:49:01 BASE 2.20 290 2.52 290 -7.6 95 -8.3 0 0 972.9 NA 0.0000 -SN 9999 620 2990 0 0
2019/10/04 00:50:01 BASE 2.55 290 3.04 288 -7.6 95 -8.3 0 0 972.9 NA 0.0000 -SN 9999 620 2820 0 0
2019/10/04 00:51:01 BASE 2.87 292 3.09 291 -7.6 95 -8.3 0 0 972.9 NA 0.0000 -SN 9999 720 2790 0 0
2019/10/04 00:52:01 BASE 3.03 293 3.24 294 -7.6 95 -8.3 0 0 972.9 NA 0.0000 -SN 9999 660 2070 0 0
2019/10/04 00:53:01 BASE 3.09 294 3.24 294 -7.6 95 -8.3 0 0 972.9 NA 0.0000 -SN 9999 620 2130 0 0
2019/10/04 00:54:01 BASE 3.00 293 3.24 294 -7.6 95 -8.3 0 0 972.9 NA 0.0000 -SN 9999 690 2690 0 0
2019/10/04 00:55:01 BASE 2.91 293 3.24 294 -7.6 95 -8.3 0 0 972.9 NA 0.0000 -SN 9999 520 1740 0 0
2019/10/04 00:56:01 BASE 2.78 292 3.24 294 -7.6 95 -8.3 0 0 972.9 NA 0.0000 -SN 9999 520 2030 0 0
2019/10/04 00:57:01 BASE 2.80 291 3.29 289 -7.6 95 -8.3 0 0 972.9 NA 0.0000 -SN 9999 460 1380 0 0
2019/10/04 00:58:01 BASE 2.70 287 3.29 289 -7.6 95 -8.3 0 0 972.9 NA 0.0000 -SN 8000 360 2000 0 0
2019/10/04 00:59:01 BASE 2.50 287 3.29 289 -7.6 95 -8.3 0 0 972.9 NA 0.0000 -SN 9999 390 2000 0 0
2019/10/04 01:00:01 BASE 2.46 288 3.29 289 -7.6 95 -8.3 0 0 972.9 NA 0.0000 -SN 9999 360 1900 0 0
2019/10/04 01:01:01 BASE 2.31 284 3.29 289 -7.6 95 -8.3 0 0 972.9 NA 0.0000 -SN 9999 330 1210 0 0
2019/10/04 01:02:01 BASE 2.30 280 3.29 289 -7.6 95 -8.3 0 0 972.9 NA 0.0000 -SN 9999 330 0 0 0
2019/10/04 01:03:01 BASE 2.69 283 3.29 289 -7.7 95 -8.3 0 0 972.9 NA 0.0000 -SN 9999 330 2720 0 0
2019/10/04 01:04:01 BASE 3.12 284 3.81 274 -7.6 95 -8.3 0 0 972.9 NA 0.0000 -SN 9999 300 1480 0 0
2019/10/04 01:05:01 BASE 3.11 279 3.81 274 -7.7 96 -8.2 0 0 972.9 NA 0.0000 -SN 8000 300 0 0 0
2019/10/04 01:06:01 BASE 3.04 283 3.81 274 -7.7 96 -8.2 0 0 972.9 NA 0.0000 -SN BR 6000 300 3770 0 0
2019/10/04 01:07:01 BASE 3.24 292 3.81 274 -7.6 96 -8.2 0 0 973.0 NA 0.0000 -SN BR 7000 300 2990 0 0
2019/10/04 01:08:01 BASE 3.26 288 3.81 274 -7.6 96 -8.2 0 0 973.0 NA 0.0000 -SN BR 7000 300 1410 0 0
2019/10/04 01:09:01 BASE 2.97 275 3.81 274 -7.6 96 -8.2 0 0 973.0 NA 0.0000 -SN BR 9000 300 1350 0 0
2019/10/04 01:10:01 BASE 3.20 273 4.22 268 -7.6 96 -8.2 0 0 973.1 NA 0.0000 -SN BR 9999 300 3840 0 0
2019/10/04 01:11:01 BASE 3.66 281 4.48 271 -7.6 96 -8.1 0 0 973.1 NA 0.0000 -SN BR 9999 330 0 0 0
2019/10/04 01:12:01 BASE 3.75 284 4.48 271 -7.6 96 -8.1 0 0 973.2 NA 0.0000 -SN BR 9999 330 0 0 0
2019/10/04 01:13:01 BASE 3.79 282 4.48 271 -7.6 97 -8.1 0 0 973.2 NA 0.0000 -SN BR 9999 330 0 0 0
2019/10/04 01:14:01 BASE 3.93 283 4.78 289 -7.6 97 -8.1 0 0 973.2 NA 0.0000 -SN BR 9999 330 0 0 0
2019/10/04 01:15:01 BASE 4.08 286 4.78 289 -7.6 97 -8.0 0 0 973.2 NA 0.0000 -SN BR 9999 330 0 0 0
2019/10/04 01:16:01 BASE 4.31 286 5.09 290 -7.6 97 -8.0 0 0 973.2 NA 0.0000 -SN 9999 330 0 0 0
2019/10/04 01:17:01 BASE 5.07 288 6.12 292 -7.6 97 -8.0 0 0 973.2 NA 0.0000 -SN 9999 360 0 0 0
2019/10/04 01:18:01 BASE 5.57 292 6.12 289 -7.6 97 -8.0 0 0 973.2 NA 0.0000 -SN 9999 360 0 0 0
2019/10/04 01:19:01 BASE 5.39 294 6.12 289 -7.6 97 -8.0 0 0 973.3 NA 0.0000 -SN 9999 330 0 0 0
2019/10/04 01:20:01 BASE 5.00 297 6.12 289 -7.6 97 -7.9 0 0 973.3 NA 0.0000 -SN 9999 390 0 0 0
2019/10/04 01:21:01 BASE 5.13 301 6.12 292 -7.6 98 -7.9 0 0 973.3 NA 0.0000 -SN 9999 390 0 0 0
2019/10/04 01:22:01 BASE 4.92 301 6.12 292 -7.6 98 -7.9 0 0 973.3 NA 0.0000 -SN 9999 390 0 0 0
2019/10/04 01:23:01 BASE 4.49 287 6.12 292 -7.6 98 -7.9 0 0 973.3 NA 0.0000 9999 390 0 0 0
2019/10/04 01:24:01 BASE 4.53 283 6.12 292 -7.6 98 -7.8 0 0 973.3 NA 0.0000 -SN 9999 360 0 0 0
2019/10/04 01:25:01 BASE 4.79 293 6.12 292 -7.6 98 -7.8 0 0 973.3 NA 0.0000 -SN 8000 330 0 0 0
2019/10/04 01:26:01 BASE 4.93 292 6.12 292 -7.6 99 -7.8 0 0 973.3 NA 0.0000 -SN 7000 360 0 0 0
2019/10/04 01:27:01 BASE 4.68 292 6.12 292 -7.6 99 -7.8 0 0 973.3 NA 0.0000 -SN BR 6000 330 0 0 0
2019/10/04 01:28:01 BASE 4.49 296 6.12 292 -7.7 99 -7.8 0 0 973.3 NA 0.0000 -SN BR 6000 330 0 0 0
2019/10/04 01:29:01 BASE 4.47 296 6.12 292 -7.7 99 -7.8 0 0 973.3 NA 0.0000 -SN BR 7000 300 980 0 0
2019/10/04 01:30:01 BASE 4.76 294 6.12 292 -7.7 100 -7.7 0 0 973.3 NA 0.0000 -SN BR 8000 300 0 0 0
2019/10/04 01:31:01 BASE 4.76 295 5.71 291 -7.7 100 -7.7 0 0 973.3 NA 0.0000 -SN BR 7000 300 0 0 0
2019/10/04 01:32:01 BASE 4.79 297 5.71 291 -7.7 100 -7.7 0 0 973.3 NA 0.0000 -SN BR 8000 300 1440 0 0
2019/10/04 01:33:01 BASE 5.03 298 5.71 291 -7.7 100 -7.7 0 0 973.3 NA 0.0000 -SN BR 5000 330 2720 0 0
2019/10/04 01:34:01 BASE 5.12 295 5.71 291 -7.7 100 -7.7 0 0 973.3 NA 0.0000 -SN BR 4300 300 2720 0 0
2019/10/04 01:35:01 BASE 5.13 296 5.45 298 -7.7 100 -7.7 0 0 973.3 NA 0.0000 -SN BR 6000 300 1440 0 0
2019/10/04 01:36:01 BASE 5.14 298 5.56 295 -7.7 100 -7.7 0 0 973.3 NA 0.0000 -SN BR 6000 300 1800 0 0
2019/10/04 01:37:01 BASE 5.24 296 5.71 299 -7.7 100 -7.7 0 0 973.3 NA 0.0000 -SN BR 6000 260 1280 0 0
2019/10/04 01:38:01 BASE 5.05 295 5.71 299 -7.7 100 -7.7 0 0 973.3 NA 0.0000 -SN BR 6000 230 2620 0 0
2019/10/04 01:39:01 BASE 4.92 292 5.71 299 -7.7 100 -7.7 0 0 973.3 NA 0.0000 -SN BR 7000 230 2660 0 0
2019/10/04 01:40:01 BASE 5.14 289 5.71 299 -7.7 100 -7.7 0 0 973.3 NA 0.0000 -SN BR 8000 230 0 0 0
2019/10/04 01:41:01 BASE 5.27 283 6.07 288 -7.7 100 -7.7 0 0 973.3 NA 0.0000 -SN BR 8000 300 0 0 0
2019/10/04 01:42:01 BASE 5.11 283 6.07 288 -7.7 100 -7.7 0 0 973.4 NA 0.0000 -SN BR 7000 260 0 0 0
2019/10/04 01:43:01 BASE 5.44 286 6.58 290 -7.7 100 -7.7 0 0 973.3 NA 0.0000 -SN BR 9999 260 0 0 0
2019/10/04 01:44:00 BASE 5.94 284 6.69 286 -7.7 100 -7.7 0 0 973.4 NA 0.0000 -SN BR 9999 230 0 0 0
2019/10/04 01:45:01 BASE 5.94 284 6.69 286 -7.8 100 -7.8 0 0 973.4 NA 0.0000 -SN BR 9999 260 0 0 0
2019/10/04 01:46:01 BASE 6.08 286 6.94 290 -7.8 100 -7.8 0 0 973.4 NA 0.0000 -SN BR 9999 260 0 0 0
2019/10/04 01:47:01 BASE 6.43 289 6.94 286 -7.8 100 -7.8 0 0 973.4 NA 0.0000 -SN BR 9999 260 2530 0 0
2019/10/04 01:48:01 BASE 6.54 288 6.94 278 -7.8 100 -7.8 0 0 973.4 NA 0.0000 -SN BR 9000 0 0 0 2660
2019/10/04 01:49:00 BASE 6.23 288 6.94 278 -7.9 100 -7.9 0 0 973.4 NA 0.0000 -SN BR 7000 0 0 0 1350
2019/10/04 01:50:00 BASE 5.65 286 6.94 278 -7.9 100 -7.9 0 0 973.4 NA 0.0000 -SN BR 4900 0 0 0 2620
2019/10/04 01:51:00 BASE 5.87 288 7.77 300 -7.9 100 -7.9 0 0 973.4 NA 0.0000 -SN BR 4700 230 0 0 0
2019/10/04 01:52:00 BASE 6.85 292 7.97 290 -7.9 100 -7.9 0 0 973.4 NA 0.0000 -SN BR 5000 0 0 0 2660
2019/10/04 01:53:00 BASE 7.72 290 8.33 288 -7.9 100 -7.9 0 0 973.4 NA 0.0000 -SN BR 4600 0 0 0 1480
2019/10/04 01:54:01 BASE 8.07 288 8.59 279 -7.9 100 -7.9 0 0 973.4 NA 0.0000 -SN BR 3800 0 0 0 1410
2019/10/04 01:55:01 BASE 8.17 285 9.11 283 -7.9 100 -7.9 0 0 973.4 NA 0.0000 -SN BR 3300 0 0 0 1410
2019/10/04 01:56:00 BASE 9.14 286 11.94 268 -7.9 100 -7.9 0 0 973.4 NA 0.0000 -SN BR 3500 0 0 0 1440
2019/10/04 01:57:00 BASE 12.15 275 16.31 256 -7.9 100 -7.9 0 0 973.3 NA 0.0000 -SN BR 3900 0 0 0 1440
2019/10/04 01:58:01 BASE 14.23 258 16.31 256 -8.0 100 -8.0 0 0 973.4 NA 0.0000 -SN BR 3700 0 0 0 1180
2019/10/04 01:59:00 BASE 14.09 254 16.31 256 -8.2 100 -8.2 0 0 973.4 NA 0.0000 -SN BR 4500 0 0 0 1250
2019/10/04 02:00:00 BASE 14.51 254 16.31 256 -8.4 100 -8.4 0 0 973.4 NA 0.0000 -SN BR 4800 0 0 0 1310
2019/10/04 02:01:00 BASE 14.76 255 16.31 256 -8.6 100 -8.6 0 0 973.5 NA 0.0000 -SN BR 4800 0 0 0 1410
2019/10/04 02:02:00 BASE 13.94 254 16.31 256 -8.8 100 -8.8 0 0 973.5 NA 0.0000 -SN BR 5000 0 0 0 1440
2019/10/04 02:03:00 BASE 14.12 254 16.31 256 -8.9 100 -8.9 0 0 973.5 NA 0.0000 -SN BR 7000 0 0 0 1510
2019/10/04 02:04:00 BASE 14.94 254 16.31 251 -8.9 100 -8.9 0 0 973.5 NA 0.0000 -SN BR 9000 0 0 0 1510
2019/10/04 02:05:00 BASE 15.37 252 16.87 248 -9.0 100 -9.0 0 0 973.5 NA 0.0000 -SN BR 9000 0 0 0 1570
2019/10/04 02:06:01 BASE 15.94 253 16.87 248 -9.1 100 -9.1 0 0 973.5 NA 0.0000 -SN BR 9000 0 0 0 1610
2019/10/04 02:07:00 BASE 15.62 254 16.87 248 -9.1 100 -9.1 0 0 973.5 NA 0.0000 -SN BR 8000 0 0 0 1610
2019/10/04 02:08:01 BASE 14.53 255 16.87 248 -9.2 100 -9.2 0 0 973.6 NA 0.0000 -SN BR 8000 0 0 0 1670
2019/10/04 02:09:00 BASE 13.62 254 16.87 248 -9.2 100 -9.2 0 0 973.6 NA 0.0000 -SN BR 7000 0 0 0 1740
2019/10/04 02:10:00 BASE 14.18 253 16.87 248 -9.3 100 -9.3 0 0 973.6 NA 0.0000 -SN BR 8000 0 0 0 1770
2019/10/04 02:11:01 BASE 15.09 253 16.87 248 -9.3 100 -9.3 0 0 973.6 NA 0.0000 -SN BR 8000 0 0 0 1800
2019/10/04 02:12:01 BASE 15.11 250 16.87 248 -9.3 100 -9.3 0 0 973.6 NA 0.0000 -SN BR 7000 0 0 0 1840
2019/10/04 02:13:00 BASE 14.82 248 16.87 248 -9.4 100 -9.4 0 0 973.6 NA 0.0000 BR 7000 230 1510 0 0
2019/10/04 02:14:01 BASE 13.99 247 16.87 248 -9.4 100 -9.4 0 0 973.6 NA 0.0000 BR 7000 0 0 0 1840
2019/10/04 02:15:00 BASE 13.73 248 16.77 256 -9.4 100 -9.4 0 0 973.6 NA 0.0000 BR 7000 0 0 0 1870
2019/10/04 02:16:01 BASE 14.01 246 16.93 238 -9.4 100 -9.4 0 0 973.6 NA 0.0000 BR 7000 230 1540 0 0
2019/10/04 02:17:01 BASE 13.82 244 16.93 238 -9.4 100 -9.4 0 0 973.6 NA 0.0000 BR 6000 300 1540 0 0
2019/10/04 02:18:01 BASE 14.33 247 17.49 253 -9.4 100 -9.4 0 0 973.6 NA 0.0000 -SN BR 6000 260 0 0 0
2019/10/04 02:19:01 BASE 15.70 250 17.49 253 -9.5 100 -9.5 0 0 973.6 NA 0.0000 BR 7000 0 0 0 1940
2019/10/04 02:20:01 BASE 15.54 251 17.49 253 -9.5 100 -9.5 0 0 973.7 NA 0.0000 BR 7000 260 0 0 0
2019/10/04 02:21:01 BASE 14.71 247 17.49 253 -9.5 100 -9.5 0 0 973.7 NA 0.0000 BR 6000 300 1610 0 0
2019/10/04 02:22:01 BASE 14.22 245 17.49 253 -9.6 100 -9.6 0 0 973.7 NA 0.0000 BR 6000 300 1670 0 0
2019/10/04 02:23:01 BASE 13.60 246 17.49 253 -9.6 100 -9.6 0 0 973.7 NA 0.0000 BR 6000 330 1670 0 0
2019/10/04 02:24:01 BASE 13.38 244 17.49 253 -9.6 100 -9.6 0 0 973.7 NA 0.0000 BR 6000 330 1670 0 0
2019/10/04 02:25:01 BASE 13.29 245 17.49 253 -9.6 100 -9.6 0 0 973.7 NA 0.0000 BR 6000 330 0 0 0
2019/10/04 02:26:01 BASE 13.02 248 17.49 253 -9.6 100 -9.6 0 0 973.7 NA 0.0000 -SN BR 6000 330 0 0 0
2019/10/04 02:27:01 BASE 13.23 252 17.49 253 -9.6 100 -9.6 0 0 973.8 NA 0.0000 -SN BR 6000 330 0 0 0
2019/10/04 02:28:01 BASE 15.16 254 17.95 249 -9.6 100 -9.6 0 0 973.8 NA 0.0000 BR 6000 330 0 0 0
2019/10/04 02:29:01 BASE 15.71 252 17.95 249 -9.7 100 -9.7 0 0 973.8 NA 0.0000 BR 6000 300 1770 0 0
2019/10/04 02:30:01 BASE 15.98 250 18.67 248 -9.7 100 -9.7 0 0 973.8 NA 0.0000 BR 6000 300 1770 0 0
2019/10/04 02:31:01 BASE 16.84 250 18.67 248 -9.8 100 -9.8 0 0 973.9 NA 0.0000 BR 6000 260 0 0 0
2019/10/04 02:32:01 BASE 16.08 248 18.67 248 -9.8 100 -9.8 0 0 973.9 NA 0.0000 BR 6000 230 0 0 0
2019/10/04 02:33:01 BASE 14.83 247 18.67 248 -9.8 100 -9.8 0 0 973.9 NA 0.0000 BR 6000 300 0 0 0
2019/10/04 02:34:01 BASE 14.35 250 18.67 248 -9.8 100 -9.8 0 0 974.0 NA 0.0000 BR 5000 330 1800 0 0
2019/10/04 02:35:01 BASE 15.90 251 18.78 255 -9.9 100 -9.9 0 0 973.9 NA 0.0000 -SN BR 5000 230 1870 0 0
2019/10/04 02:36:01 BASE 17.36 252 19.70 254 -9.9 100 -9.9 0 0 974.0 NA 0.0000 BR 5000 0 0 0 2170
2019/10/04 02:37:01 BASE 17.32 251 19.70 254 -9.9 100 -9.9 0 0 974.0 NA 0.0000 -SN BR 5000 0 0 0 2170
2019/10/04 02:38:01 BASE 16.97 249 19.70 254 -10.0 100 -10.0 0 0 974.1 NA 0.0000 -SN BR 6000 0 0 0 2200
2019/10/04 02:39:01 BASE 16.73 250 19.70 254 -10.0 100 -10.0 0 0 974.1 NA 0.0000 -SN BR 7000 0 0 0 2200
2019/10/04 02:40:01 BASE 16.42 248 19.70 254 -10.1 100 -10.1 0 0 974.1 NA 0.0000 -SN BR 6000 0 0 0 2200
2019/10/04 02:41:01 BASE 14.71 249 19.70 254 -10.1 100 -10.1 0 0 974.2 NA 0.0000 -SN BR 6000 260 1970 0 0
2019/10/04 02:42:01 BASE 13.32 251 19.70 254 -10.1 100 -10.1 0 0 974.2 NA 0.0000 -SN BR 6000 300 2000 0 0
2019/10/04 02:43:01 BASE 14.38 252 19.70 254 -10.1 100 -10.1 0 0 974.1 NA 0.0000 -SN BR 8000 260 0 0 0
2019/10/04 02:44:01 BASE 15.83 253 19.70 254 -10.1 100 -10.1 0 0 974.1 NA 0.0000 -SN BR 9000 0 0 0 2260
2019/10/04 02:45:01 BASE 16.35 252 19.70 254 -10.1 100 -10.1 0 0 974.1 NA 0.0000 -SN BR 9000 0 0 0 2300
2019/10/04 02:46:01 BASE 15.91 250 19.19 243 -10.1 100 -10.1 0 0 974.2 NA 0.0000 -SN BR 9000 0 0 0 2260
2019/10/04 02:47:01 BASE 15.74 251 19.19 243 -10.1 100 -10.1 0 0 974.2 NA 0.0000 -SN BR 7000 0 0 0 2230
2019/10/04 02:48:01 BASE 15.76 251 19.19 243 -10.1 100 -10.1 0 0 974.2 NA 0.0000 -SN BR 5000 0 0 0 2200
2019/10/04 02:49:01 BASE 16.16 249 19.29 251 -10.1 100 -10.1 0 0 974.2 NA 0.0000 -SN BR 5000 0 0 0 2070
2019/10/04 02:50:01 BASE 14.99 250 19.29 251 -10.1 100 -10.1 0 0 974.2 NA 0.0000 -SN BR 5000 0 0 0 2000
2019/10/04 02:51:01 BASE 14.46 255 19.29 251 -10.1 100 -10.1 0 0 974.2 NA 0.0000 -SN BR 4000 0 0 0 1770
2019/10/04 02:52:01 BASE 16.39 253 19.29 251 -10.1 100 -10.1 0 0 974.2 NA 0.0000 -SN BR 3000 0 0 0 1670
2019/10/04 02:53:01 BASE 16.50 251 19.29 251 -10.1 100 -10.1 0 0 974.2 NA 0.0000 -SN BR 3000 0 0 0 1540
2019/10/04 02:54:01 BASE 17.04 252 19.29 251 -10.2 100 -10.2 0 0 974.2 NA 0.0000 -SN BR 2800 0 0 0 1350
2019/10/04 02:55:01 BASE 17.76 252 19.60 256 -10.2 100 -10.2 0 0 974.2 NA 0.0000 -SN BR 2600 0 0 0 1280
2019/10/04 02:56:01 BASE 17.09 251 19.60 256 -10.2 100 -10.2 0 0 974.3 NA 0.0000 -SN BR 2600 0 0 0 1180
2019/10/04 02:57:01 BASE 16.26 251 19.60 256 -10.2 100 -10.2 0 0 974.3 NA 0.0000 -SN BR 2600 0 0 0 1050
2019/10/04 02:58:01 BASE 16.19 253 19.60 240 -10.3 100 -10.3 0 0 974.3 NA 0.0000 -SN BR 2700 0 0 0 1050
2019/10/04 02:59:01 BASE 16.39 254 19.60 240 -10.3 100 -10.3 0 0 974.4 NA 0.0000 -SN BR 3200 0 0 0 1050
2019/10/04 03:00:01 BASE 16.17 253 19.60 240 -10.3 100 -10.3 0 0 974.3 NA 0.0000 -SN BR 3100 0 0 0 1080
2019/10/04 03:01:01 BASE 17.09 250 19.60 240 -10.3 100 -10.3 0 0 974.3 NA 0.0000 -SN BR 3200 0 0 0 1120
2019/10/04 03:02:01 BASE 17.77 252 19.60 240 -10.3 100 -10.3 0 0 974.3 NA 0.0000 -SN BR 3800 0 0 0 1210
2019/10/04 03:03:01 BASE 16.94 255 19.60 240 -10.3 100 -10.3 0 0 974.4 NA 0.0000 -SN BR 5000 0 0 0 1180
2019/10/04 03:04:01 BASE 16.31 253 19.60 240 -10.4 100 -10.4 0 0 974.4 NA 0.0000 -SN BR 5000 0 0 0 1210
2019/10/04 03:05:01 BASE 16.01 251 19.60 240 -10.4 100 -10.4 0 0 974.4 NA 0.0000 -SN BR 6000 0 0 0 1310
2019/10/04 03:06:01 BASE 15.23 255 19.60 240 -10.4 100 -10.4 0 0 974.4 NA 0.0000 -SN BR 8000 0 0 0 1380
2019/10/04 03:07:01 BASE 14.71 256 19.60 240 -10.4 100 -10.4 0 0 974.4 NA 0.0000 -SN BR 9000 0 0 0 1410
2019/10/04 03:08:01 BASE 14.76 255 19.55 255 -10.4 100 -10.4 0 0 974.5 NA 0.0000 -SN BR 7000 0 0 0 1440
2019/10/04 03:09:01 BASE 15.59 254 18.98 251 -10.4 100 -10.4 0 0 974.4 NA 0.0000 -SN BR 9999 0 0 0 1540
2019/10/04 03:10:01 BASE 15.91 252 18.98 251 -10.5 100 -10.5 0 0 974.4 NA 0.0000 -SN BR 9999 0 0 0 1570
2019/10/04 03:11:01 BASE 15.80 252 18.98 251 -10.5 100 -10.5 0 0 974.5 NA 0.0000 -SN BR 9999 0 0 0 1640
2019/10/04 03:12:01 BASE 15.64 254 18.47 254 -10.5 100 -10.5 0 0 974.5 NA 0.0000 -SN BR 9999 0 0 0 1770
2019/10/04 03:13:01 BASE 15.23 254 18.37 246 -10.6 100 -10.6 0 0 974.5 NA 0.0000 -SN BR 9999 0 0 0 1800
2019/10/04 03:14:01 BASE 15.06 254 18.37 246 -10.6 100 -10.6 0 0 974.6 NA 0.0000 -SN 9999 0 0 0 1900
2019/10/04 03:15:01 BASE 13.93 256 18.06 253 -10.6 100 -10.6 0 0 974.6 NA 0.0000 -SN 9999 260 0 0 0
2019/10/04 03:16:01 BASE 13.36 255 18.06 253 -10.6 100 -10.6 0 0 974.6 NA 0.0000 -SN 9999 260 0 0 0
2019/10/04 03:17:01 BASE 13.95 253 18.06 253 -10.6 100 -10.6 0 0 974.6 NA 0.0000 -SN 9999 300 0 0 0
2019/10/04 03:18:01 BASE 15.20 252 18.06 253 -10.6 100 -10.6 0 0 974.6 NA 0.0000 -SN 9999 260 0 0 0
2019/10/04 03:19:01 BASE 15.78 252 17.65 262 -10.6 100 -10.6 0 0 974.7 NA 0.0000 -SN 9999 300 0 0 0
2019/10/04 03:20:01 BASE 14.94 251 17.65 262 -10.6 100 -10.6 0 0 974.7 NA 0.0000 -SN 9999 260 0 0 0
2019/10/04 03:21:01 BASE 14.34 252 17.65 262 -10.6 100 -10.6 0 0 974.7 NA 0.0000 9999 300 0 0 0
2019/10/04 03:22:01 BASE 14.15 253 17.65 262 -10.6 100 -10.6 0 0 974.7 NA 0.0000 9999 260 0 0 0
2019/10/04 03:23:00 BASE 13.84 255 17.65 262 -10.7 100 -10.7 0 0 974.8 NA 0.0000 9999 260 0 0 0
2019/10/04 03:24:01 BASE 13.27 257 17.65 262 -10.7 100 -10.7 0 0 974.7 NA 0.0000 9999 260 0 0 0
2019/10/04 03:25:01 BASE 13.08 257 17.65 262 -10.7 100 -10.7 0 0 974.8 NA 0.0000 9999 230 0 0 0
2019/10/04 03:26:01 BASE 13.02 255 17.65 262 -10.7 100 -10.7 0 0 974.8 NA 0.0000 9999 260 0 0 0
2019/10/04 03:27:00 BASE 12.99 250 17.65 262 -10.7 100 -10.7 0 0 974.8 NA 0.0000 9999 230 1380 0 0
2019/10/04 03:28:01 BASE 12.11 248 17.03 252 -10.6 100 -10.6 0 0 974.8 NA 0.0000 9999 0 0 0 2300
2019/10/04 03:29:00 BASE 12.41 250 17.03 252 -10.6 100 -10.6 0 0 974.8 NA 0.0000 9999 260 0 0 0
2019/10/04 03:30:01 BASE 12.92 253 17.03 252 -10.6 100 -10.6 0 0 974.8 NA 0.0000 9999 0 0 0 1800
2019/10/04 03:31:01 BASE 12.61 255 17.03 252 -10.6 100 -10.6 0 0 974.7 NA 0.0000 9999 0 0 0 1710
2019/10/04 03:32:01 BASE 13.25 253 15.48 246 -10.6 100 -10.6 0 0 974.8 NA 0.0000 9000 0 0 0 1610
2019/10/04 03:33:01 BASE 12.69 252 15.48 246 -10.6 100 -10.6 0 0 974.8 NA 0.0000 -SN 8000 0 0 0 1440
2019/10/04 03:34:01 BASE 12.10 249 15.48 246 -10.6 100 -10.6 0 0 974.8 NA 0.0000 -SN 9000 0 0 0 1570
2019/10/04 03:35:01 BASE 12.07 248 15.48 246 -10.6 100 -10.6 0 0 974.8 NA 0.0000 -SN 9000 0 0 0 1540
2019/10/04 03:36:01 BASE 12.45 250 15.48 246 -10.5 100 -10.5 0 0 974.8 NA 0.0000 -SN 9000 0 0 0 1610
2019/10/04 03:37:00 BASE 13.21 251 15.38 244 -10.5 100 -10.5 0 0 974.9 NA 0.0000 -SN BR 8000 0 0 0 1710
2019/10/04 03:38:01 BASE 14.00 252 16.31 252 -10.5 100 -10.5 0 0 974.9 NA 0.0000 -SN BR 8000 0 0 0 1610
2019/10/04 03:39:00 BASE 14.43 252 16.51 258 -10.5 100 -10.5 0 0 974.9 NA 0.0000 -SN BR 8000 0 0 0 1870
2019/10/04 03:40:01 BASE 13.68 251 16.51 258 -10.5 100 -10.5 0 0 974.9 NA 0.0000 -SN BR 7000 260 0 0 0
2019/10/04 03:41:00 BASE 12.53 247 16.51 258 -10.5 100 -10.5 0 0 975.0 NA 0.0000 -SN BR 7000 300 0 0 0
2019/10/04 03:42:01 BASE 12.09 244 16.51 258 -10.5 100 -10.5 0 0 975.0 NA 0.0000 -SN BR 7000 260 0 0 0
2019/10/04 03:43:00 BASE 13.54 239 16.77 237 -10.5 100 -10.5 0 0 974.9 NA 0.0000 BR 7000 230 0 0 0
2019/10/04 03:44:00 BASE 13.75 239 16.77 237 -10.5 100 -10.5 0 0 975.0 NA 0.0000 BR 7000 330 0 0 0
2019/10/04 03:45:01 BASE 13.65 246 16.77 237 -10.5 100 -10.5 0 0 975.0 NA 0.0000 BR 6000 330 0 0 0
2019/10/04 03:46:00 BASE 14.02 249 16.77 237 -10.5 100 -10.6 0 0 975.1 NA 0.0000 BR 6000 330 0 0 0
2019/10/04 03:47:00 BASE 13.42 250 16.77 237 -10.5 99 -10.6 0 0 975.1 NA 0.0000 BR 6000 360 0 0 0
2019/10/04 03:48:00 BASE 12.43 251 16.77 237 -10.6 99 -10.7 0 0 975.1 NA 0.0000 BR 6000 390 0 0 0
2019/10/04 03:49:00 BASE 12.16 246 16.77 237 -10.6 99 -10.7 0 0 975.1 NA 0.0000 BR 6000 430 0 0 0
2019/10/04 03:50:00 BASE 13.02 238 16.77 237 -10.6 99 -10.7 0 0 975.1 NA 0.0000 BR 6000 390 0 0 0
2019/10/04 03:51:00 BASE 13.74 233 16.77 237 -10.6 99 -10.8 0 0 975.2 NA 0.0000 BR 5000 390 0 0 0
2019/10/04 03:52:01 BASE 12.60 233 16.77 237 -10.6 99 -10.8 0 0 975.2 NA 0.0000 BR 5000 360 0 0 0
2019/10/04 03:53:00 BASE 11.15 237 16.05 229 -10.6 98 -10.8 0 0 975.2 NA 0.0000 BR 5000 720 0 0 0
2019/10/04 03:54:00 BASE 13.13 240 16.10 226 -10.6 98 -10.9 0 0 975.2 NA 0.0000 BR 5000 430 0 0 0
2019/10/04 03:55:00 BASE 13.67 236 16.10 229 -10.7 98 -11.0 0 0 975.2 NA 0.0000 BR 5000 390 0 0 0
2019/10/04 03:56:01 BASE 12.01 238 16.10 229 -10.7 97 -11.1 0 0 975.3 NA 0.0000 BR 5000 820 0 0 0
2019/10/04 03:57:00 BASE 12.46 241 16.10 229 -10.7 97 -11.2 0 0 975.3 NA 0.0000 BR 5000 460 0 0 0
2019/10/04 03:58:00 BASE 13.05 242 16.10 229 -10.8 96 -11.3 0 0 975.3 NA 0.0000 BR 5000 390 0 0 0
2019/10/04 03:59:00 BASE 13.82 246 18.01 243 -10.8 96 -11.4 0 0 975.3 NA 0.0000 BR 5000 360 0 0 0
2019/10/04 04:00:00 BASE 15.15 246 18.01 243 -10.8 95 -11.5 0 0 975.3 NA 0.0000 BR 5000 330 0 0 0
2019/10/04 04:01:06 BASE 15.07 246 18.01 243 -10.9 95 -11.5 0 0 975.3 NA 0.0000 BR 5000 300 0 0 0
2019/10/04 04:02:00 BASE 14.05 244 18.01 243 -10.9 94 -11.6 0 0 975.3 NA 0.0000 -SN BR 9000 300 2130 0 0
2019/10/04 04:03:00 BASE 13.86 241 18.01 243 -10.9 94 -11.7 0 0 975.4 NA 0.0000 -SN BR 9000 330 0 0 0
2019/10/04 04:04:00 BASE 14.12 242 18.01 243 -10.9 93 -11.8 0 0 975.4 NA 0.0000 -SN BR 9000 330 0 0 0
2019/10/04 04:05:00 BASE 13.05 246 18.01 243 -10.9 93 -11.8 0 0 975.4 NA 0.0000 -SN BR 9000 360 0 0 0
2019/10/04 04:06:00 BASE 11.51 244 18.01 243 -10.9 93 -11.9 0 0 975.4 NA 0.0000 -SN BR 9000 360 0 0 0
2019/10/04 04:07:00 BASE 11.33 243 18.01 243 -10.9 92 -11.9 0 0 975.4 NA 0.0000 -SN BR 8000 260 0 0 0
2019/10/04 04:08:00 BASE 12.53 247 18.01 243 -10.9 92 -12.0 0 0 975.4 NA 0.0000 -SN BR 6000 330 0 0 0
2019/10/04 04:09:00 BASE 14.27 245 17.75 242 -10.9 91 -12.0 0 0 975.4 NA 0.0000 -SN BR 8000 300 0 0 0
2019/10/04 04:10:00 BASE 15.15 243 17.75 242 -10.9 91 -12.1 0 0 975.4 NA 0.0000 -SN BR 6000 260 0 0 0
2019/10/04 04:11:00 BASE 13.57 243 17.75 242 -10.9 90 -12.2 0 0 975.5 NA 0.0000 -SN BR 5000 0 0 0 2890
2019/10/04 04:12:00 BASE 12.73 244 17.75 242 -10.9 90 -12.2 0 0 975.4 NA 0.0000 -SN BR 4500 0 0 0 2890
2019/10/04 04:13:00 BASE 12.94 247 17.75 242 -10.9 89 -12.3 0 0 975.4 NA 0.0000 -SN BR 5000 230 0 0 0
2019/10/04 04:14:00 BASE 12.75 247 17.75 242 -10.9 89 -12.4 0 0 975.4 NA 0.0000 -SN BR 6000 260 0 0 0
2019/10/04 04:15:00 BASE 12.37 247 17.75 242 -10.9 89 -12.4 0 0 975.5 NA 0.0000 -SN BR 6000 0 0 0 3080
2019/10/04 04:16:00 BASE 12.07 248 17.75 242 -10.9 89 -12.4 0 0 975.5 NA 0.0000 -SN BR 6000 360 0 0 0
2019/10/04 04:17:00 BASE 10.74 251 17.75 242 -10.9 88 -12.4 0 0 975.6 NA 0.0000 -SN BR 6000 330 0 0 0
2019/10/04 04:18:00 BASE 9.77 252 17.75 242 -10.9 88 -12.5 0 0 975.6 NA 0.0000 -SN BR 6000 0 0 0 3380
2019/10/04 04:19:00 BASE 10.10 250 16.36 242 -10.8 88 -12.5 0 0 975.6 NA 0.0000 -SN BR 5000 0 0 0 3640
2019/10/04 04:20:00 BASE 10.20 254 15.23 249 -10.8 87 -12.5 0 0 975.6 NA 0.0000 -SN BR 5000 0 0 0 3840
2019/10/04 04:21:00 BASE 10.37 255 15.23 249 -10.8 87 -12.5 0 0 975.6 NA 0.0000 -SN BR 5000 0 0 0 4660
2019/10/04 04:22:00 BASE 10.61 249 14.71 248 -10.7 86 -12.6 0 0 975.5 NA 0.0000 -SN BR 5000 0 0 0 4690
2019/10/04 04:23:00 BASE 10.43 245 14.15 243 -10.7 86 -12.6 0 0 975.5 NA 0.0000 BR 5000 660 0 0 0
2019/10/04 04:24:00 BASE 9.63 244 13.79 243 -10.6 85 -12.6 0 0 975.6 NA 0.0000 BR 5000 3740 0 0 0
2019/10/04 04:25:00 BASE 9.45 240 13.79 243 -10.6 85 -12.7 0 0 975.6 NA 0.0000 BR 5000 430 0 0 0
2019/10/04 04:26:00 BASE 10.29 237 13.48 254 -10.6 84 -12.8 0 0 975.5 NA 0.0000 BR 5000 430 0 0 0
2019/10/04 04:27:00 BASE 11.03 237 13.48 254 -10.6 84 -12.8 0 0 975.5 NA 0.0000 BR 5000 3940 0 0 0
2019/10/04 04:28:00 BASE 11.95 235 14.15 226 -10.6 83 -12.9 0 0 975.6 NA 0.0000 HZ 5000 4040 0 0 0
2019/10/04 04:29:00 BASE 10.98 235 14.15 226 -10.7 83 -13.0 0 0 975.6 NA 0.0000 HZ 5000 4000 0 0 0
2019/10/04 04:30:00 BASE 9.49 241 14.15 226 -10.7 82 -13.1 0 0 975.6 NA 0.0000 HZ 5000 3970 0 0 0
2019/10/04 04:31:00 BASE 9.80 240 14.15 226 -10.6 82 -13.2 0 0 975.6 NA 0.0000 HZ 5000 3870 0 0 0
2019/10/04 04:32:00 BASE 9.30 237 14.15 226 -10.6 81 -13.2 0 0 975.6 NA 0.0000 HZ 5000 3900 0 0 0
2019/10/04 04:33:00 BASE 9.56 232 14.15 226 -10.6 81 -13.3 0 0 975.6 NA 0.0000 HZ 9999 3970 0 0 0
2019/10/04 04:34:00 BASE 9.77 232 14.15 226 -10.6 80 -13.3 0 0 975.7 NA 0.0000 HZ 9999 4000 0 0 0
2019/10/04 04:35:00 BASE 9.17 241 14.15 226 -10.6 80 -13.4 0 0 975.7 NA 0.0000 HZ 9999 4040 0 0 0
2019/10/04 04:36:00 BASE 9.16 242 14.15 226 -10.6 80 -13.4 0 0 975.8 NA 0.0000 HZ 9999 4070 0 0 0
2019/10/04 04:37:00 BASE 9.62 239 14.15 226 -10.6 79 -13.5 0 0 975.8 NA 0.0000 HZ 9999 4170 0 0 0
2019/10/04 04:38:00 BASE 10.47 245 13.02 256 -10.5 79 -13.5 0 0 975.8 NA 0.0000 HZ 9999 4070 0 0 0
2019/10/04 04:39:00 BASE 11.24 254 13.84 251 -10.5 78 -13.6 0 0 975.8 NA 0.0000 HZ 9999 4100 0 0 0
2019/10/04 04:40:00 BASE 11.55 252 14.20 246 -10.6 78 -13.7 0 0 975.8 NA 0.0000 9999 4270 0 0 0
2019/10/04 04:41:00 BASE 11.23 250 14.20 246 -10.6 77 -13.8 0 0 975.8 NA 0.0000 9999 4270 0 0 0
2019/10/04 04:42:00 BASE 11.25 250 14.20 246 -10.6 77 -13.9 0 0 975.8 NA 0.0000 9999 4330 0 0 0
2019/10/04 04:43:00 BASE 11.39 249 14.20 246 -10.6 76 -14.0 0 0 975.8 NA 0.0000 9999 4270 0 0 0
2019/10/04 04:44:00 BASE 11.52 251 14.20 246 -10.6 76 -14.0 0 0 975.9 NA 0.0000 9999 4200 0 0 0
2019/10/04 04:45:00 BASE 10.79 249 14.20 246 -10.7 76 -14.1 0 0 975.9 NA 0.0000 9999 4270 0 0 0
2019/10/04 04:46:00 BASE 9.35 252 14.20 246 -10.7 76 -14.1 0 0 975.9 NA 0.0000 9999 4200 0 0 0
2019/10/04 04:47:00 BASE 9.76 257 14.20 246 -10.7 76 -14.1 0 0 975.9 NA 0.0000 9999 4300 0 0 0
2019/10/04 04:48:00 BASE 10.24 255 14.20 246 -10.7 76 -14.1 0 0 975.9 NA 0.0000 9999 4300 0 0 0
2019/10/04 04:49:00 BASE 9.75 255 14.20 246 -10.7 77 -14.0 0 0 975.9 NA 0.0000 9999 4330 0 0 0
2019/10/04 04:50:00 BASE 9.19 252 14.15 246 -10.7 77 -13.9 0 0 975.9 NA 0.0000 9999 4460 0 0 0
2019/10/04 04:51:00 BASE 8.50 251 13.89 260 -10.7 78 -13.9 0 0 975.9 NA 0.0000 9999 4530 0 0 0
2019/10/04 04:52:00 BASE 8.23 259 13.89 260 -10.7 78 -13.8 0 0 975.9 NA 0.0000 9999 4590 0 0 0
2019/10/04 04:53:00 BASE 7.83 260 13.89 260 -10.7 78 -13.7 0 0 976.0 NA 0.0000 9999 4630 0 0 0
2019/10/04 04:54:00 BASE 7.26 258 11.99 252 -10.7 79 -13.7 0 0 976.0 NA 0.0000 9999 4660 0 0 0
2019/10/04 04:55:00 BASE 6.03 261 11.99 252 -10.7 79 -13.7 0 0 976.0 NA 0.0000 9999 4660 0 0 0
2019/10/04 04:56:00 BASE 5.92 264 11.99 252 -10.7 79 -13.6 0 0 975.9 NA 0.0000 9999 4690 0 0 0
2019/10/04 04:57:00 BASE 6.88 243 11.99 252 -10.7 79 -13.6 0 0 976.0 NA 0.0000 9999 4790 0 0 0
2019/10/04 04:58:00 BASE 7.46 223 11.99 252 -10.7 79 -13.6 0 0 976.0 NA 0.0000 9999 4860 0 0 0
2019/10/04 04:59:00 BASE 9.26 232 11.83 237 -10.7 79 -13.6 0 0 976.0 NA 0.0000 9999 4950 0 0 0
2019/10/04 05:00:00 BASE 9.37 241 11.83 237 -10.6 79 -13.6 0 0 976.0 NA 0.0000 9999 3150 4950 0 0
2019/10/04 05:01:00 BASE 9.07 244 12.04 250 -10.6 79 -13.6 0 0 976.0 NA 0.0000 9999 2850 4950 0 0
2019/10/04 05:02:00 BASE 8.97 245 12.04 250 -10.6 79 -13.6 0 0 976.0 NA 0.0000 9999 2460 4950 0 0
2019/10/04 05:03:00 BASE 8.98 249 12.04 250 -10.6 78 -13.6 0 0 976.0 NA 0.0000 9999 2530 0 0 0
2019/10/04 05:04:00 BASE 9.39 248 12.04 250 -10.6 78 -13.6 0 0 976.0 NA 0.0000 9999 2560 4950 0 0
2019/10/04 05:05:00 BASE 9.69 244 12.04 250 -10.6 78 -13.7 0 0 976.0 NA 0.0000 9999 2530 0 0 0
2019/10/04 05:06:00 BASE 10.25 247 12.04 250 -10.6 78 -13.7 0 0 976.0 NA 0.0000 9999 2430 5050 0 0
2019/10/04 05:07:00 BASE 10.27 247 12.04 250 -10.6 78 -13.6 0 0 976.0 NA 0.0000 9999 2260 2820 5120 0
2019/10/04 05:08:00 BASE 9.92 244 12.04 250 -10.5 78 -13.6 0 0 976.0 NA 0.0000 9999 5020 0 0 0
2019/10/04 05:09:00 BASE 8.61 239 12.04 250 -10.6 78 -13.6 0 0 976.0 NA 0.0000 9999 2820 5180 0 0
2019/10/04 05:10:00 BASE 7.47 237 12.04 250 -10.5 78 -13.6 0 0 976.0 NA 0.0000 9999 2690 5150 0 0
2019/10/04 05:11:00 BASE 6.32 234 11.78 251 -10.5 78 -13.6 0 0 976.0 NA 0.0000 9999 2620 5180 0 0
2019/10/04 05:12:00 BASE 6.23 229 11.78 251 -10.5 78 -13.6 0 0 976.0 NA 0.0000 9999 5250 0 0 0
2019/10/04 05:13:00 BASE 6.91 233 11.78 251 -10.5 78 -13.6 0 0 976.0 NA 0.0000 9999 5280 0 0 0
2019/10/04 05:14:00 BASE 7.90 236 11.99 234 -10.5 78 -13.5 0 0 976.0 NA 0.0000 9999 5350 0 0 0
2019/10/04 05:15:00 BASE 9.33 237 11.99 234 -10.5 79 -13.5 0 0 976.0 NA 0.0000 9999 2720 5350 0 0
2019/10/04 05:16:00 BASE 9.31 235 11.99 234 -10.5 79 -13.5 0 0 976.0 NA 0.0000 9999 2850 5350 0 0
2019/10/04 05:17:00 BASE 9.60 230 11.99 229 -10.6 79 -13.6 0 0 976.0 NA 0.0000 9999 2330 0 0 0
2019/10/04 05:18:00 BASE 10.19 234 11.99 230 -10.6 78 -13.6 0 0 976.0 NA 0.0000 9999 2230 0 0 0
2019/10/04 05:19:00 BASE 10.06 238 11.99 230 -10.6 78 -13.7 0 0 976.0 NA 0.0000 9999 2200 2950 5380 0
2019/10/04 05:20:00 BASE 10.34 238 12.91 240 -10.6 78 -13.8 0 0 976.0 NA 0.0000 9999 2460 0 0 0
2019/10/04 05:21:00 BASE 11.10 235 12.91 240 -10.6 77 -13.8 0 0 976.0 NA 0.0000 9999 2660 0 0 0
2019/10/04 05:22:00 BASE 11.83 232 13.43 231 -10.6 77 -13.9 0 0 976.0 NA 0.0000 9999 2430 0 0 0
2019/10/04 05:23:00 BASE 10.63 234 13.43 231 -10.6 76 -14.0 0 0 976.0 NA 0.0000 9999 2460 0 0 0
2019/10/04 05:24:00 BASE 9.67 233 13.43 231 -10.6 76 -14.0 0 0 976.0 NA 0.0000 9999 2530 2950 5410 0
2019/10/04 05:25:00 BASE 9.58 231 13.43 231 -10.6 76 -14.1 0 0 976.0 NA 0.0000 9999 2430 5480 0 0
2019/10/04 05:26:00 BASE 8.32 232 13.43 231 -10.6 75 -14.1 0 0 976.0 NA 0.0000 9999 2590 5380 0 0
2019/10/04 05:27:00 BASE 7.85 240 13.43 231 -10.6 75 -14.1 0 0 976.0 NA 0.0000 9999 5350 0 0 0
2019/10/04 05:28:00 BASE 8.08 245 13.43 231 -10.6 75 -14.1 0 0 976.0 NA 0.0000 9999 2460 5350 0 0
2019/10/04 05:29:00 BASE 8.36 241 13.43 231 -10.6 76 -14.1 0 0 976.0 NA 0.0000 9999 2430 3970 5380 0
2019/10/04 05:30:00 BASE 8.40 240 13.43 231 -10.7 76 -14.1 0 0 976.0 NA 0.0000 9999 2360 4230 5090 0
2019/10/04 05:31:00 BASE 8.36 243 13.43 231 -10.7 76 -14.1 0 0 976.0 NA 0.0000 9999 4530 0 0 0
2019/10/04 05:32:00 BASE 8.59 243 11.11 236 -10.7 76 -14.2 0 0 976.0 NA 0.0000 9999 3870 4690 5410 0
2019/10/04 05:33:00 BASE 8.46 239 11.11 236 -10.7 75 -14.2 0 0 976.0 NA 0.0000 9999 2490 3900 0 0
2019/10/04 05:34:00 BASE 8.23 235 10.91 233 -10.7 75 -14.3 0 0 976.0 NA 0.0000 9999 2590 3870 0 0
2019/10/04 05:35:00 BASE 8.09 236 10.49 237 -10.8 75 -14.3 0 0 976.0 NA 0.0000 9999 2460 3900 0 0
2019/10/04 05:36:00 BASE 7.53 238 10.49 237 -10.8 75 -14.3 0 0 976.0 NA 0.0000 9999 2330 0 0 0
2019/10/04 05:37:00 BASE 7.45 242 10.49 237 -10.7 75 -14.3 0 0 976.0 NA 0.0000 9999 2130 0 0 0
2019/10/04 05:38:00 BASE 7.68 241 10.49 237 -10.7 75 -14.3 0 0 976.0 NA 0.0000 9999 2490 4000 0 0
2019/10/04 05:39:00 BASE 7.07 236 10.49 237 -10.8 75 -14.3 0 0 976.0 NA 0.0000 9999 2790 3870 0 0
2019/10/04 05:40:00 BASE 6.85 233 10.49 237 -10.7 75 -14.3 0 0 976.0 NA 0.0000 9999 2720 3970 0 0
2019/10/04 05:41:00 BASE 6.65 231 10.49 237 -10.7 75 -14.3 0 0 976.0 NA 0.0000 9999 2560 4040 0 0
2019/10/04 05:42:00 BASE 6.81 222 10.49 237 -10.7 75 -14.2 0 0 976.0 NA 0.0000 9999 2200 0 0 0
2019/10/04 05:43:00 BASE 6.64 218 9.41 231 -10.7 76 -14.2 0 0 976.0 NA 0.0000 9999 2200 0 0 0
2019/10/04 05:44:00 BASE 5.98 223 9.21 229 -10.7 76 -14.1 0 0 976.0 NA 0.0000 9999 2100 0 0 0
2019/10/04 05:45:00 BASE 5.50 218 9.21 229 -10.7 76 -14.1 0 0 976.0 NA 0.0000 9999 2070 0 0 0
2019/10/04 05:46:01 BASE 5.11 220 9.21 229 -10.7 76 -14.1 0 0 976.0 NA 0.0000 9999 2070 0 0 0
2019/10/04 05:47:01 BASE 5.91 224 9.21 229 -10.6 76 -14.0 0 0 976.0 NA 0.0000 9999 2030 0 0 0
2019/10/04 05:48:01 BASE 6.55 226 8.03 246 -10.6 76 -14.0 0 0 976.0 NA 0.0000 9999 2100 0 0 0
2019/10/04 05:49:01 BASE 6.82 230 8.49 227 -10.6 76 -13.9 0 0 976.0 NA 0.0000 9999 2070 0 0 0
2019/10/04 05:50:01 BASE 7.07 226 8.49 227 -10.6 77 -13.9 0 0 976.0 NA 0.0000 9999 2100 0 0 0
2019/10/04 05:51:01 BASE 7.03 221 8.49 227 -10.6 77 -13.9 0 0 976.0 NA 0.0000 9999 2130 0 0 0
2019/10/04 05:52:01 BASE 6.11 213 8.49 227 -10.6 77 -13.8 0 0 976.0 NA 0.0000 9999 2170 0 0 0
2019/10/04 05:53:01 BASE 4.89 199 8.49 227 -10.6 77 -13.8 0 0 976.0 NA 0.0000 9999 2130 0 0 0
2019/10/04 05:54:01 BASE 5.39 198 8.95 204 -10.6 77 -13.8 0 0 976.0 NA 0.0000 9999 2200 0 0 0
2019/10/04 05:55:01 BASE 6.90 204 8.95 204 -10.6 77 -13.9 0 0 976.0 NA 0.0000 9999 2230 0 0 0
2019/10/04 05:56:01 BASE 7.60 206 8.95 204 -10.6 77 -13.9 0 0 976.0 NA 0.0000 9999 2170 0 0 0
2019/10/04 05:57:01 BASE 6.79 204 8.95 204 -10.6 77 -13.9 0 0 976.0 NA 0.0000 9999 2100 0 0 0
2019/10/04 05:58:01 BASE 7.10 202 9.67 208 -10.7 77 -13.9 0 0 976.0 NA 0.0000 9999 2230 0 0 0
2019/10/04 05:59:01 BASE 8.04 205 9.67 208 -10.7 77 -13.9 0 0 976.0 NA 0.0000 9999 2260 0 0 0
2019/10/04 06:00:01 BASE 7.96 207 9.67 208 -10.7 77 -13.9 0 0 976.0 NA 0.0000 9999 2260 0 0 0
2019/10/04 06:01:01 BASE 7.34 208 9.67 208 -10.7 77 -13.9 0 0 976.0 NA 0.0000 9999 2330 0 0 0
2019/10/04 06:02:01 BASE 7.16 206 9.67 208 -10.7 77 -14.0 0 0 976.0 NA 0.0000 9999 2400 0 0 0
2019/10/04 06:03:01 BASE 7.15 207 9.67 208 -10.7 76 -14.0 0 0 976.0 NA 0.0000 9999 2300 0 0 0
2019/10/04 06:04:01 BASE 6.94 209 9.67 208 -10.7 76 -14.0 0 0 976.0 NA 0.0000 9999 2760 3940 0 0
2019/10/04 06:05:01 BASE 7.16 209 9.67 208 -10.7 76 -14.1 0 0 976.0 NA 0.0000 9999 3940 0 0 0
2019/10/04 06:06:01 BASE 7.32 206 9.67 208 -10.7 76 -14.1 0 0 976.0 NA 0.0000 9999 3900 0 0 0
2019/10/04 06:07:01 BASE 8.41 202 10.24 215 -10.7 76 -14.1 0 0 976.0 NA 0.0000 9999 2790 3940 0 0
2019/10/04 06:08:01 BASE 9.03 200 10.24 215 -10.7 76 -14.1 0 0 976.0 NA 0.0000 9999 2620 0 0 0
2019/10/04 06:09:01 BASE 8.48 201 10.24 215 -10.7 76 -14.1 0 0 976.1 NA 0.0000 9999 2460 0 0 0
2019/10/04 06:10:01 BASE 8.48 201 10.24 215 -10.7 76 -14.2 0 0 976.2 NA 0.0000 9999 2430 0 0 0
2019/10/04 06:11:01 BASE 8.79 202 10.24 215 -10.7 75 -14.2 0 0 976.2 NA 0.0000 9999 2260 0 0 0
2019/10/04 06:12:01 BASE 8.84 207 10.70 212 -10.7 75 -14.2 0 0 976.2 NA 0.0000 9999 2170 0 0 0
2019/10/04 06:13:01 BASE 8.93 208 10.70 212 -10.7 75 -14.3 0 0 976.2 NA 0.0000 9999 2360 0 0 0
2019/10/04 06:14:01 BASE 8.26 209 10.70 212 -10.7 75 -14.3 0 0 976.2 NA 0.0000 9999 2330 0 0 0
2019/10/04 06:15:01 BASE 7.19 211 10.70 212 -10.7 75 -14.3 0 0 976.2 NA 0.0000 9999 2300 0 0 0
2019/10/04 06:16:01 BASE 7.62 211 10.70 212 -10.7 75 -14.3 0 0 976.2 NA 0.0000 9999 2330 0 0 0
2019/10/04 06:17:01 BASE 8.35 210 10.70 212 -10.7 75 -14.3 0 0 976.2 NA 0.0000 9999 2330 0 0 0
2019/10/04 06:18:01 BASE 8.10 211 10.70 212 -10.7 75 -14.2 0 0 976.2 NA 0.0000 9999 2530 0 0 0
2019/10/04 06:19:01 BASE 8.91 211 10.80 210 -10.6 75 -14.2 0 0 976.2 NA 0.0000 9999 2170 0 0 0
2019/10/04 06:20:01 BASE 9.56 213 10.80 210 -10.6 75 -14.2 0 0 976.2 NA 0.0000 9999 2360 0 0 0
2019/10/04 06:21:01 BASE 9.05 214 10.80 210 -10.6 75 -14.2 0 0 976.2 NA 0.0000 9999 2360 0 0 0
2019/10/04 06:22:01 BASE 8.51 213 10.80 210 -10.6 75 -14.2 0 0 976.2 NA 0.0000 9999 2430 0 0 0
2019/10/04 06:23:01 BASE 7.82 216 10.80 210 -10.6 75 -14.1 0 0 976.2 NA 0.0000 9999 2300 0 0 0
2019/10/04 06:24:01 BASE 8.34 219 10.80 210 -10.6 75 -14.1 0 0 976.2 NA 0.0000 9999 2100 0 0 0
2019/10/04 06:25:01 BASE 9.26 217 10.80 210 -10.6 76 -14.1 0 0 976.2 NA 0.0000 9999 2260 0 0 0
2019/10/04 06:26:01 BASE 8.60 214 10.80 210 -10.6 76 -14.1 0 0 976.2 NA 0.0000 9999 2200 0 0 0
2019/10/04 06:27:01 BASE 7.75 211 10.80 210 -10.6 76 -14.0 0 0 976.2 NA 0.0000 9999 2230 0 0 0
2019/10/04 06:28:01 BASE 8.17 211 10.80 210 -10.6 76 -14.0 0 0 976.2 NA 0.0000 9999 2400 0 0 0
2019/10/04 06:29:01 BASE 9.14 213 10.75 221 -10.7 76 -14.1 0 0 976.2 NA 0.0000 9999 2590 4230 0 0
2019/10/04 06:30:01 BASE 8.42 217 10.75 221 -10.7 76 -14.1 0 0 976.2 NA 0.0000 9999 2660 4100 0 0
2019/10/04 06:31:01 BASE 7.09 221 10.75 221 -10.7 76 -14.1 0 0 976.2 NA 0.0000 9999 2560 0 0 0
2019/10/04 06:32:01 BASE 7.00 224 10.75 221 -10.7 76 -14.1 0 0 976.2 NA 0.0000 9999 2560 0 0 0
2019/10/04 06:33:01 BASE 7.16 222 10.75 221 -10.7 76 -14.1 0 0 976.2 NA 0.0000 9999 2530 0 0 0
2019/10/04 06:34:01 BASE 7.57 220 10.75 221 -10.7 76 -14.2 0 0 976.2 NA 0.0000 9999 2330 0 0 0
2019/10/04 06:35:01 BASE 8.89 224 11.11 225 -10.7 75 -14.2 0 0 976.2 NA 0.0000 9999 2360 0 0 0
2019/10/04 06:36:01 BASE 9.75 222 11.11 225 -10.7 75 -14.2 0 0 976.2 NA 0.0000 9999 2400 0 0 0
2019/10/04 06:37:01 BASE 9.23 216 11.11 225 -10.7 75 -14.3 0 0 976.2 NA 0.0000 9999 2260 0 0 0
2019/10/04 06:38:01 BASE 9.40 209 11.11 225 -10.7 75 -14.3 0 0 976.2 NA 0.0000 9999 2200 0 0 0
2019/10/04 06:39:01 BASE 9.03 205 11.11 225 -10.7 74 -14.3 0 0 976.2 NA 0.0000 -SN 9999 2170 0 0 0
2019/10/04 06:40:00 BASE 8.32 203 11.11 225 -10.7 74 -14.4 0 0 976.2 NA 0.0000 -SN 9999 2200 0 0 0
2019/10/04 06:41:01 BASE 8.60 200 11.11 225 -10.7 74 -14.4 0 0 976.2 NA 0.0000 -SN 9999 2130 0 0 0
2019/10/04 06:42:01 BASE 8.35 197 11.11 225 -10.7 74 -14.4 0 0 976.2 NA 0.0000 -SN 9999 2130 0 0 0
2019/10/04 06:43:01 BASE 7.88 195 11.11 225 -10.7 75 -14.3 0 0 976.1 NA 0.0000 -SN 9999 2200 0 0 0
2019/10/04 06:44:01 BASE 7.62 196 11.11 225 -10.7 75 -14.3 0 0 976.1 NA 0.0000 -SN 9000 2530 0 0 0
2019/10/04 06:45:00 BASE 8.28 199 10.75 209 -10.7 75 -14.3 0 0 976.0 NA 0.0000 -SN 7000 2460 0 0 0
2019/10/04 06:46:01 BASE 8.82 199 10.75 209 -10.8 75 -14.3 0 0 976.1 NA 0.0000 -SN 6000 2360 0 0 0
2019/10/04 06:47:00 BASE 8.51 200 10.75 209 -10.8 75 -14.3 0 0 976.1 NA 0.0000 -SN 6000 2300 0 0 0
2019/10/04 06:48:00 BASE 7.93 196 10.19 206 -10.8 75 -14.4 0 0 976.1 NA 0.0000 -SN 9000 2300 0 0 0
2019/10/04 06:49:01 BASE 7.86 191 10.19 206 -10.8 75 -14.4 0 0 976.0 NA 0.0000 -SN 9999 2260 0 0 0
2019/10/04 06:50:00 BASE 7.74 192 9.88 196 -10.8 75 -14.4 0 0 976.1 NA 0.0000 -SN 9999 2330 0 0 0
2019/10/04 06:51:00 BASE 6.83 198 9.88 196 -10.8 75 -14.4 0 0 976.2 NA 0.0000 -SN 9999 2490 0 0 0
2019/10/04 06:52:00 BASE 6.59 196 9.88 196 -10.8 75 -14.4 0 0 976.2 NA 0.0000 -SN 9999 2400 0 0 0
2019/10/04 06:53:00 BASE 7.01 192 9.88 196 -10.8 75 -14.4 0 0 976.1 NA 0.0000 -SN 9999 1900 0 0 0
2019/10/04 06:54:00 BASE 7.33 191 9.88 196 -10.8 75 -14.4 0 0 976.2 NA 0.0000 -SN 9999 1540 0 0 0
2019/10/04 06:55:00 BASE 7.69 194 9.72 204 -10.8 75 -14.4 0 0 976.2 NA 0.0000 -SN 9999 2490 0 0 0
2019/10/04 06:56:01 BASE 7.69 197 9.72 204 -10.8 75 -14.4 0 0 976.2 NA 0.0000 -SN 9999 2590 0 0 0
2019/10/04 06:57:00 BASE 7.40 197 9.72 204 -10.8 75 -14.4 0 0 976.2 NA 0.0000 -SN 9999 2460 0 0 0
2019/10/04 06:58:00 BASE 7.76 197 9.72 204 -10.8 75 -14.4 0 0 976.2 NA 0.0000 -SN 9999 2430 0 0 0
2019/10/04 06:59:00 BASE 7.88 195 9.72 204 -10.8 75 -14.4 0 0 976.2 NA 0.0000 -SN 9999 1900 0 0 0
2019/10/04 07:00:00 BASE 7.70 196 9.72 204 -10.8 75 -14.4 0 0 976.2 NA 0.0000 -SN 9999 2530 0 0 0
2019/10/04 07:01:00 BASE 7.68 197 9.72 204 -10.8 75 -14.4 0 0 976.2 NA 0.0000 -SN 9999 2430 0 0 0
2019/10/04 07:02:00 BASE 7.56 196 9.72 204 -10.8 75 -14.4 0 0 976.2 NA 0.0000 -SN 9999 690 0 0 0
2019/10/04 07:03:00 BASE 7.25 194 9.72 204 -10.8 75 -14.4 0 0 976.2 NA 0.0000 -SN 9999 2660 0 0 0
2019/10/04 07:04:00 BASE 7.52 190 9.72 204 -10.8 75 -14.4 0 0 976.2 NA 0.0000 -SN 9000 2620 0 0 0
2019/10/04 07:05:00 BASE 7.93 183 9.26 190 -10.8 75 -14.4 0 0 976.2 NA 0.0000 -SN 8000 2460 0 0 0
2019/10/04 07:06:00 BASE 7.60 177 9.26 190 -10.8 75 -14.4 0 0 976.2 NA 0.0000 -SN 8000 2460 0 0 0
2019/10/04 07:07:01 BASE 7.13 179 9.26 190 -10.8 75 -14.4 0 0 976.2 NA 0.0000 -SN 9000 2400 0 0 0
2019/10/04 07:08:01 BASE 6.32 181 9.26 190 -10.8 75 -14.5 0 0 976.2 NA 0.0000 -SN 9999 460 0 0 0
2019/10/04 07:09:01 BASE 6.04 178 9.26 190 -10.9 74 -14.5 0 0 976.2 NA 0.0000 -SN 9999 390 0 0 0
2019/10/04 07:10:01 BASE 6.28 179 9.26 190 -10.9 74 -14.6 0 0 976.2 NA 0.0000 -SN 9000 2300 0 0 0
2019/10/04 07:11:01 BASE 5.89 181 9.26 190 -10.9 74 -14.6 0 0 976.2 NA 0.0000 -SN 8000 2400 0 0 0
2019/10/04 07:12:01 BASE 5.79 181 9.26 190 -10.9 74 -14.6 0 0 976.2 NA 0.0000 -SN 9999 2460 0 0 0
2019/10/04 07:13:00 BASE 6.14 184 9.26 190 -10.9 74 -14.5 0 0 976.2 NA 0.0000 -SN 9999 2460 0 0 0
2019/10/04 07:14:01 BASE 5.89 183 8.95 178 -10.8 75 -14.5 0 0 976.2 NA 0.0000 -SN 9999 2460 0 0 0
2019/10/04 07:15:00 BASE 5.48 184 7.97 170 -10.8 75 -14.4 0 0 976.2 NA 0.0000 -SN 9999 2430 0 0 0
2019/10/04 07:16:00 BASE 5.67 184 7.51 188 -10.8 75 -14.4 0 0 976.2 NA 0.0000 -SN 9999 2360 0 0 0
2019/10/04 07:17:00 BASE 5.95 182 7.41 180 -10.8 75 -14.4 0 0 976.2 NA 0.0000 -SN 9999 2360 0 0 0
2019/10/04 07:18:01 BASE 6.40 178 7.67 179 -10.8 75 -14.3 0 0 976.2 NA 0.0000 -SN 9999 2330 0 0 0
2019/10/04 07:19:00 BASE 6.90 177 8.13 175 -10.8 75 -14.3 0 0 976.2 NA 0.0000 -SN 9999 2260 0 0 0
2019/10/04 07:20:00 BASE 7.69 179 9.41 179 -10.8 76 -14.3 0 0 976.2 NA 0.0000 -SN 9999 2170 0 0 0
2019/10/04 07:21:00 BASE 9.17 176 11.01 173 -10.8 76 -14.2 0 0 976.1 NA 0.0000 -SN 9999 2230 0 0 0
2019/10/04 07:22:00 BASE 10.38 175 11.78 172 -10.8 76 -14.2 0 0 976.1 NA 0.0000 -SN 9999 2260 0 0 0
2019/10/04 07:23:00 BASE 10.42 177 11.78 172 -10.9 76 -14.3 0 0 976.2 NA 0.0000 -SN 9999 2590 0 0 0
2019/10/04 07:24:00 BASE 10.09 176 11.78 172 -10.9 76 -14.3 0 0 976.2 NA 0.0000 9999 2360 0 0 0
2019/10/04 07:25:00 BASE 10.05 171 11.78 172 -10.9 76 -14.3 0 0 976.2 NA 0.0000 9999 2400 0 0 0
2019/10/04 07:26:00 BASE 10.55 168 11.78 164 -10.9 76 -14.3 0 0 976.1 NA 0.0000 9999 2460 0 0 0
2019/10/04 07:27:00 BASE 10.87 170 11.78 164 -10.9 75 -14.4 0 0 976.1 NA 0.0000 9999 2460 0 0 0
2019/10/04 07:28:00 BASE 10.68 173 11.94 172 -10.9 75 -14.4 0 0 976.1 NA 0.0000 9999 2430 0 0 0
2019/10/04 07:29:00 BASE 10.69 175 11.99 174 -10.9 75 -14.4 0 0 976.2 NA 0.0000 9999 2460 0 0 0
2019/10/04 07:30:00 BASE 10.24 176 11.99 174 -10.9 75 -14.4 0 0 976.2 NA 0.0000 9999 2590 0 0 0
2019/10/04 07:31:00 BASE 10.13 178 11.99 174 -10.9 75 -14.5 0 0 976.2 NA 0.0000 9999 2530 0 0 0
2019/10/04 07:32:00 BASE 10.05 181 11.99 174 -10.9 75 -14.5 0 0 976.2 NA 0.0000 9999 2590 0 0 0
2019/10/04 07:33:00 BASE 9.33 182 11.99 174 -10.9 74 -14.6 0 0 976.2 NA 0.0000 9999 2530 0 0 0
2019/10/04 07:34:00 BASE 9.08 178 11.99 174 -10.9 74 -14.6 0 0 976.2 NA 0.0000 9999 2590 0 0 0
2019/10/04 07:35:00 BASE 9.30 175 11.99 174 -10.9 74 -14.6 0 0 976.2 NA 0.0000 9999 2620 0 0 0
2019/10/04 07:36:00 BASE 8.76 177 11.99 174 -10.9 74 -14.6 0 0 976.3 NA 0.0000 9999 2660 0 0 0
2019/10/04 07:37:00 BASE 8.25 177 11.99 174 -10.9 74 -14.6 0 0 976.3 NA 0.0000 9999 2430 0 0 0
2019/10/04 07:38:00 BASE 7.70 180 11.99 174 -10.9 74 -14.6 0 0 976.4 NA 0.0000 9999 2460 0 0 0
2019/10/04 07:39:00 BASE 7.19 184 11.37 174 -10.9 74 -14.6 0 0 976.4 NA 0.0000 9999 2430 0 0 0
2019/10/04 07:40:00 BASE 7.36 184 11.37 174 -10.9 74 -14.6 0 0 976.4 NA 0.0000 9999 2560 0 0 0
2019/10/04 07:41:00 BASE 7.35 181 10.75 169 -10.9 74 -14.6 0 0 976.4 NA 0.0000 9999 2620 0 0 0
2019/10/04 07:42:00 BASE 7.58 177 10.75 169 -10.9 74 -14.6 0 0 976.4 NA 0.0000 9999 2790 5020 0 0
2019/10/04 07:43:00 BASE 7.36 177 10.75 169 -10.9 75 -14.5 0 0 976.4 NA 0.0000 9999 4950 0 0 0
2019/10/04 07:44:00 BASE 7.25 181 10.19 177 -10.9 75 -14.5 0 0 976.4 NA 0.0000 9999 2920 4630 0 0
2019/10/04 07:45:00 BASE 7.67 183 9.67 185 -10.9 75 -14.5 0 0 976.5 NA 0.0000 9999 4490 0 0 0
2019/10/04 07:46:00 BASE 7.05 183 9.67 185 -10.9 74 -14.6 0 0 976.5 NA 0.0000 9999 2850 5090 0 0
2019/10/04 07:47:00 BASE 6.66 186 9.67 185 -10.9 74 -14.6 0 0 976.5 NA 0.0000 9999 2920 5050 0 0
2019/10/04 07:48:00 BASE 6.93 185 9.67 185 -10.9 74 -14.6 0 0 976.5 NA 0.0000 9999 5050 0 0 0
2019/10/04 07:49:00 BASE 6.49 184 9.67 185 -10.9 74 -14.6 0 0 976.5 NA 0.0000 9999 4990 0 0 0
2019/10/04 07:50:00 BASE 6.13 187 9.67 185 -10.8 74 -14.6 0 0 976.6 NA 0.0000 9999 3080 4990 0 0
2019/10/04 07:51:00 BASE 5.78 182 9.67 185 -10.8 74 -14.6 0 0 976.6 NA 0.0000 9999 4920 0 0 0
2019/10/04 07:52:00 BASE 5.42 177 9.67 185 -10.8 74 -14.6 0 0 976.6 NA 0.0000 9999 2720 4950 0 0
2019/10/04 07:53:00 BASE 5.47 174 9.67 185 -10.8 74 -14.6 0 0 976.6 NA 0.0000 9999 2590 0 0 0
2019/10/04 07:54:00 BASE 5.89 177 9.52 194 -10.9 74 -14.6 0 0 976.6 NA 0.0000 9999 2530 4990 0 0
2019/10/04 07:55:00 BASE 6.04 179 8.54 182 -10.9 74 -14.6 0 0 976.6 NA 0.0000 9999 2460 0 0 0
2019/10/04 07:56:00 BASE 5.71 180 8.54 182 -10.9 74 -14.6 0 0 976.6 NA 0.0000 9999 2560 5050 0 0
2019/10/04 07:57:00 BASE 5.29 181 7.92 175 -10.9 74 -14.6 0 0 976.7 NA 0.0000 9999 4430 0 0 0
2019/10/04 07:58:00 BASE 5.56 175 7.31 184 -10.9 74 -14.6 0 0 976.6 NA 0.0000 -SN 9999 4860 0 0 0
2019/10/04 07:59:00 BASE 5.94 181 7.31 184 -10.9 74 -14.6 0 0 976.7 NA 0.0000 -SN 9999 2460 4920 0 0
2019/10/04 08:00:00 BASE 6.08 192 7.31 184 -10.8 74 -14.5 0 0 976.7 NA 0.0000 -SN 9999 2360 0 0 0
2019/10/04 08:01:00 BASE 5.95 194 7.31 184 -10.8 74 -14.5 0 0 976.7 NA 0.0000 -SN 9999 2030 0 0 0
2019/10/04 08:02:00 BASE 5.37 192 7.31 184 -10.8 75 -14.4 0 0 976.6 NA 0.0000 -SN 9999 2590 0 0 0
2019/10/04 08:03:00 BASE 6.10 196 7.82 202 -10.8 75 -14.4 0 0 976.6 NA 0.0000 -SN 9999 2620 4760 0 0
2019/10/04 08:04:00 BASE 6.69 198 8.13 200 -10.8 75 -14.3 0 0 976.6 NA 0.0000 -SN 9999 4000 0 0 0
2019/10/04 08:05:00 BASE 6.44 193 8.13 200 -10.8 75 -14.3 0 0 976.6 NA 0.0000 -SN 9999 3870 0 0 0
2019/10/04 08:06:00 BASE 5.98 184 8.13 200 -10.7 75 -14.3 0 0 976.6 NA 0.0000 -SN 9999 4690 0 0 0
2019/10/04 08:07:00 BASE 5.96 175 8.13 200 -10.8 75 -14.3 0 0 976.6 NA 0.0000 -SN 9999 4720 0 0 0
2019/10/04 08:08:00 BASE 6.11 180 8.13 200 -10.8 75 -14.3 0 0 976.7 NA 0.0000 9999 4690 0 0 0
2019/10/04 08:09:00 BASE 5.93 192 8.13 200 -10.8 75 -14.3 0 0 976.7 NA 0.0000 -SN 9999 2560 0 0 0
2019/10/04 08:10:00 BASE 6.18 199 8.13 200 -10.8 75 -14.3 0 0 976.7 NA 0.0000 9999 2460 0 0 0
2019/10/04 08:11:00 BASE 7.19 199 9.11 207 -10.8 75 -14.3 0 0 976.7 NA 0.0000 9999 2430 0 0 0
2019/10/04 08:12:00 BASE 8.59 200 9.72 203 -10.7 75 -14.3 0 0 976.6 NA 0.0000 9999 2460 0 0 0
2019/10/04 08:13:00 BASE 9.15 200 9.98 193 -10.7 75 -14.3 0 0 976.7 NA 0.0000 9999 2360 0 0 0
2019/10/04 08:14:00 BASE 8.61 199 9.98 193 -10.7 75 -14.3 0 0 976.7 NA 0.0000 -SN 9999 2460 4860 0 0
2019/10/04 08:15:00 BASE 8.28 201 9.98 193 -10.7 74 -14.4 0 0 976.7 NA 0.0000 -SN 9000 3280 4860 0 0
2019/10/04 08:16:00 BASE 8.43 205 9.98 193 -10.7 74 -14.4 0 0 976.7 NA 0.0000 -SN 9999 2530 3310 0 0
2019/10/04 08:17:00 BASE 8.67 206 10.13 203 -10.6 73 -14.5 0 0 976.7 NA 0.0000 -SN 9999 3380 4820 0 0
2019/10/04 08:18:00 BASE 8.49 208 10.13 203 -10.6 73 -14.5 0 0 976.7 NA 0.0000 -SN 9999 2560 3480 0 0
2019/10/04 08:19:00 BASE 8.18 212 10.13 203 -10.6 73 -14.5 0 0 976.7 NA 0.0000 -SN 9999 2530 0 0 0
2019/10/04 08:20:00 BASE 7.73 212 10.13 203 -10.6 73 -14.5 0 0 976.7 NA 0.0000 -SN 9999 2530 0 0 0
2019/10/04 08:21:00 BASE 7.10 209 10.13 203 -10.6 73 -14.5 0 0 976.7 NA 0.0000 -SN 9999 2530 0 0 0
2019/10/04 08:22:00 BASE 6.83 209 10.13 203 -10.6 73 -14.5 0 0 976.8 NA 0.0000 -SN 9999 3250 4760 0 0
2019/10/04 08:23:00 BASE 6.93 207 10.13 203 -10.6 73 -14.5 0 0 976.8 NA 0.0000 -SN 9999 3120 4790 0 0
2019/10/04 08:24:00 BASE 7.07 204 10.13 203 -10.6 73 -14.5 0 0 976.8 NA 0.0000 -SN 9999 3050 0 0 0
2019/10/04 08:25:00 BASE 6.99 204 10.13 203 -10.6 73 -14.5 0 0 976.8 NA 0.0000 -SN 9999 3050 4000 0 0
2019/10/04 08:26:00 BASE 6.96 207 10.13 203 -10.7 73 -14.6 0 0 976.8 NA 0.0000 -SN 9999 2720 4820 0 0
2019/10/04 08:27:00 BASE 7.05 206 9.16 218 -10.7 73 -14.6 0 0 976.8 NA 0.0000 -SN 9999 3180 0 0 0
2019/10/04 08:28:00 BASE 7.45 200 9.16 218 -10.7 73 -14.5 0 0 976.8 NA 0.0000 -SN 9999 2820 4790 0 0
2019/10/04 08:29:00 BASE 7.56 196 8.64 212 -10.7 74 -14.5 0 0 976.8 NA 0.0000 -SN 9999 3670 0 0 0
2019/10/04 08:30:00 BASE 7.03 195 8.64 212 -10.7 74 -14.5 0 0 976.8 NA 0.0000 -SN 9999 3050 4860 0 0
2019/10/04 08:31:00 BASE 6.28 195 8.64 212 -10.7 74 -14.5 0 0 976.8 NA 0.0000 -SN 9999 4890 0 0 0
2019/10/04 08:32:00 BASE 5.75 197 8.64 212 -10.7 73 -14.6 0 0 976.8 NA 0.0000 -SN 9999 4890 0 0 0
2019/10/04 08:33:00 BASE 5.68 195 8.49 200 -10.7 73 -14.6 0 0 976.8 NA 0.0000 -SN 9999 4820 0 0 0
2019/10/04 08:34:00 BASE 5.64 189 8.49 200 -10.8 73 -14.6 0 0 976.7 NA 0.0000 -SN 9999 4790 0 0 0
2019/10/04 08:35:00 BASE 5.81 196 8.49 200 -10.8 73 -14.6 0 0 976.7 NA 0.0000 -SN 9999 4790 0 0 0
2019/10/04 08:36:00 BASE 6.09 199 8.49 200 -10.8 74 -14.6 0 0 976.7 NA 0.0000 -SN 9999 4890 0 0 0
2019/10/04 08:37:00 BASE 5.99 196 8.49 200 -10.8 74 -14.5 0 0 976.7 NA 0.0000 -SN 9999 4920 0 0 0
2019/10/04 08:38:00 BASE 6.14 197 8.18 197 -10.8 74 -14.5 0 0 976.7 NA 0.0000 -SN 9999 4920 0 0 0
2019/10/04 08:39:00 BASE 6.79 198 7.56 195 -10.7 74 -14.5 0 0 976.7 NA 0.0000 -SN 9999 4230 0 0 0
2019/10/04 08:40:00 BASE 7.26 197 7.67 193 -10.7 74 -14.5 0 0 976.7 NA 0.0000 -SN 9999 4920 0 0 0
2019/10/04 08:41:00 BASE 7.37 195 8.23 201 -10.7 73 -14.5 0 0 976.7 NA 0.0000 -SN 9999 4890 0 0 0
2019/10/04 08:42:00 BASE 7.05 189 8.64 186 -10.7 73 -14.6 0 0 976.7 NA 0.0000 -SN 9999 5020 0 0 0
2019/10/04 08:43:00 BASE 7.35 187 9.00 191 -10.7 73 -14.6 0 0 976.7 NA 0.0000 -SN 9999 3220 5180 0 0
2019/10/04 08:44:00 BASE 7.51 184 9.00 191 -10.7 73 -14.6 0 0 976.7 NA 0.0000 -SN 9999 3310 0 0 0
2019/10/04 08:45:00 BASE 6.99 181 9.00 191 -10.8 73 -14.7 0 0 976.7 NA 0.0000 -SN 9999 5180 0 0 0
2019/10/04 08:46:00 BASE 6.75 183 9.00 191 -10.8 73 -14.7 0 0 976.7 NA 0.0000 -SN 9999 5280 0 0 0
2019/10/04 08:47:00 BASE 6.29 189 9.00 191 -10.8 73 -14.7 0 0 976.7 NA 0.0000 -SN 9999 5320 0 0 0
2019/10/04 08:48:00 BASE 6.89 192 9.62 181 -10.8 73 -14.7 0 0 976.7 NA 0.0000 -SN 9999 5320 0 0 0
2019/10/04 08:49:00 BASE 7.86 194 9.62 181 -10.8 73 -14.7 0 0 976.7 NA 0.0000 -SN 9999 3770 5220 0 0
2019/10/04 08:50:00 BASE 7.55 198 9.62 181 -10.8 73 -14.7 0 0 976.7 NA 0.0000 -SN 9999 5180 0 0 0
2019/10/04 08:51:00 BASE 6.92 194 9.62 181 -10.8 73 -14.7 0 0 976.7 NA 0.0000 9999 5320 0 0 0
2019/10/04 08:52:00 BASE 6.76 196 9.62 181 -10.8 73 -14.7 0 0 976.7 NA 0.0000 9999 5250 0 0 0
2019/10/04 08:53:00 BASE 6.69 201 9.62 181 -10.8 73 -14.7 0 0 976.7 NA 0.0000 9999 5280 0 0 0
2019/10/04 08:54:00 BASE 6.32 197 9.62 181 -10.8 73 -14.7 0 0 976.7 NA 0.0000 9999 5090 0 0 0
2019/10/04 08:55:00 BASE 5.82 194 9.62 181 -10.8 73 -14.7 0 0 976.7 NA 0.0000 9999 5050 0 0 0
2019/10/04 08:56:00 BASE 6.01 193 9.62 181 -10.8 72 -14.7 0 0 976.7 NA 0.0000 9999 5020 0 0 0
2019/10/04 08:57:00 BASE 6.78 193 9.62 181 -10.7 72 -14.8 0 0 976.7 NA 0.0000 9999 4950 0 0 0
2019/10/04 08:58:00 BASE 6.81 195 8.75 198 -10.7 72 -14.8 0 0 976.7 NA 0.0000 9999 5050 0 0 0
2019/10/04 08:59:00 BASE 7.11 198 8.59 191 -10.7 72 -14.8 0 0 976.7 NA 0.0000 9999 5090 0 0 0
2019/10/04 09:00:00 BASE 7.62 197 8.59 191 -10.7 72 -14.8 0 0 976.7 NA 0.0000 9999 5120 0 0 0
2019/10/04 09:01:00 BASE 7.20 197 8.59 191 -10.7 72 -14.8 1 0 976.7 NA 0.0000 9999 5150 0 0 0
2019/10/04 09:02:00 BASE 6.79 199 8.59 191 -10.7 72 -14.8 1 0 976.7 NA 0.0000 9999 3610 5120 0 0
2019/10/04 09:03:00 BASE 6.56 193 8.59 191 -10.7 72 -14.8 1 0 976.7 NA 0.0000 9999 3580 5020 0 0
2019/10/04 09:04:00 BASE 6.24 194 8.59 191 -10.7 72 -14.8 1 0 976.7 NA 0.0000 9999 3510 4920 0 0
2019/10/04 09:05:00 BASE 6.31 200 8.59 191 -10.7 71 -14.9 1 0 976.8 NA 0.0000 9999 4820 0 0 0
2019/10/04 09:06:00 BASE 6.18 199 8.59 191 -10.7 71 -14.9 1 0 976.8 NA 0.0000 9999 4990 0 0 0
2019/10/04 09:07:00 BASE 5.94 202 8.59 191 -10.7 71 -14.9 1 0 976.8 NA 0.0000 9999 4920 0 0 0
2019/10/04 09:08:00 BASE 6.12 204 8.59 191 -10.7 72 -14.8 1 0 976.8 NA 0.0000 9999 4820 0 0 0
2019/10/04 09:09:00 BASE 6.38 199 8.28 191 -10.7 72 -14.8 1 0 976.8 NA 0.0000 9999 4920 0 0 0
2019/10/04 09:10:00 BASE 6.44 198 8.03 203 -10.7 72 -14.8 1 0 976.8 NA 0.0000 9999 4950 0 0 0
2019/10/04 09:11:00 BASE 5.98 199 7.72 193 -10.7 71 -14.9 2 0 976.8 NA 0.0000 9999 4890 0 0 0
2019/10/04 09:12:00 BASE 5.81 198 7.72 193 -10.7 71 -15.0 2 0 976.8 NA 0.0000 9999 3220 5050 0 0
2019/10/04 09:13:00 BASE 6.14 198 7.61 204 -10.7 70 -15.0 2 0 976.8 NA 0.0000 9999 4950 0 0 0
2019/10/04 09:14:00 BASE 6.22 200 7.61 204 -10.7 70 -15.1 2 0 976.8 NA 0.0000 9999 2720 4890 0 0
2019/10/04 09:15:00 BASE 6.20 206 7.61 204 -10.7 70 -15.1 2 0 976.8 NA 0.0000 9999 4890 0 0 0
2019/10/04 09:16:00 BASE 5.98 204 7.61 204 -10.7 70 -15.1 2 0 976.8 NA 0.0000 9999 2790 4950 0 0
2019/10/04 09:17:00 BASE 5.54 202 7.61 204 -10.7 70 -15.1 2 0 976.8 NA 0.0000 9999 4890 0 0 0
2019/10/04 09:18:00 BASE 5.98 204 7.61 204 -10.7 70 -15.1 2 0 976.8 NA 0.0000 9999 3020 5050 0 0
2019/10/04 09:19:00 BASE 6.33 202 7.20 205 -10.6 70 -15.1 3 0 976.8 NA 0.0000 9999 2760 5280 0 0
2019/10/04 09:20:00 BASE 5.94 199 7.25 197 -10.6 70 -15.1 3 0 976.8 NA 0.0000 9999 2760 5150 0 0
2019/10/04 09:21:00 BASE 6.06 200 7.25 197 -10.6 70 -15.0 3 0 976.8 NA 0.0000 9999 5180 0 0 0
2019/10/04 09:22:00 BASE 6.24 202 7.25 197 -10.6 70 -15.0 3 0 976.8 NA 0.0000 9999 2820 5250 0 0
2019/10/04 09:23:00 BASE 6.54 200 7.31 193 -10.6 70 -15.0 3 0 976.9 NA 0.0000 9999 2720 0 0 0
2019/10/04 09:24:00 BASE 6.84 197 7.31 193 -10.6 70 -15.0 3 0 977.0 NA 0.0000 9999 3180 5090 0 0
2019/10/04 09:25:00 BASE 6.99 200 7.87 197 -10.6 70 -15.0 4 0 977.0 NA 0.0000 9999 5090 0 0 0
2019/10/04 09:26:00 BASE 6.83 204 7.87 197 -10.6 70 -15.0 4 0 977.0 NA 0.0000 9999 3050 0 0 0
2019/10/04 09:27:00 BASE 6.70 209 7.87 197 -10.6 70 -15.0 4 0 977.0 NA 0.0000 9999 2850 0 0 0
2019/10/04 09:28:00 BASE 7.34 212 8.64 216 -10.6 70 -15.0 4 0 977.0 NA 0.0000 9999 2790 0 0 0
2019/10/04 09:29:00 BASE 7.61 212 8.64 216 -10.6 70 -15.0 4 0 977.1 NA 0.0000 9999 2760 0 0 0
2019/10/04 09:30:00 BASE 7.68 208 8.64 216 -10.6 70 -15.0 4 0 977.0 NA 0.0000 9999 2760 5320 0 0
2019/10/04 09:31:00 BASE 7.94 201 9.31 203 -10.6 70 -15.0 5 0 977.0 NA 0.0000 9999 2820 5410 0 0
2019/10/04 09:32:00 BASE 8.20 201 9.62 192 -10.6 70 -15.0 5 0 977.0 NA 0.0000 9999 5150 0 0 0
2019/10/04 09:33:01 BASE 8.99 204 10.29 206 -10.6 70 -15.0 5 0 977.0 NA 0.0000 9999 2720 5220 0 0
2019/10/04 09:34:01 BASE 9.17 206 10.29 206 -10.6 70 -15.0 5 0 977.0 NA 0.0000 9999 2790 0 0 0
2019/10/04 09:35:01 BASE 7.98 207 10.29 206 -10.6 70 -15.0 5 0 977.1 NA 0.0000 9999 2920 0 0 0
2019/10/04 09:36:01 BASE 7.48 206 10.29 206 -10.6 70 -15.0 6 0 977.1 NA 0.0000 9999 2950 5150 0 0
2019/10/04 09:37:01 BASE 7.21 204 10.29 206 -10.6 70 -15.0 6 0 977.1 NA 0.0000 9999 5150 0 0 0
2019/10/04 09:38:01 BASE 6.68 204 10.29 206 -10.6 70 -15.0 6 0 977.1 NA 0.0000 9999 2920 5120 0 0
2019/10/04 09:39:01 BASE 7.28 203 10.29 206 -10.6 70 -15.0 6 0 977.1 NA 0.0000 9999 2850 0 0 0
2019/10/04 09:40:01 BASE 8.62 201 10.29 206 -10.6 70 -15.0 6 0 977.1 NA 0.0000 9999 2820 5250 0 0
2019/10/04 09:41:01 BASE 8.53 205 10.29 206 -10.6 70 -15.0 6 0 977.2 NA 0.0000 9999 3310 5280 0 0
2019/10/04 09:42:01 BASE 7.75 214 10.29 206 -10.6 70 -15.0 6 0 977.2 NA 0.0000 9999 3050 5350 0 0
2019/10/04 09:43:01 BASE 7.47 217 9.77 203 -10.6 70 -15.0 7 0 977.2 NA 0.0000 9999 2820 0 0 0
2019/10/04 09:44:01 BASE 7.19 216 9.77 203 -10.5 70 -15.0 8 0 977.2 NA 0.0000 9999 2920 0 0 0
2019/10/04 09:45:01 BASE 7.52 217 9.77 220 -10.5 70 -14.9 10 0 977.2 NA 0.0000 9999 2850 0 0 0
2019/10/04 09:46:01 BASE 8.39 216 10.24 213 -10.5 70 -14.9 10 0 977.2 NA 0.0000 9999 2790 0 0 0
2019/10/04 09:47:01 BASE 9.77 216 12.14 219 -10.5 71 -14.8 11 0 977.2 NA 0.0000 9999 2820 0 0 0
2019/10/04 09:48:01 BASE 9.96 214 12.14 219 -10.5 71 -14.8 12 0 977.2 NA 0.0000 9999 2820 0 0 0
2019/10/04 09:49:01 BASE 9.12 211 12.14 219 -10.5 71 -14.8 12 0 977.2 NA 0.0000 9999 2820 0 0 0
2019/10/04 09:50:01 BASE 8.89 210 12.14 219 -10.5 71 -14.8 12 0 977.2 NA 0.0000 9999 2760 0 0 0
2019/10/04 09:51:00 BASE 8.88 211 12.14 219 -10.5 70 -14.8 13 0 977.2 NA 0.0000 9999 2760 0 0 0
2019/10/04 09:52:01 BASE 8.99 210 12.14 219 -10.5 70 -14.9 13 0 977.2 NA 0.0000 -SN 9999 2720 0 0 0
2019/10/04 09:53:00 BASE 9.46 205 12.14 219 -10.5 70 -14.9 13 0 977.2 NA 0.0000 -SN 9999 2760 0 0 0
2019/10/04 09:54:01 BASE 9.38 202 12.14 219 -10.5 70 -15.0 14 0 977.2 NA 0.0000 -SN 9999 2720 0 0 0
2019/10/04 09:55:00 BASE 8.70 199 12.14 219 -10.5 69 -15.0 14 0 977.2 NA 0.0000 -SN 9999 2720 0 0 0
2019/10/04 09:56:01 BASE 8.25 202 12.14 219 -10.5 69 -15.1 15 0 977.2 NA 0.0000 -SN 9999 2720 0 0 0
2019/10/04 09:57:00 BASE 8.25 207 10.75 208 -10.5 69 -15.1 15 0 977.2 NA 0.0000 -SN 9999 2620 0 0 0
2019/10/04 09:58:00 BASE 8.26 204 10.65 207 -10.5 69 -15.1 16 0 977.2 NA 0.0000 -SN 9999 2760 0 0 0
2019/10/04 09:59:00 BASE 7.72 200 10.65 207 -10.5 69 -15.1 16 0 977.2 NA 0.0000 -SN 9999 2820 0 0 0
2019/10/04 10:00:00 BASE 8.30 199 10.65 203 -10.5 69 -15.0 17 0 977.2 NA 0.0000 -SN 9999 2820 0 0 0
2019/10/04 10:01:00 BASE 9.91 200 11.68 199 -10.5 69 -15.0 17 0 977.2 NA 0.0000 -SN 9999 2790 0 0 0
2019/10/04 10:02:00 BASE 10.29 201 11.68 199 -10.5 69 -15.0 17 0 977.2 NA 0.0000 -SN 9999 2760 0 0 0
2019/10/04 10:03:00 BASE 9.57 202 11.68 199 -10.5 69 -15.1 17 0 977.3 NA 0.0000 -SN 9999 2760 0 0 0
2019/10/04 10:04:00 BASE 9.32 200 11.68 199 -10.5 69 -15.1 17 0 977.3 NA 0.0000 -SN 9999 2760 0 0 0
2019/10/04 10:05:00 BASE 9.31 198 11.68 199 -10.5 68 -15.2 18 0 977.3 NA 0.0000 -SN 9999 2690 0 0 0
2019/10/04 10:06:00 BASE 8.88 197 11.68 199 -10.5 68 -15.3 18 0 977.3 NA 0.0000 -SN 9999 2760 0 0 0
2019/10/04 10:07:00 BASE 8.60 198 11.68 199 -10.5 67 -15.4 18 0 977.3 NA 0.0000 -SN 9999 2690 0 0 0
2019/10/04 10:08:00 BASE 8.71 203 11.68 199 -10.5 67 -15.4 19 0 977.3 NA 0.0000 -SN 9999 2660 0 0 0
2019/10/04 10:09:00 BASE 9.20 212 11.68 199 -10.5 67 -15.4 19 0 977.2 NA 0.0000 -SN 9999 2690 0 0 0
2019/10/04 10:10:00 BASE 9.45 210 11.68 199 -10.4 68 -15.3 19 0 977.2 NA 0.0000 -SN 9999 2030 2790 0 0
2019/10/04 10:11:00 BASE 8.87 206 10.65 213 -10.4 68 -15.2 20 0 977.3 NA 0.0000 -SN 9999 2690 0 0 0
2019/10/04 10:12:00 BASE 8.21 209 10.65 213 -10.4 68 -15.1 21 0 977.3 NA 0.0000 -SN 9999 2660 0 0 0
2019/10/04 10:13:00 BASE 8.05 209 10.65 213 -10.4 69 -15.0 21 0 977.3 NA 0.0000 -SN 9999 2660 0 0 0
2019/10/04 10:14:00 BASE 8.14 207 10.65 213 -10.4 69 -15.0 22 0 977.3 NA 0.0000 -SN 9000 2690 0 0 0
2019/10/04 10:15:00 BASE 8.29 208 10.65 213 -10.4 69 -15.0 23 0 977.3 NA 0.0000 -SN 8000 2760 0 0 0
2019/10/04 10:16:00 BASE 8.58 209 10.65 213 -10.4 69 -15.0 24 0 977.3 NA 0.0000 -SN 9999 2660 0 0 0
2019/10/04 10:17:00 BASE 8.17 208 10.65 213 -10.4 69 -15.0 24 0 977.3 NA 0.0000 -SN 9999 2690 0 0 0
2019/10/04 10:18:00 BASE 7.59 213 10.65 213 -10.4 69 -15.0 25 0 977.3 NA 0.0000 -SN 9999 2690 0 0 0
2019/10/04 10:19:00 BASE 7.99 215 10.65 213 -10.4 69 -15.0 25 0 977.3 NA 0.0000 -SN 9999 2720 0 0 0
2019/10/04 10:20:00 BASE 8.36 213 9.77 210 -10.4 69 -15.0 25 0 977.3 NA 0.0000 -SN 9999 2720 0 0 0
2019/10/04 10:21:00 BASE 8.26 215 9.77 210 -10.4 69 -15.0 26 0 977.3 NA 0.0000 -SN 9999 2890 0 0 0
2019/10/04 10:22:00 BASE 8.39 217 9.77 210 -10.4 69 -15.0 27 0 977.3 NA 0.0000 -SN 9999 2820 0 0 0
2019/10/04 10:23:00 BASE 8.68 212 10.08 207 -10.4 69 -15.0 28 0 977.3 NA 0.0000 -SN 9999 3050 0 0 0
2019/10/04 10:24:00 BASE 8.69 210 10.44 215 -10.4 69 -15.0 29 0 977.3 NA 0.0000 -SN 9999 3020 0 0 0
2019/10/04 10:25:00 BASE 8.40 211 10.55 206 -10.4 69 -15.0 30 0 977.3 NA 0.0000 -SN 9999 2720 0 0 0
2019/10/04 10:26:00 BASE 9.32 212 11.94 214 -10.4 69 -15.0 31 0 977.3 NA 0.0000 9999 2790 0 0 0
2019/10/04 10:27:00 BASE 10.64 218 11.94 214 -10.4 69 -15.0 32 0 977.3 NA 0.0000 9999 2820 0 0 0
2019/10/04 10:28:00 BASE 10.60 221 11.94 214 -10.4 69 -15.0 32 0 977.3 NA 0.0000 9999 2890 0 0 0
2019/10/04 10:29:00 BASE 9.60 218 11.94 214 -10.4 69 -15.0 33 0 977.4 NA 0.0000 9999 2950 0 0 0
2019/10/04 10:30:00 BASE 8.49 216 11.94 214 -10.4 69 -15.0 36 0 977.4 NA 0.0000 9999 2990 0 0 0
2019/10/04 10:31:00 BASE 8.30 217 11.94 214 -10.4 69 -15.0 38 0 977.4 NA 0.0000 9999 3050 5450 0 0
2019/10/04 10:32:00 BASE 8.41 219 11.94 214 -10.4 69 -14.9 38 0 977.4 NA 0.0000 9999 3050 0 0 0
2019/10/04 10:33:00 BASE 8.49 218 11.94 214 -10.4 70 -14.9 39 0 977.4 NA 0.0000 9999 3080 0 0 0
2019/10/04 10:34:00 BASE 8.59 216 11.94 214 -10.4 70 -14.9 41 0 977.4 NA 0.0000 9999 2950 0 0 0
2019/10/04 10:35:00 BASE 8.10 213 11.94 214 -10.4 70 -14.8 42 0 977.4 NA 0.0000 9999 2790 0 0 0
2019/10/04 10:36:00 BASE 7.55 211 11.68 219 -10.4 70 -14.8 43 0 977.4 NA 0.0000 9999 2790 0 0 0
2019/10/04 10:37:00 BASE 7.08 211 11.52 222 -10.4 70 -14.8 45 0 977.4 NA 0.0000 9999 2720 0 0 0
2019/10/04 10:38:00 BASE 7.77 213 10.24 211 -10.4 70 -14.8 47 0 977.5 NA 0.0000 9999 2760 0 0 0
2019/10/04 10:39:00 BASE 9.49 212 10.80 216 -10.4 70 -14.8 50 0 977.4 NA 0.0000 9999 2790 0 0 0
2019/10/04 10:40:00 BASE 9.25 214 10.80 216 -10.4 70 -14.8 51 0 977.5 NA 0.0000 9999 2850 0 0 0
2019/10/04 10:41:00 BASE 8.57 213 10.80 216 -10.4 70 -14.9 52 0 977.5 NA 0.0000 9999 2760 0 0 0
2019/10/04 10:42:00 BASE 8.87 211 10.80 216 -10.4 70 -14.9 51 0 977.5 NA 0.0000 9999 2920 4660 5320 0
2019/10/04 10:43:00 BASE 8.21 212 10.80 216 -10.4 69 -14.9 51 0 977.6 NA 0.0000 9999 5410 0 0 0
2019/10/04 10:44:00 BASE 7.39 206 10.80 216 -10.4 69 -15.0 52 0 977.5 NA 0.0000 9999 5380 0 0 0
2019/10/04 10:45:00 BASE 7.71 205 10.80 216 -10.4 69 -15.0 53 0 977.5 NA 0.0000 9999 2790 5180 0 0
2019/10/04 10:46:00 BASE 7.88 208 10.80 216 -10.4 69 -14.9 55 0 977.5 NA 0.0000 9999 2760 5350 0 0
2019/10/04 10:47:00 BASE 7.82 210 10.80 216 -10.4 70 -14.9 56 0 977.6 NA 0.0000 9999 5380 0 0 0
2019/10/04 10:48:00 BASE 7.80 211 10.80 216 -10.4 70 -14.9 57 0 977.6 NA 0.0000 9999 5410 0 0 0
2019/10/04 10:49:00 BASE 7.85 209 10.24 213 -10.4 70 -14.9 57 0 977.6 NA 0.0000 9999 2920 5380 0 0
2019/10/04 10:50:00 BASE 7.14 211 10.24 213 -10.4 70 -14.9 57 0 977.6 NA 0.0000 9999 5450 0 0 0
2019/10/04 10:51:00 BASE 5.85 211 10.24 213 -10.4 69 -14.9 58 0 977.7 NA 0.0000 9999 5480 0 0 0
2019/10/04 10:52:00 BASE 5.48 211 9.05 209 -10.4 69 -15.0 61 0 977.7 NA 0.0000 9999 2950 5480 0 0
2019/10/04 10:53:00 BASE 6.13 217 9.05 209 -10.4 69 -15.0 63 0 977.7 NA 0.0000 9999 2850 5450 0 0
2019/10/04 10:54:00 BASE 6.53 218 9.05 209 -10.4 69 -14.9 64 0 977.7 NA 0.0000 9999 2850 5380 0 0
2019/10/04 10:55:00 BASE 6.81 220 9.31 221 -10.4 70 -14.9 65 0 977.7 NA 0.0000 9999 3020 0 0 0
2019/10/04 10:56:00 BASE 8.05 219 9.67 210 -10.4 70 -14.9 64 0 977.7 NA 0.0000 9999 2820 5250 0 0
2019/10/04 10:57:00 BASE 8.62 214 9.67 210 -10.4 70 -14.9 65 0 977.7 NA 0.0000 9999 3150 5510 0 0
2019/10/04 10:58:00 BASE 8.28 211 9.67 210 -10.4 70 -14.8 67 0 977.7 NA 0.0000 9999 3150 5680 0 0
2019/10/04 10:59:00 BASE 8.61 212 10.39 215 -10.4 70 -14.9 69 0 977.7 NA 0.0000 9999 3150 5710 0 0
2019/10/04 11:00:00 BASE 9.00 215 10.39 215 -10.4 70 -14.9 72 0 977.7 NA 0.0000 9999 5610 0 0 0
2019/10/04 11:01:00 BASE 8.70 214 10.39 215 -10.4 69 -15.0 74 0 977.7 NA 0.0000 9999 5380 0 0 0
2019/10/04 11:02:00 BASE 8.50 217 10.39 215 -10.4 69 -15.0 76 0 977.7 NA 0.0000 9999 5540 0 0 0
2019/10/04 11:03:00 BASE 8.05 219 10.39 215 -10.4 69 -15.0 77 0 977.7 NA 0.0000 9999 2890 5510 0 0
2019/10/04 11:04:00 BASE 7.46 219 10.39 215 -10.4 69 -15.0 79 0 977.8 NA 0.0000 9999 2920 5580 0 0
2019/10/04 11:05:00 BASE 6.96 221 10.39 215 -10.4 69 -15.0 79 0 977.8 NA 0.0000 9999 2990 0 0 0
2019/10/04 11:06:00 BASE 7.00 219 10.39 215 -10.4 69 -15.0 79 0 977.8 NA 0.0000 9999 3050 0 0 0
2019/10/04 11:07:00 BASE 7.17 216 10.39 215 -10.4 69 -15.0 79 0 977.8 NA 0.0000 9999 2990 0 0 0
2019/10/04 11:08:00 BASE 7.10 215 10.39 215 -10.4 69 -14.9 81 0 977.8 NA 0.0000 9999 2990 5770 22700 0
2019/10/04 11:09:00 BASE 7.51 216 9.77 221 -10.4 70 -14.9 84 0 977.8 NA 0.0000 9999 2790 0 0 0
2019/10/04 11:10:00 BASE 7.06 216 9.77 221 -10.4 70 -14.9 86 0 977.8 NA 0.0000 9999 2790 0 0 0
2019/10/04 11:11:00 BASE 6.60 219 9.77 221 -10.4 70 -14.8 86 0 977.8 NA 0.0000 9999 2890 5640 0 0
2019/10/04 11:12:00 BASE 6.76 221 8.75 203 -10.4 70 -14.8 87 0 977.8 NA 0.0000 9999 2920 5540 0 0
2019/10/04 11:13:00 BASE 7.37 220 8.75 203 -10.4 70 -14.8 87 0 977.8 NA 0.0000 9999 5510 0 0 0
2019/10/04 11:14:00 BASE 8.24 216 10.34 210 -10.4 70 -14.8 87 0 977.8 NA 0.0000 9999 5680 0 0 0
2019/10/04 11:15:00 BASE 8.28 212 10.34 210 -10.4 70 -14.8 87 0 977.8 NA 0.0000 9999 2950 5580 0 0
2019/10/04 11:16:00 BASE 8.28 215 10.34 210 -10.4 70 -14.8 87 0 977.8 NA 0.0000 9999 5810 0 0 0
2019/10/04 11:17:00 BASE 8.91 217 10.34 210 -10.4 70 -14.8 88 0 977.8 NA 0.0000 9999 5770 0 0 0
2019/10/04 11:18:01 BASE 9.83 216 11.21 217 -10.4 70 -14.8 88 0 977.7 NA 0.0000 9999 5640 0 0 0
2019/10/04 11:19:00 BASE 10.19 217 11.42 223 -10.4 70 -14.8 91 0 977.8 NA 0.0000 9999 5640 0 0 0
2019/10/04 11:20:00 BASE 10.27 217 11.42 223 -10.4 70 -14.9 95 0 977.8 NA 0.0000 9999 5840 0 0 0
2019/10/04 11:21:00 BASE 9.85 216 11.42 223 -10.4 70 -14.9 98 0 977.8 NA 0.0000 9999 5770 0 0 0
2019/10/04 11:22:01 BASE 8.84 217 11.42 223 -10.4 69 -15.0 100 0 977.8 NA 0.0000 9999 5740 0 0 0
2019/10/04 11:23:00 BASE 8.50 219 11.42 223 -10.4 69 -15.0 103 0 977.8 NA 0.0000 9999 3220 5710 0 0
2019/10/04 11:24:01 BASE 8.42 221 11.42 223 -10.4 68 -15.1 102 0 977.9 NA 0.0000 9999 2920 5740 0 0
2019/10/04 11:25:00 BASE 8.26 219 11.42 223 -10.4 68 -15.1 101 0 977.9 NA 0.0000 9999 5350 0 0 0
2019/10/04 11:26:00 BASE 8.07 217 11.42 223 -10.4 68 -15.1 101 0 977.9 NA 0.0000 9999 2760 5320 0 0
2019/10/04 11:27:00 BASE 7.83 218 11.42 223 -10.3 69 -15.0 104 0 977.8 NA 0.0000 9999 5540 0 0 0
2019/10/04 11:28:00 BASE 8.57 218 11.42 223 -10.3 69 -15.0 108 0 977.8 NA 0.0000 9999 5610 0 0 0
2019/10/04 11:29:00 BASE 8.70 217 11.21 214 -10.3 69 -15.0 114 0 977.8 NA 0.0000 9999 5640 0 0 0
2019/10/04 11:30:00 BASE 8.03 217 10.08 217 -10.3 69 -15.0 122 0 977.9 NA 0.0000 9999 5810 0 0 0
2019/10/04 11:31:00 BASE 7.42 218 10.08 217 -10.3 68 -15.0 128 0 977.9 NA 0.0000 9999 5680 0 0 0
2019/10/04 11:32:00 BASE 6.83 218 10.08 217 -10.3 68 -15.1 133 0 977.9 NA 0.0000 9999 5770 0 0 0
2019/10/04 11:33:00 BASE 6.72 218 9.83 218 -10.3 68 -15.0 135 0 977.9 NA 0.0000 9999 5610 0 0 0
2019/10/04 11:34:00 BASE 6.63 216 9.83 218 -10.3 68 -15.0 136 0 977.9 NA 0.0000 9999 5150 0 0 0
2019/10/04 11:35:00 BASE 6.51 210 9.83 218 -10.3 69 -15.0 136 0 977.9 NA 0.0000 9999 5150 0 0 0
2019/10/04 11:36:00 BASE 7.01 209 9.83 218 -10.3 69 -14.9 136 0 977.9 NA 0.0000 9999 5150 0 0 0
2019/10/04 11:37:00 BASE 7.37 207 9.83 218 -10.3 69 -14.8 136 0 977.9 NA 0.0000 9999 5480 0 0 0
2019/10/04 11:38:00 BASE 7.22 208 9.57 213 -10.3 70 -14.8 139 0 977.9 NA 0.0000 9999 5640 0 0 0
2019/10/04 11:39:00 BASE 7.81 212 9.05 204 -10.2 70 -14.7 142 0 977.9 NA 0.0000 9999 5510 0 0 0
2019/10/04 11:40:00 BASE 8.18 212 9.05 204 -10.2 70 -14.7 139 0 977.9 NA 0.0000 9999 4330 5410 0 0
2019/10/04 11:41:00 BASE 8.27 213 9.41 212 -10.2 70 -14.7 135 0 977.9 NA 0.0000 9999 5450 0 0 0
2019/10/04 11:42:00 BASE 8.20 212 9.41 212 -10.2 69 -14.7 131 0 977.9 NA 0.0000 9999 5410 0 0 0
2019/10/04 11:43:00 BASE 7.63 210 9.41 212 -10.2 69 -14.8 129 0 978.0 NA 0.0000 9999 5510 0 0 0
2019/10/04 11:44:00 BASE 7.36 208 9.41 212 -10.2 69 -14.8 128 0 978.0 NA 0.0000 9999 5510 0 0 0
2019/10/04 11:45:00 BASE 8.21 212 10.19 217 -10.2 69 -14.8 128 0 978.1 NA 0.0000 9999 5640 0 0 0
2019/10/04 11:46:00 BASE 9.16 218 10.19 222 -10.2 69 -14.8 131 0 978.1 NA 0.0000 9999 5610 0 0 0
2019/10/04 11:47:00 BASE 8.97 219 10.19 222 -10.2 69 -14.8 135 0 978.1 NA 0.0000 9999 3380 5120 5740 0
2019/10/04 11:48:00 BASE 8.17 221 10.19 222 -10.2 69 -14.8 137 0 978.2 NA 0.0000 9999 3150 5120 0 0
2019/10/04 11:49:00 BASE 8.11 224 10.19 222 -10.2 69 -14.8 137 0 978.1 NA 0.0000 9999 5120 0 0 0
2019/10/04 11:50:00 BASE 9.10 226 10.24 232 -10.2 69 -14.8 135 0 978.1 NA 0.0000 9999 5220 0 0 0
2019/10/04 11:51:00 BASE 9.51 228 11.16 230 -10.2 69 -14.8 134 0 978.1 NA 0.0000 9999 3050 5710 0 0
2019/10/04 11:52:00 BASE 8.97 230 11.16 230 -10.2 69 -14.8 133 0 978.1 NA 0.0000 9999 3180 5770 0 0
2019/10/04 11:53:00 BASE 9.19 230 11.32 229 -10.2 69 -14.8 138 0 978.2 NA 0.0000 9999 2920 3640 0 0
2019/10/04 11:54:00 BASE 9.61 230 11.32 229 -10.2 69 -14.8 146 0 978.2 NA 0.0000 9999 2890 5740 0 0
2019/10/04 11:55:00 BASE 8.70 233 11.32 229 -10.2 69 -14.8 152 0 978.2 NA 0.0000 9999 2490 0 0 0
2019/10/04 11:56:00 BASE 8.60 234 11.32 229 -10.2 69 -14.8 155 0 978.2 NA 0.0000 9999 2760 0 0 0
2019/10/04 11:57:00 BASE 8.82 234 11.32 229 -10.3 69 -14.9 155 0 978.3 NA 0.0000 9999 3450 5770 0 0
2019/10/04 11:58:00 BASE 8.96 232 11.32 229 -10.3 69 -14.8 155 0 978.3 NA 0.0000 9999 2130 3220 0 0
2019/10/04 11:59:00 BASE 9.49 234 11.32 229 -10.3 69 -14.8 156 0 978.2 NA 0.0000 9999 2850 6040 0 0
2019/10/04 12:00:00 BASE 9.08 236 11.32 229 -10.3 69 -14.8 162 0 978.3 NA 0.0000 9999 3180 3940 5740 0
2019/10/04 12:01:00 BASE 8.80 233 11.32 229 -10.2 69 -14.8 170 0 978.3 NA 0.0000 9999 3840 5770 0 0
2019/10/04 12:02:00 BASE 9.36 232 11.32 229 -10.2 69 -14.8 177 0 978.3 NA 0.0000 9999 3840 5810 0 0
2019/10/04 12:03:00 BASE 9.16 233 10.91 231 -10.2 69 -14.8 174 0 978.3 NA 0.0000 9999 3810 5770 0 0
2019/10/04 12:04:00 BASE 8.31 232 10.91 231 -10.2 69 -14.8 175 0 978.3 NA 0.0000 9999 3810 5740 0 0
2019/10/04 12:05:00 BASE 7.56 229 10.91 231 -10.2 69 -14.8 174 0 978.3 NA 0.0000 9999 3580 5680 0 0
2019/10/04 12:06:00 BASE 7.58 226 10.91 231 -10.2 69 -14.8 174 0 978.3 NA 0.0000 9999 3380 5740 0 0
2019/10/04 12:07:00 BASE 7.81 230 10.91 231 -10.2 69 -14.8 175 0 978.3 NA 0.0000 9999 3220 0 0 0
2019/10/04 12:08:00 BASE 7.51 236 10.91 231 -10.2 69 -14.7 181 0 978.3 NA 0.0000 9999 5770 0 0 0
2019/10/04 12:09:00 BASE 7.76 238 10.65 230 -10.2 70 -14.7 188 0 978.3 NA 0.0000 9999 3380 5840 0 0
2019/10/04 12:10:00 BASE 8.14 238 10.65 230 -10.2 70 -14.7 193 0 978.3 NA 0.0000 9999 3050 0 0 0
2019/10/04 12:11:00 BASE 8.03 238 10.65 230 -10.2 70 -14.6 191 0 978.3 NA 0.0000 9999 2850 0 0 0
2019/10/04 12:12:00 BASE 8.06 244 10.55 237 -10.2 70 -14.7 187 0 978.3 NA 0.0000 9999 3150 0 0 0
2019/10/04 12:13:00 BASE 7.59 248 9.26 238 -10.2 70 -14.7 187 0 978.3 NA 0.0000 9999 3020 0 0 0
2019/10/04 12:14:00 BASE 7.21 245 9.26 238 -10.2 69 -14.8 190 0 978.4 NA 0.0000 9999 3220 3710 5970 0
2019/10/04 12:15:00 BASE 7.54 243 9.26 238 -10.2 69 -14.8 190 0 978.4 NA 0.0000 9999 2890 3580 0 0
2019/10/04 12:16:00 BASE 7.58 239 9.26 238 -10.2 69 -14.8 188 0 978.4 NA 0.0000 9999 3380 0 0 0
2019/10/04 12:17:00 BASE 8.34 232 10.85 220 -10.1 69 -14.8 186 0 978.4 NA 0.0000 9999 3080 0 0 0
2019/10/04 12:18:00 BASE 10.11 227 12.60 227 -10.1 69 -14.8 184 0 978.3 NA 0.0000 9999 2990 0 0 0
2019/10/04 12:19:00 BASE 10.91 227 12.60 227 -10.1 69 -14.7 185 0 978.3 NA 0.0000 9999 2920 0 0 0
2019/10/04 12:20:00 BASE 10.15 228 12.60 227 -10.1 69 -14.7 187 0 978.4 NA 0.0000 9999 2760 3350 0 0
2019/10/04 12:21:00 BASE 9.30 226 12.60 227 -10.0 69 -14.7 188 0 978.4 NA 0.0000 9999 3310 0 0 0
2019/10/04 12:22:00 BASE 8.30 231 12.60 227 -10.0 68 -14.7 185 0 978.4 NA 0.0000 9999 2950 0 0 0
2019/10/04 12:23:00 BASE 7.61 235 12.60 227 -10.0 68 -14.8 179 0 978.4 NA 0.0000 9999 3120 0 0 0
2019/10/04 12:24:00 BASE 7.16 234 12.60 227 -10.0 68 -14.8 174 0 978.4 NA 0.0000 9999 2890 0 0 0
2019/10/04 12:25:00 BASE 7.28 235 12.60 227 -10.0 68 -14.7 175 0 978.4 NA 0.0000 9999 2890 0 0 0
2019/10/04 12:26:00 BASE 8.98 233 12.60 227 -10.1 69 -14.7 176 0 978.4 NA 0.0000 9999 3380 24440 0 0
2019/10/04 12:27:00 BASE 10.35 227 12.60 227 -10.1 69 -14.7 179 0 978.4 NA 0.0000 9999 3450 5740 0 0
2019/10/04 12:28:00 BASE 10.99 222 12.35 221 -10.1 69 -14.7 183 0 978.4 NA 0.0000 9999 3310 5940 0 0
2019/10/04 12:29:00 BASE 10.79 222 12.35 221 -10.1 69 -14.7 184 0 978.4 NA 0.0000 9999 2920 0 0 0
2019/10/04 12:30:00 BASE 9.33 227 12.35 221 -10.0 69 -14.7 196 0 978.5 NA 0.0000 9999 2950 5910 0 0
2019/10/04 12:31:00 BASE 9.30 231 12.35 232 -10.0 69 -14.7 203 0 978.5 NA 0.0000 9999 3180 0 0 0
2019/10/04 12:32:00 BASE 10.09 231 12.35 232 -10.0 68 -14.7 196 0 978.5 NA 0.0000 9999 3150 5940 0 0
2019/10/04 12:33:00 BASE 9.88 230 12.35 232 -10.0 68 -14.8 189 0 978.5 NA 0.0000 9999 3350 0 0 0
2019/10/04 12:34:00 BASE 9.92 227 12.35 232 -10.0 68 -14.8 182 0 978.5 NA 0.0000 9999 3410 0 0 0
2019/10/04 12:35:00 BASE 9.39 229 12.35 232 -10.0 68 -14.8 176 0 978.5 NA 0.0000 9999 3280 0 0 0
2019/10/04 12:36:00 BASE 8.43 235 12.35 232 -10.0 68 -14.8 168 0 978.5 NA 0.0000 9999 3220 20870 0 0
2019/10/04 12:37:00 BASE 8.79 238 12.35 232 -10.0 68 -14.8 163 0 978.5 NA 0.0000 9999 2990 3640 21690 0
2019/10/04 12:38:00 BASE 9.91 234 12.35 232 -10.1 68 -14.8 165 0 978.5 NA 0.0000 9999 2990 3510 0 0
2019/10/04 12:39:00 BASE 10.45 231 12.35 232 -10.1 69 -14.7 169 0 978.5 NA 0.0000 9999 3640 0 0 0
2019/10/04 12:40:00 BASE 10.14 233 13.02 243 -10.1 69 -14.8 167 0 978.5 NA 0.0000 9999 3180 3840 0 0
2019/10/04 12:41:00 BASE 10.67 233 13.02 243 -10.1 69 -14.8 167 0 978.5 NA 0.0000 9999 3580 0 0 0
2019/10/04 12:42:00 BASE 11.23 231 13.02 243 -10.1 68 -14.8 171 0 978.5 NA 0.0000 9999 3280 0 0 0
2019/10/04 12:43:00 BASE 10.52 228 13.02 243 -10.1 68 -14.8 184 0 978.5 NA 0.0000 9999 3610 4130 0 0
2019/10/04 12:44:00 BASE 9.67 230 13.02 243 -10.0 68 -14.8 200 0 978.5 NA 0.0000 9999 3350 3940 0 0
2019/10/04 12:45:00 BASE 9.32 233 13.02 243 -10.0 68 -14.8 206 0 978.5 NA 0.0000 9999 3540 0 0 0
2019/10/04 12:46:00 BASE 9.20 234 13.02 243 -10.0 68 -14.8 203 0 978.5 NA 0.0000 9999 2990 3350 0 0
2019/10/04 12:47:00 BASE 8.51 234 13.02 243 -10.0 68 -14.8 197 0 978.5 NA 0.0000 9999 2820 3540 0 0
2019/10/04 12:48:00 BASE 9.11 232 13.02 243 -10.0 68 -14.8 188 0 978.5 NA 0.0000 9999 2790 0 0 0
2019/10/04 12:49:00 BASE 10.42 230 13.02 243 -10.0 68 -14.7 183 0 978.5 NA 0.0000 9999 2820 0 0 0
2019/10/04 12:50:00 BASE 10.52 231 12.45 233 -10.0 68 -14.7 186 0 978.5 NA 0.0000 9999 3710 0 0 0
2019/10/04 12:51:00 BASE 10.01 233 12.45 233 -10.0 68 -14.7 190 0 978.5 NA 0.0000 9999 4000 0 0 0
2019/10/04 12:52:00 BASE 10.37 234 12.45 233 -10.0 68 -14.7 192 0 978.5 NA 0.0000 9999 3150 3810 0 0
2019/10/04 12:53:00 BASE 10.65 232 12.45 233 -10.0 68 -14.7 197 0 978.5 NA 0.0000 9999 3080 3610 0 0
2019/10/04 12:54:00 BASE 9.79 227 12.45 233 -10.0 68 -14.8 209 0 978.5 NA 0.0000 9999 2850 3510 0 0
2019/10/04 12:55:00 BASE 9.08 225 12.45 233 -9.9 68 -14.7 217 0 978.5 NA 0.0000 9999 3080 3740 0 0
2019/10/04 12:56:00 BASE 8.94 223 12.45 233 -9.9 68 -14.6 224 0 978.6 NA 0.0000 9999 3580 0 0 0
2019/10/04 12:57:00 BASE 8.89 225 12.45 233 -9.9 69 -14.6 227 0 978.6 NA 0.0000 9999 3280 0 0 0
2019/10/04 12:58:00 BASE 10.09 229 12.76 235 -9.9 69 -14.5 223 0 978.5 NA 0.0000 9999 3220 3970 0 0
2019/10/04 12:59:00 BASE 12.18 228 13.32 235 -9.9 69 -14.5 212 0 978.6 NA 0.0000 9999 3610 0 0 0
2019/10/04 13:00:00 BASE 12.25 223 13.32 235 -9.9 69 -14.5 202 0 978.6 NA 0.0000 9999 2890 0 0 0
2019/10/04 13:01:00 BASE 10.90 220 13.32 235 -9.9 69 -14.5 196 0 978.7 NA 0.0000 9999 3150 0 0 0
2019/10/04 13:02:00 BASE 10.19 224 13.32 235 -9.9 69 -14.6 195 0 978.7 NA 0.0000 9999 3540 0 0 0
2019/10/04 13:03:00 BASE 9.72 225 13.32 235 -9.9 68 -14.6 195 0 978.7 NA 0.0000 9999 3220 0 0 0
2019/10/04 13:04:00 BASE 9.29 224 13.32 235 -9.9 68 -14.7 193 0 978.7 NA 0.0000 9999 3310 0 0 0
2019/10/04 13:05:00 BASE 8.93 222 13.32 235 -9.9 68 -14.7 189 0 978.7 NA 0.0000 9999 3220 0 0 0
2019/10/04 13:06:00 BASE 9.24 221 13.32 235 -9.9 68 -14.7 187 0 978.7 NA 0.0000 9999 3020 0 0 0
2019/10/04 13:07:00 BASE 9.70 223 13.32 235 -10.0 68 -14.7 190 0 978.8 NA 0.0000 9999 2950 0 0 0
2019/10/04 13:08:00 BASE 9.36 225 13.32 235 -10.0 69 -14.6 196 0 978.8 NA 0.0000 9999 2890 0 0 0
2019/10/04 13:09:00 BASE 9.04 228 12.24 217 -10.0 69 -14.6 196 0 978.9 NA 0.0000 9999 3080 0 0 0
2019/10/04 13:10:00 BASE 9.31 229 11.83 217 -10.0 69 -14.6 194 0 978.9 NA 0.0000 9999 2990 0 0 0
2019/10/04 13:11:00 BASE 10.16 228 12.14 232 -10.0 69 -14.6 190 0 978.8 NA 0.0000 9999 3120 0 0 0
2019/10/04 13:12:00 BASE 10.72 228 12.30 228 -10.0 69 -14.6 188 0 978.9 NA 0.0000 9999 3150 0 0 0
2019/10/04 13:13:00 BASE 10.97 230 12.30 228 -10.0 69 -14.6 186 0 978.9 NA 0.0000 9999 3020 0 0 0
2019/10/04 13:14:00 BASE 11.13 227 12.60 221 -10.0 69 -14.6 184 0 978.9 NA 0.0000 9999 3020 0 0 0
2019/10/04 13:15:00 BASE 11.34 222 12.60 221 -10.0 69 -14.6 183 0 978.9 NA 0.0000 9999 2790 0 0 0
2019/10/04 13:16:00 BASE 11.03 220 13.17 217 -10.0 69 -14.7 183 0 978.9 NA 0.0000 9999 2920 0 0 0
2019/10/04 13:17:00 BASE 10.64 221 13.17 217 -10.0 69 -14.7 182 0 978.9 NA 0.0000 9999 2950 0 0 0
2019/10/04 13:18:00 BASE 10.07 222 13.17 217 -10.0 68 -14.8 181 0 978.9 NA 0.0000 9999 3220 0 0 0
2019/10/04 13:19:00 BASE 9.19 223 13.17 217 -10.0 68 -14.8 181 0 979.0 NA 0.0000 9999 3020 0 0 0
2019/10/04 13:20:00 BASE 9.13 228 13.17 217 -10.0 68 -14.8 182 0 979.0 NA 0.0000 9999 3080 0 0 0
2019/10/04 13:21:00 BASE 9.77 230 13.17 217 -10.0 68 -14.8 183 0 979.0 NA 0.0000 9999 2790 0 0 0
2019/10/04 13:22:00 BASE 10.02 229 13.17 217 -10.0 68 -14.8 183 0 979.0 NA 0.0000 9999 2820 0 0 0
2019/10/04 13:23:00 BASE 9.88 230 13.17 217 -10.0 68 -14.8 182 0 979.0 NA 0.0000 9999 2560 0 0 0
2019/10/04 13:24:00 BASE 10.11 225 13.17 217 -10.0 68 -14.8 180 0 979.0 NA 0.0000 9999 2560 0 0 0
2019/10/04 13:25:00 BASE 11.28 219 13.17 217 -10.1 68 -14.8 180 0 979.0 NA 0.0000 9999 2620 0 0 0
2019/10/04 13:26:00 BASE 12.51 222 14.71 231 -10.1 68 -14.9 181 0 979.0 NA 0.0000 9999 2560 0 0 0
2019/10/04 13:27:00 BASE 12.51 223 14.71 231 -10.1 68 -14.9 182 0 979.1 NA 0.0000 9999 2560 0 0 0
2019/10/04 13:28:00 BASE 11.72 219 14.71 231 -10.1 68 -14.9 184 0 979.1 NA 0.0000 9999 2850 0 0 0
2019/10/04 13:29:00 BASE 11.16 217 14.71 231 -10.1 68 -14.9 185 0 979.1 NA 0.0000 9999 2720 0 0 0
2019/10/04 13:30:00 BASE 10.67 218 14.71 231 -10.1 68 -14.9 184 0 979.1 NA 0.0000 9999 2720 0 0 0
2019/10/04 13:31:00 BASE 10.30 218 14.71 231 -10.1 68 -14.9 183 0 979.1 NA 0.0000 9999 2590 0 0 0
2019/10/04 13:32:00 BASE 9.85 220 14.71 231 -10.1 68 -14.9 183 0 979.1 NA 0.0000 9999 2660 0 0 0
2019/10/04 13:33:00 BASE 9.29 222 14.71 231 -10.1 68 -14.9 185 0 979.1 NA 0.0000 9999 2690 0 0 0
2019/10/04 13:34:00 BASE 9.59 223 14.71 231 -10.1 68 -14.9 186 0 979.1 NA 0.0000 9999 2690 0 0 0
2019/10/04 13:35:00 BASE 9.73 225 14.71 231 -10.1 68 -14.8 186 0 979.1 NA 0.0000 9999 2790 0 0 0
2019/10/04 13:36:00 BASE 10.39 225 13.48 225 -10.1 68 -14.8 185 0 979.1 NA 0.0000 9999 2560 0 0 0
2019/10/04 13:37:00 BASE 11.19 216 12.55 215 -10.1 69 -14.8 186 0 979.1 NA 0.0000 9999 2590 0 0 0
2019/10/04 13:38:00 BASE 11.94 216 14.30 224 -10.1 69 -14.8 186 0 979.1 NA 0.0000 9999 2490 0 0 0
2019/10/04 13:39:00 BASE 12.71 222 14.30 224 -10.1 69 -14.8 186 0 979.1 NA 0.0000 9999 2620 0 0 0
2019/10/04 13:40:00 BASE 12.43 221 14.30 224 -10.1 68 -14.8 187 0 979.1 NA 0.0000 9999 2530 0 0 0
2019/10/04 13:41:00 BASE 11.50 225 14.30 224 -10.1 68 -14.9 189 0 979.2 NA 0.0000 9999 2560 0 0 0
2019/10/04 13:42:00 BASE 10.32 226 14.30 224 -10.1 68 -14.9 192 0 979.2 NA 0.0000 9999 2620 0 0 0
2019/10/04 13:43:00 BASE 9.47 220 14.30 224 -10.1 68 -14.8 194 0 979.2 NA 0.0000 9999 2620 0 0 0
2019/10/04 13:44:00 BASE 9.27 219 14.30 224 -10.1 68 -14.8 193 0 979.2 NA 0.0000 9999 2720 19290 0 0
2019/10/04 13:45:00 BASE 9.45 219 14.30 224 -10.1 69 -14.7 190 0 979.2 NA 0.0000 9999 2920 0 0 0
2019/10/04 13:46:00 BASE 9.65 218 14.30 224 -10.1 69 -14.7 189 0 979.2 NA 0.0000 9999 2690 22800 0 0
2019/10/04 13:47:00 BASE 10.42 214 15.07 210 -10.1 70 -14.6 189 0 979.1 NA 0.0000 9999 2760 0 0 0
2019/10/04 13:48:00 BASE 11.95 213 15.79 214 -10.1 70 -14.6 189 0 979.2 NA 0.0000 9999 2620 0 0 0
2019/10/04 13:49:00 BASE 12.63 218 15.79 214 -10.1 70 -14.6 190 0 979.2 NA 0.0000 9999 2720 0 0 0
2019/10/04 13:50:00 BASE 12.74 219 15.79 214 -10.1 70 -14.6 191 0 979.2 NA 0.0000 9999 2760 0 0 0
2019/10/04 13:51:00 BASE 12.72 215 15.79 214 -10.1 69 -14.6 193 0 979.2 NA 0.0000 9999 2790 0 0 0
2019/10/04 13:52:00 BASE 13.11 210 15.79 214 -10.1 69 -14.7 196 0 979.2 NA 0.0000 9999 2760 0 0 0
2019/10/04 13:53:00 BASE 13.96 214 15.79 214 -10.1 69 -14.8 200 0 979.2 NA 0.0000 9999 2620 0 0 0
2019/10/04 13:54:00 BASE 13.04 220 15.79 214 -10.1 68 -14.8 205 0 979.2 NA 0.0000 9999 2850 0 0 0
2019/10/04 13:55:00 BASE 12.85 218 15.79 214 -10.1 68 -14.9 210 0 979.2 NA 0.0000 9999 2820 0 0 0
2019/10/04 13:56:00 BASE 14.26 217 16.00 223 -10.1 68 -14.9 212 0 979.2 NA 0.0000 9999 2820 0 0 0
2019/10/04 13:57:00 BASE 14.50 222 16.00 223 -10.1 68 -14.9 213 0 979.2 NA 0.0000 9999 2720 0 0 0
2019/10/04 13:58:00 BASE 13.53 229 16.00 223 -10.1 68 -14.9 213 0 979.2 NA 0.0000 9999 2890 22930 0 0
2019/10/04 13:59:00 BASE 11.79 227 16.00 223 -10.1 68 -15.0 214 0 979.3 NA 0.0000 9999 2890 0 0 0
2019/10/04 14:00:00 BASE 10.58 222 16.00 223 -10.1 67 -15.0 216 0 979.3 NA 0.0000 9999 2820 0 0 0
2019/10/04 14:01:00 BASE 11.62 220 16.00 223 -10.1 67 -15.0 221 0 979.3 NA 0.0000 9999 2920 0 0 0
2019/10/04 14:02:00 BASE 12.00 214 16.00 223 -10.1 67 -15.1 222 0 979.3 NA 0.0000 9999 2850 0 0 0
2019/10/04 14:03:00 BASE 12.15 209 16.00 223 -10.1 67 -15.1 220 0 979.3 NA 0.0000 9999 2990 0 0 0
2019/10/04 14:04:00 BASE 12.57 215 16.00 223 -10.1 67 -15.1 219 0 979.3 NA 0.0000 9999 2760 0 0 0
2019/10/04 14:05:00 BASE 12.07 220 16.00 223 -10.1 67 -15.1 217 0 979.3 NA 0.0000 9999 2660 0 0 0
2019/10/04 14:06:00 BASE 11.93 218 15.54 218 -10.1 67 -15.1 214 0 979.4 NA 0.0000 9999 2560 0 0 0
2019/10/04 14:07:00 BASE 11.85 220 15.02 233 -10.1 67 -15.1 210 0 979.3 NA 0.0000 9999 2620 0 0 0
2019/10/04 14:08:00 BASE 12.30 217 14.56 214 -10.1 67 -15.1 208 0 979.4 NA 0.0000 9999 2690 0 0 0
2019/10/04 14:09:00 BASE 12.89 209 14.61 199 -10.1 67 -15.0 208 0 979.3 NA 0.0000 9999 2720 0 0 0
2019/10/04 14:10:00 BASE 12.39 209 14.61 199 -10.1 67 -15.0 210 0 979.4 NA 0.0000 9999 2720 0 0 0
2019/10/04 14:11:00 BASE 11.82 212 14.61 199 -10.1 68 -15.0 213 0 979.4 NA 0.0000 9999 2620 0 0 0
2019/10/04 14:12:00 BASE 13.38 215 16.93 221 -10.1 68 -14.9 217 0 979.4 NA 0.0000 9999 2720 0 0 0
2019/10/04 14:13:00 BASE 14.24 216 16.93 221 -10.1 68 -14.9 219 0 979.4 NA 0.0000 9999 2790 0 0 0
2019/10/04 14:14:00 BASE 12.90 216 16.93 221 -10.1 68 -14.9 219 0 979.5 NA 0.0000 9999 2820 0 0 0
2019/10/04 14:15:00 BASE 12.11 214 16.93 221 -10.1 68 -14.9 219 0 979.5 NA 0.0000 9999 2720 0 0 0
2019/10/04 14:16:00 BASE 11.78 210 16.93 221 -10.1 68 -14.9 218 0 979.5 NA 0.0000 9999 2820 0 0 0
2019/10/04 14:17:00 BASE 11.82 215 16.93 221 -10.2 68 -14.9 220 0 979.5 NA 0.0000 9999 2660 0 0 0
2019/10/04 14:18:00 BASE 12.99 217 17.44 211 -10.2 68 -14.9 225 0 979.4 NA 0.0000 9999 2690 0 0 0
2019/10/04 14:19:00 BASE 15.30 215 18.73 213 -10.2 68 -14.9 229 0 979.4 NA 0.0000 9999 2720 0 0 0
2019/10/04 14:20:01 BASE 15.67 218 18.73 213 -10.2 68 -15.0 231 0 979.5 NA 0.0000 9999 2590 0 0 0
2019/10/04 14:21:01 BASE 15.10 217 18.73 213 -10.2 68 -15.0 234 0 979.5 NA 0.0000 9999 2590 0 0 0
2019/10/04 14:22:01 BASE 14.57 213 18.73 213 -10.2 68 -15.0 239 0 979.5 NA 0.0000 9999 2620 0 0 0
2019/10/04 14:23:01 BASE 13.30 207 18.73 213 -10.2 68 -15.0 240 0 979.5 NA 0.0000 9999 2560 0 0 0
2019/10/04 14:24:01 BASE 13.13 202 18.73 213 -10.2 68 -15.0 237 0 979.6 NA 0.0000 9999 2690 0 0 0
2019/10/04 14:25:01 BASE 13.68 203 18.73 213 -10.2 68 -15.0 238 0 979.5 NA 0.0000 9999 2720 0 0 0
2019/10/04 14:26:01 BASE 14.23 207 18.73 213 -10.2 68 -15.0 241 0 979.5 NA 0.0000 9999 2660 19550 23070 0
2019/10/04 14:27:01 BASE 14.64 218 18.73 213 -10.2 68 -15.0 247 0 979.6 NA 0.0000 9999 2620 19260 0 0
2019/10/04 14:28:01 BASE 15.05 231 18.73 213 -10.2 68 -15.0 252 0 979.6 NA 0.0000 9999 2590 0 0 0
2019/10/04 14:29:01 BASE 14.66 226 17.08 235 -10.2 68 -15.0 257 0 979.6 NA 0.0000 9999 2690 0 0 0
2019/10/04 14:30:01 BASE 13.70 213 17.08 235 -10.2 68 -15.0 261 0 979.6 NA 0.0000 9999 2890 0 0 0
2019/10/04 14:31:01 BASE 13.99 210 17.90 213 -10.2 68 -15.1 264 0 979.6 NA 0.0000 9999 3020 0 0 0
2019/10/04 14:32:01 BASE 15.76 216 18.01 214 -10.2 67 -15.1 270 0 979.6 NA 0.0000 9999 2990 15290 0 0
2019/10/04 14:33:01 BASE 16.05 218 18.11 222 -10.2 67 -15.2 272 0 979.6 NA 0.0000 9999 3150 0 0 0
2019/10/04 14:34:01 BASE 14.82 218 18.11 222 -10.2 66 -15.3 268 0 979.7 NA 0.0000 9999 3080 0 0 0
2019/10/04 14:35:01 BASE 13.40 221 18.11 222 -10.2 66 -15.4 265 0 979.7 NA 0.0000 9999 2890 0 0 0
2019/10/04 14:36:01 BASE 12.94 226 18.11 222 -10.2 65 -15.5 265 0 979.7 NA 0.0000 9999 2850 0 0 0
2019/10/04 14:37:01 BASE 13.82 225 18.11 222 -10.2 65 -15.5 268 0 979.7 NA 0.0000 9999 2920 0 0 0
2019/10/04 14:38:01 BASE 13.68 223 18.11 222 -10.1 65 -15.5 271 0 979.7 NA 0.0000 9999 2920 21330 0 0
2019/10/04 14:39:01 BASE 12.97 220 18.11 222 -10.1 65 -15.4 272 0 979.7 NA 0.0000 9999 3150 18050 20210 0
2019/10/04 14:40:01 BASE 13.29 217 18.11 222 -10.1 65 -15.4 273 0 979.7 NA 0.0000 9999 3050 0 0 0
2019/10/04 14:41:01 BASE 13.02 217 18.11 222 -10.1 65 -15.4 279 0 979.7 NA 0.0000 9999 2950 0 0 0
2019/10/04 14:42:01 BASE 12.42 218 18.11 222 -10.1 65 -15.4 290 0 979.7 NA 0.0000 9999 2990 0 0 0
2019/10/04 14:43:01 BASE 13.81 219 16.98 222 -10.1 66 -15.3 295 0 979.7 NA 0.0000 9999 3050 0 0 0
2019/10/04 14:44:01 BASE 14.39 219 16.98 222 -10.1 66 -15.3 296 0 979.7 NA 0.0000 9999 2950 0 0 0
2019/10/04 14:45:01 BASE 13.89 221 16.98 222 -10.1 66 -15.3 288 0 979.7 NA 0.0000 9999 2820 0 0 0
2019/10/04 14:46:01 BASE 13.86 222 16.98 222 -10.1 66 -15.3 285 0 979.7 NA 0.0000 9999 2850 0 0 0
2019/10/04 14:47:00 BASE 14.16 219 16.98 222 -10.1 66 -15.3 284 0 979.7 NA 0.0000 9999 2820 0 0 0
2019/10/04 14:48:01 BASE 14.33 218 16.98 222 -10.1 66 -15.3 281 0 979.8 NA 0.0000 9999 2790 0 0 0
2019/10/04 14:49:00 BASE 12.71 220 16.98 222 -10.1 66 -15.3 275 0 979.8 NA 0.0000 9999 2760 0 0 0
2019/10/04 14:50:00 BASE 11.74 222 16.98 222 -10.1 66 -15.3 274 0 979.8 NA 0.0000 9999 2690 0 0 0
2019/10/04 14:51:01 BASE 12.69 222 16.98 222 -10.1 66 -15.3 273 0 979.8 NA 0.0000 9999 2660 0 0 0
2019/10/04 14:52:00 BASE 13.80 217 16.98 222 -10.1 66 -15.2 273 0 979.8 NA 0.0000 9999 2530 0 0 0
2019/10/04 14:53:00 BASE 14.63 214 16.20 215 -10.1 67 -15.1 271 0 979.8 NA 0.0000 9999 2490 0 0 0
2019/10/04 14:54:00 BASE 14.53 216 16.20 215 -10.1 67 -15.1 272 0 979.8 NA 0.0000 9999 2460 0 0 0
2019/10/04 14:55:00 BASE 13.95 218 16.20 215 -10.1 67 -15.1 273 0 979.8 NA 0.0000 9999 2430 0 0 0
2019/10/04 14:56:01 BASE 13.24 220 16.20 215 -10.1 67 -15.1 273 0 979.8 NA 0.0000 9999 2720 0 0 0
2019/10/04 14:57:00 BASE 12.22 223 16.20 215 -10.1 67 -15.1 277 0 979.9 NA 0.0000 9999 2720 0 0 0
2019/10/04 14:58:00 BASE 11.12 218 16.20 215 -10.1 67 -15.0 285 0 979.9 NA 0.0000 9999 2590 0 0 0
2019/10/04 14:59:00 BASE 10.60 214 16.20 215 -10.1 68 -14.9 287 0 979.9 NA 0.0000 9999 2660 0 0 0
2019/10/04 15:00:00 BASE 11.44 218 16.20 215 -10.1 68 -14.9 288 0 979.9 NA 0.0000 9999 2660 0 0 0
2019/10/04 15:01:00 BASE 11.53 222 16.20 215 -10.1 68 -14.8 289 0 979.9 NA 0.0000 9999 2660 0 0 0
2019/10/04 15:02:00 BASE 11.60 224 16.20 215 -10.1 69 -14.7 288 0 979.9 NA 0.0000 -SN 9000 2490 0 0 0
2019/10/04 15:03:00 BASE 13.04 227 15.64 220 -10.0 69 -14.7 287 0 979.8 NA 0.0000 -SN 9999 2430 0 0 0
2019/10/04 15:04:00 BASE 13.56 227 16.26 225 -10.1 69 -14.7 288 0 979.8 NA 0.0000 -SN 9999 2720 0 0 0
2019/10/04 15:05:00 BASE 14.02 225 16.26 225 -10.0 69 -14.6 293 0 979.9 NA 0.0000 -SN 9999 2530 0 0 0
2019/10/04 15:06:00 BASE 13.38 223 16.26 225 -10.0 69 -14.6 298 0 979.9 NA 0.0000 -SN 9999 2490 0 0 0
2019/10/04 15:07:00 BASE 12.21 218 16.26 225 -10.0 69 -14.6 305 0 979.9 NA 0.0000 -SN 9999 2460 3020 21950 0
2019/10/04 15:08:00 BASE 11.89 218 16.26 225 -10.0 70 -14.5 312 0 979.9 NA 0.0000 -SN 9999 2920 0 0 0
2019/10/04 15:09:00 BASE 11.63 221 16.26 225 -10.0 70 -14.5 314 0 979.9 NA 0.0000 -SN 9999 2920 17550 0 0
2019/10/04 15:10:00 BASE 11.16 223 16.26 225 -10.0 70 -14.4 314 0 979.9 NA 0.0000 -SN 9999 2760 22440 0 0
2019/10/04 15:11:00 BASE 11.01 226 16.26 225 -10.0 70 -14.4 309 0 979.9 NA 0.0000 -SN 9999 2890 0 0 0
2019/10/04 15:12:00 BASE 12.32 227 16.26 225 -9.9 70 -14.3 306 0 979.9 NA 0.0000 -SN 9999 2790 0 0 0
2019/10/04 15:13:00 BASE 13.54 228 16.36 235 -9.9 71 -14.3 300 0 979.9 NA 0.0000 -SN 9999 2590 0 0 0
2019/10/04 15:14:00 BASE 13.70 225 16.36 235 -9.9 71 -14.3 294 0 979.9 NA 0.0000 -SN 9999 2430 0 0 0
2019/10/04 15:15:00 BASE 12.94 221 16.36 235 -9.9 71 -14.3 291 0 979.9 NA 0.0000 9999 2460 0 0 0
2019/10/04 15:16:00 BASE 12.49 220 16.36 235 -9.9 70 -14.3 289 0 979.9 NA 0.0000 9999 2430 0 0 0
2019/10/04 15:17:00 BASE 13.32 218 16.36 235 -9.9 70 -14.3 290 0 979.9 NA 0.0000 9999 2130 0 0 0
2019/10/04 15:18:00 BASE 13.36 216 16.36 235 -9.9 70 -14.3 305 0 979.9 NA 0.0000 9999 2230 2720 0 0
2019/10/04 15:19:00 BASE 12.60 216 16.36 235 -9.9 70 -14.3 339 0 979.9 NA 0.0000 9999 2720 3540 0 0
2019/10/04 15:20:00 BASE 11.47 215 16.36 235 -9.9 70 -14.3 363 0 980.0 NA 0.0000 9999 2620 0 0 0
2019/10/04 15:21:00 BASE 10.77 213 16.36 235 -9.9 71 -14.3 350 0 980.0 NA 0.0000 9999 2560 0 0 0
2019/10/04 15:22:00 BASE 11.25 213 16.36 235 -9.9 71 -14.2 325 0 980.0 NA 0.0000 9999 2430 0 0 0
2019/10/04 15:23:00 BASE 11.34 214 15.74 213 -10.0 71 -14.2 319 0 980.0 NA 0.0000 9999 2360 0 0 0
2019/10/04 15:24:00 BASE 11.12 217 15.74 213 -10.0 71 -14.2 324 0 980.0 NA 0.0000 9999 2490 3150 0 0
2019/10/04 15:25:00 BASE 11.70 219 15.74 213 -10.0 71 -14.2 312 0 980.0 NA 0.0000 9999 2490 2920 0 0
2019/10/04 15:26:00 BASE 12.73 221 15.74 213 -10.0 71 -14.2 314 0 980.0 NA 0.0000 9999 2300 0 0 0
2019/10/04 15:27:00 BASE 11.51 219 14.82 222 -9.9 71 -14.1 317 0 980.0 NA 0.0000 9999 2690 0 0 0
2019/10/04 15:28:00 BASE 9.56 214 14.82 222 -9.9 72 -14.1 310 0 980.1 NA 0.0000 9999 2460 0 0 0
2019/10/04 15:29:00 BASE 9.81 211 14.82 222 -9.9 72 -14.0 300 0 980.0 NA 0.0000 9999 2260 0 0 0
2019/10/04 15:30:00 BASE 10.92 214 14.82 222 -9.9 72 -14.0 322 0 979.9 NA 0.0000 9999 2300 3020 0 0
2019/10/04 15:31:00 BASE 11.11 218 14.82 222 -9.9 72 -14.0 348 0 979.9 NA 0.0000 9999 2460 3380 0 0
2019/10/04 15:32:00 BASE 11.45 218 14.82 222 -9.9 72 -14.0 335 0 979.9 NA 0.0000 9999 2460 0 0 0
2019/10/04 15:33:00 BASE 12.03 216 14.82 222 -9.9 72 -14.0 322 0 980.0 NA 0.0000 9999 2490 0 0 0
2019/10/04 15:34:00 BASE 12.17 217 14.82 222 -9.9 72 -14.0 302 0 980.1 NA 0.0000 9999 2330 0 0 0
2019/10/04 15:35:00 BASE 11.46 218 14.71 224 -9.9 72 -14.0 286 0 980.1 NA 0.0000 9999 2170 0 0 0
2019/10/04 15:36:00 BASE 11.13 219 13.12 217 -9.9 72 -14.0 310 0 980.1 NA 0.0000 9999 2130 0 0 0
2019/10/04 15:37:00 BASE 11.06 219 13.12 217 -9.9 72 -14.0 330 0 980.1 NA 0.0000 9999 2330 0 0 0
2019/10/04 15:38:00 BASE 10.80 218 13.12 217 -9.9 72 -14.0 310 0 980.1 NA 0.0000 9999 2400 0 0 0
2019/10/04 15:39:00 BASE 9.96 215 13.12 217 -9.9 72 -14.0 278 0 980.1 NA 0.0000 9999 2200 0 0 0
2019/10/04 15:40:00 BASE 9.17 214 13.12 217 -9.9 72 -14.0 284 0 980.1 NA 0.0000 9999 2260 0 0 0
2019/10/04 15:41:00 BASE 11.01 216 15.18 223 -9.9 72 -14.0 308 0 980.1 NA 0.0000 9999 2300 0 0 0
2019/10/04 15:42:00 BASE 12.21 213 15.18 223 -9.9 72 -14.0 308 0 980.1 NA 0.0000 9999 2230 2950 0 0
2019/10/04 15:43:00 BASE 11.69 210 15.18 223 -9.9 72 -14.0 299 0 980.1 NA 0.0000 9999 2400 0 0 0
2019/10/04 15:44:00 BASE 11.69 216 15.18 223 -9.8 72 -13.9 293 0 980.1 NA 0.0000 9999 2430 0 0 0
2019/10/04 15:45:00 BASE 11.55 216 15.18 223 -9.8 72 -13.9 282 0 980.1 NA 0.0000 9999 2490 0 0 0
2019/10/04 15:46:00 BASE 11.95 213 15.18 223 -9.8 72 -14.0 281 0 980.1 NA 0.0000 9999 2330 0 0 0
2019/10/04 15:47:00 BASE 11.68 210 15.18 223 -9.9 72 -14.0 265 0 980.1 NA 0.0000 9999 2330 0 0 0
2019/10/04 15:48:00 BASE 9.77 208 15.18 223 -9.9 71 -14.1 288 0 980.1 NA 0.0000 9999 2490 0 0 0
2019/10/04 15:49:00 BASE 9.07 209 15.18 223 -9.9 71 -14.1 364 0 980.1 NA 0.0000 9999 2820 0 0 0
2019/10/04 15:50:00 BASE 10.89 210 15.18 223 -9.9 71 -14.1 380 0 980.1 NA 0.0000 9999 2720 21460 0 0
2019/10/04 15:51:00 BASE 11.95 216 13.74 208 -9.8 71 -14.0 356 0 980.2 NA 0.0000 9999 2590 0 0 0
2019/10/04 15:52:00 BASE 12.30 223 14.15 227 -9.8 71 -14.0 319 0 980.2 NA 0.0000 9999 2490 0 0 0
2019/10/04 15:53:00 BASE 12.23 224 14.15 227 -9.8 71 -14.0 296 0 980.2 NA 0.0000 9999 2360 0 0 0
2019/10/04 15:54:00 BASE 11.41 221 14.15 227 -9.8 71 -14.0 292 0 980.2 NA 0.0000 9999 2360 22020 0 0
2019/10/04 15:55:00 BASE 10.58 219 14.15 227 -9.8 71 -14.1 308 0 980.3 NA 0.0000 9999 2530 0 0 0
2019/10/04 15:56:01 BASE 8.94 223 14.15 227 -9.8 70 -14.2 339 0 980.3 NA 0.0000 9999 2720 3380 0 0
2019/10/04 15:57:00 BASE 9.85 226 14.66 229 -9.8 70 -14.2 346 0 980.3 NA 0.0000 9999 2950 0 0 0
2019/10/04 15:58:00 BASE 13.31 227 16.20 226 -9.8 70 -14.2 334 0 980.2 NA 0.0000 9999 2990 0 0 0
2019/10/04 15:59:00 BASE 14.08 227 16.20 226 -9.7 70 -14.1 329 0 980.2 NA 0.0000 9999 3080 0 0 0
2019/10/04 16:00:00 BASE 14.26 227 16.98 233 -9.7 70 -14.1 361 0 980.2 NA 0.0000 9999 2590 3220 0 0
2019/10/04 16:01:00 BASE 15.00 227 16.98 233 -9.7 70 -14.1 357 0 980.2 NA 0.0000 9999 2530 0 0 0
2019/10/04 16:02:00 BASE 14.98 227 18.42 229 -9.7 70 -14.1 340 0 980.1 NA 0.0000 9999 2360 0 0 0
2019/10/04 16:03:00 BASE 15.74 228 18.42 229 -9.6 70 -14.1 312 0 980.1 NA 0.0000 9999 2260 0 0 0
2019/10/04 16:04:00 BASE 15.16 229 18.42 229 -9.6 70 -14.1 280 0 980.2 NA 0.0000 9999 2200 0 0 0
2019/10/04 16:05:00 BASE 14.46 229 18.42 229 -9.6 70 -14.1 298 0 980.2 NA 0.0000 9999 2230 3350 4100 0
2019/10/04 16:06:00 BASE 15.36 225 18.47 223 -9.6 70 -14.1 376 0 980.2 NA 0.0000 9999 3280 7050 0 0
2019/10/04 16:07:00 BASE 16.40 221 19.45 223 -9.6 70 -14.1 378 0 980.2 NA 0.0000 9999 3020 0 0 0
2019/10/04 16:08:00 BASE 15.86 220 19.45 223 -9.6 70 -14.0 328 0 980.2 NA 0.0000 9999 2660 0 0 0
2019/10/04 16:09:00 BASE 13.79 215 19.45 223 -9.6 70 -14.0 331 0 980.2 NA 0.0000 9999 2850 0 0 0
2019/10/04 16:10:00 BASE 12.70 213 19.45 223 -9.6 70 -14.0 410 0 980.3 NA 0.0000 9999 2530 21980 0 0
2019/10/04 16:11:00 BASE 14.32 216 19.45 223 -9.6 70 -14.0 448 0 980.2 NA 0.0000 9999 2660 3450 0 0
2019/10/04 16:12:00 BASE 16.35 221 19.45 223 -9.5 70 -14.0 382 0 980.2 NA 0.0000 9999 2200 0 0 0
2019/10/04 16:13:00 BASE 16.34 222 19.45 223 -9.5 70 -13.9 372 0 980.3 NA 0.0000 9999 2460 0 0 0
2019/10/04 16:14:00 BASE 14.46 218 19.45 223 -9.5 70 -13.9 385 0 980.3 NA 0.0000 9999 2230 0 0 0
2019/10/04 16:15:00 BASE 12.40 212 19.45 223 -9.4 70 -13.8 397 0 980.4 NA 0.0000 9999 2620 3940 7020 0
2019/10/04 16:16:00 BASE 12.36 209 19.45 223 -9.5 71 -13.8 380 0 980.4 NA 0.0000 9999 2260 0 0 0
2019/10/04 16:17:00 BASE 13.36 209 18.88 222 -9.5 71 -13.7 367 0 980.4 NA 0.0000 9999 2230 0 0 0
2019/10/04 16:18:00 BASE 13.15 207 18.88 222 -9.5 71 -13.7 369 0 980.4 NA 0.0000 9999 2360 2990 0 0
2019/10/04 16:19:00 BASE 12.36 208 18.88 222 -9.5 72 -13.7 372 0 980.4 NA 0.0000 9999 2950 6990 0 0
2019/10/04 16:20:00 BASE 12.03 214 18.88 222 -9.5 72 -13.7 345 0 980.4 NA 0.0000 9999 2360 0 0 0
2019/10/04 16:21:00 BASE 12.18 220 18.88 222 -9.5 72 -13.6 328 0 980.4 NA 0.0000 9999 2100 0 0 0
2019/10/04 16:22:00 BASE 12.66 221 18.26 225 -9.5 72 -13.6 332 0 980.4 NA 0.0000 9999 2230 2920 0 0
2019/10/04 16:23:00 BASE 12.42 216 14.92 204 -9.5 73 -13.5 318 0 980.4 NA 0.0000 9999 2360 21880 0 0
2019/10/04 16:24:00 BASE 12.26 212 14.92 204 -9.5 73 -13.5 307 0 980.4 NA 0.0000 9999 2000 0 0 0
2019/10/04 16:25:00 BASE 12.63 208 15.64 206 -9.5 73 -13.4 306 0 980.4 NA 0.0000 9999 2030 0 0 0
2019/10/04 16:26:00 BASE 14.40 205 17.44 209 -9.5 73 -13.4 310 0 980.4 NA 0.0000 9999 2070 0 0 0
2019/10/04 16:27:00 BASE 15.26 211 17.44 209 -9.6 73 -13.5 315 0 980.4 NA 0.0000 9999 2070 0 0 0
2019/10/04 16:28:01 BASE 14.53 217 17.44 209 -9.6 73 -13.5 304 0 980.5 NA 0.0000 9999 2030 0 0 0
2019/10/04 16:29:00 BASE 13.82 219 17.44 209 -9.6 74 -13.4 294 0 980.5 NA 0.0000 9999 2130 0 0 0
2019/10/04 16:30:00 BASE 13.44 221 17.44 209 -9.6 74 -13.4 290 0 980.5 NA 0.0000 9999 1900 0 0 0
2019/10/04 16:31:00 BASE 13.41 222 17.44 209 -9.6 74 -13.4 286 0 980.5 NA 0.0000 9999 1940 2850 0 0
2019/10/04 16:32:00 BASE 13.36 220 17.44 209 -9.6 74 -13.4 280 0 980.5 NA 0.0000 9999 2030 0 0 0
2019/10/04 16:33:00 BASE 13.50 218 17.44 209 -9.6 74 -13.4 274 0 980.5 NA 0.0000 9999 2030 0 0 0
2019/10/04 16:34:00 BASE 13.63 221 17.44 209 -9.6 74 -13.4 268 0 980.5 NA 0.0000 9999 2260 0 0 0
2019/10/04 16:35:00 BASE 13.94 221 17.44 209 -9.6 74 -13.3 265 0 980.6 NA 0.0000 9999 1940 0 0 0
2019/10/04 16:36:00 BASE 13.21 219 16.62 214 -9.6 74 -13.3 270 0 980.6 NA 0.0000 9999 2430 0 0 0
2019/10/04 16:37:00 BASE 11.88 220 15.95 223 -9.6 75 -13.3 265 0 980.6 NA 0.0000 9999 2100 2590 0 0
2019/10/04 16:38:00 BASE 11.14 221 15.69 220 -9.6 75 -13.3 255 0 980.6 NA 0.0000 9999 2000 2790 0 0
2019/10/04 16:39:00 BASE 10.91 218 14.87 219 -9.6 75 -13.2 249 0 980.7 NA 0.0000 9999 1970 0 0 0
2019/10/04 16:40:00 BASE 11.20 218 14.82 228 -9.6 75 -13.2 248 0 980.7 NA 0.0000 9999 2070 0 0 0
2019/10/04 16:41:00 BASE 11.48 218 14.82 228 -9.6 75 -13.2 248 0 980.7 NA 0.0000 9999 2070 0 0 0
2019/10/04 16:42:00 BASE 12.10 218 14.82 228 -9.6 75 -13.2 248 0 980.7 NA 0.0000 9999 1970 0 0 0
2019/10/04 16:43:00 BASE 13.84 223 16.67 230 -9.6 75 -13.1 249 0 980.6 NA 0.0000 -SN 9999 1900 0 0 0
2019/10/04 16:44:00 BASE 14.98 224 16.87 218 -9.6 76 -13.1 252 0 980.6 NA 0.0000 -SN 9999 1870 0 0 0
2019/10/04 16:45:00 BASE 15.03 219 16.87 218 -9.6 76 -13.0 258 0 980.7 NA 0.0000 -SN 9999 2030 0 0 0
2019/10/04 16:46:00 BASE 15.19 218 16.87 218 -9.6 76 -13.0 263 0 980.6 NA 0.0000 9999 2030 22380 0 0
2019/10/04 16:47:00 BASE 14.40 216 16.87 218 -9.6 76 -13.0 265 0 980.6 NA 0.0000 9999 2130 0 0 0
2019/10/04 16:48:00 BASE 13.84 215 16.87 218 -9.6 76 -13.1 266 0 980.7 NA 0.0000 9999 2230 0 0 0
2019/10/04 16:49:00 BASE 14.45 217 16.87 218 -9.5 75 -13.1 271 0 980.7 NA 0.0000 9999 2400 0 0 0
2019/10/04 16:50:00 BASE 14.86 220 16.87 218 -9.5 75 -13.1 278 0 980.7 NA 0.0000 9999 2620 0 0 0
2019/10/04 16:51:00 BASE 15.84 223 18.01 223 -9.5 75 -13.1 277 0 980.7 NA 0.0000 9999 2300 3410 0 0
2019/10/04 16:52:00 BASE 16.19 219 18.01 223 -9.5 75 -13.1 272 0 980.7 NA 0.0000 9999 2620 0 0 0
2019/10/04 16:53:00 BASE 14.40 217 18.01 223 -9.5 75 -13.1 270 0 980.8 NA 0.0000 9999 2200 2760 0 0
2019/10/04 16:54:00 BASE 12.50 219 18.01 223 -9.5 75 -13.1 270 0 980.8 NA 0.0000 9999 2030 0 0 0
2019/10/04 16:55:00 BASE 13.49 222 19.14 228 -9.5 75 -13.1 271 0 980.7 NA 0.0000 9999 2030 0 0 0
2019/10/04 16:56:00 BASE 15.36 222 19.14 228 -9.5 75 -13.1 269 0 980.7 NA 0.0000 9999 1970 23070 0 0
2019/10/04 16:57:00 BASE 15.31 222 19.14 228 -9.5 75 -13.1 270 0 980.7 NA 0.0000 9999 2030 0 0 0
2019/10/04 16:58:00 BASE 14.96 222 19.14 228 -9.5 75 -13.1 275 0 980.7 NA 0.0000 9999 2100 0 0 0
2019/10/04 16:59:00 BASE 14.23 221 19.14 228 -9.5 75 -13.1 282 0 980.8 NA 0.0000 9999 2100 22610 0 0
2019/10/04 17:00:00 BASE 13.99 224 19.14 228 -9.5 75 -13.1 288 0 980.8 NA 0.0000 9999 2300 0 0 0
2019/10/04 17:01:00 BASE 15.77 227 19.14 228 -9.4 75 -13.1 283 0 980.8 NA 0.0000 9999 2430 0 0 0
2019/10/04 17:02:00 BASE 16.44 226 19.14 228 -9.4 75 -13.0 276 0 980.8 NA 0.0000 9999 2000 0 0 0
2019/10/04 17:03:00 BASE 15.43 224 19.14 228 -9.4 75 -13.0 275 0 980.8 NA 0.0000 9999 2360 21980 0 0
2019/10/04 17:04:00 BASE 16.08 223 19.81 225 -9.4 75 -13.0 269 0 980.8 NA 0.0000 9999 2130 20570 0 0
2019/10/04 17:05:00 BASE 16.60 222 19.81 225 -9.4 75 -13.0 264 0 980.9 NA 0.0000 9999 2030 0 0 0
2019/10/04 17:06:00 BASE 14.58 219 19.81 225 -9.4 75 -13.0 259 0 981.0 NA 0.0000 9999 1900 0 0 0
2019/10/04 17:07:00 BASE 13.40 211 19.81 225 -9.4 75 -13.0 256 0 980.9 NA 0.0000 9999 1970 0 0 0
2019/10/04 17:08:00 BASE 14.08 207 19.81 225 -9.4 75 -13.0 258 0 980.9 NA 0.0000 9999 2000 0 0 0
2019/10/04 17:09:00 BASE 13.92 207 19.81 225 -9.4 75 -13.0 266 0 981.0 NA 0.0000 9999 2170 0 0 0
2019/10/04 17:10:00 BASE 13.09 207 19.81 225 -9.5 75 -13.1 274 0 981.0 NA 0.0000 9999 2200 0 0 0
2019/10/04 17:11:00 BASE 12.80 212 19.81 225 -9.5 75 -13.1 278 0 981.0 NA 0.0000 9999 2460 0 0 0
2019/10/04 17:12:00 BASE 13.84 213 19.81 225 -9.5 75 -13.1 285 0 981.0 NA 0.0000 9999 2430 0 0 0
2019/10/04 17:13:00 BASE 15.24 213 19.81 225 -9.5 75 -13.1 293 0 981.0 NA 0.0000 9999 2690 0 0 0
2019/10/04 17:14:00 BASE 15.69 218 18.21 217 -9.5 75 -13.1 299 0 981.0 NA 0.0000 9999 2920 3450 22610 0
2019/10/04 17:15:00 BASE 15.68 218 18.21 217 -9.5 75 -13.1 300 0 981.0 NA 0.0000 9999 2300 3080 0 0
2019/10/04 17:16:00 BASE 15.83 215 18.52 222 -9.5 74 -13.2 294 0 981.0 NA 0.0000 9999 2330 0 0 0
2019/10/04 17:17:00 BASE 16.98 219 19.60 222 -9.4 74 -13.2 292 0 981.0 NA 0.0000 9999 2400 3150 0 0
2019/10/04 17:18:00 BASE 16.92 221 19.60 222 -9.4 73 -13.3 287 0 981.1 NA 0.0000 9999 2530 3220 0 0
2019/10/04 17:19:00 BASE 15.55 220 19.60 222 -9.4 73 -13.4 280 0 981.1 NA 0.0000 9999 2170 0 0 0
2019/10/04 17:20:00 BASE 14.30 221 19.60 222 -9.4 72 -13.4 281 0 981.2 NA 0.0000 9999 2130 0 0 0
2019/10/04 17:21:00 BASE 12.90 223 19.60 222 -9.4 72 -13.4 281 0 981.2 NA 0.0000 9999 2260 0 0 0
2019/10/04 17:22:00 BASE 12.97 221 19.60 222 -9.4 72 -13.4 280 0 981.2 NA 0.0000 9999 2170 0 0 0
2019/10/04 17:23:00 BASE 14.17 217 19.60 222 -9.4 73 -13.4 277 0 981.2 NA 0.0000 9999 2230 22930 0 0
2019/10/04 17:24:00 BASE 14.14 215 19.60 222 -9.4 73 -13.4 280 0 981.2 NA 0.0000 9999 2130 0 0 0
2019/10/04 17:25:00 BASE 15.35 216 20.68 212 -9.4 73 -13.3 283 0 981.1 NA 0.0000 9999 2260 3050 0 0
2019/10/04 17:26:00 BASE 16.66 216 20.68 212 -9.4 73 -13.3 271 0 981.2 NA 0.0000 9999 2590 0 0 0
2019/10/04 17:27:00 BASE 15.45 214 20.68 212 -9.4 73 -13.4 262 0 981.2 NA 0.0000 9999 2230 0 0 0
2019/10/04 17:28:00 BASE 14.88 216 20.68 212 -9.5 73 -13.4 259 0 981.2 NA 0.0000 9999 2100 0 0 0
2019/10/04 17:29:00 BASE 16.33 214 20.68 212 -9.5 73 -13.4 262 0 981.2 NA 0.0000 9999 2170 0 0 0
2019/10/04 17:30:00 BASE 16.96 211 20.68 212 -9.5 74 -13.4 271 0 981.2 NA 0.0000 9999 2300 0 0 0
2019/10/04 17:31:00 BASE 15.95 214 20.68 212 -9.5 74 -13.3 274 0 981.2 NA 0.0000 9999 2130 2820 0 0
2019/10/04 17:32:00 BASE 16.59 214 20.68 212 -9.5 74 -13.3 267 0 981.2 NA 0.0000 9999 2170 0 0 0
2019/10/04 17:33:00 BASE 16.98 213 20.68 212 -9.5 74 -13.4 255 0 981.2 NA 0.0000 9999 2030 0 0 0
2019/10/04 17:34:00 BASE 15.45 215 20.68 212 -9.6 73 -13.4 246 0 981.3 NA 0.0000 9999 2590 0 0 0
2019/10/04 17:35:00 BASE 14.68 219 19.60 205 -9.6 73 -13.5 239 0 981.4 NA 0.0000 9999 2100 0 0 0
2019/10/04 17:36:00 BASE 14.74 220 19.39 213 -9.6 73 -13.5 234 0 981.4 NA 0.0000 9999 2000 0 0 0
2019/10/04 17:37:00 BASE 14.23 217 19.39 213 -9.6 73 -13.5 231 0 981.4 NA 0.0000 9999 1940 0 0 0
2019/10/04 17:38:00 BASE 14.30 215 19.39 213 -9.5 73 -13.5 229 0 981.4 NA 0.0000 9999 2360 0 0 0
2019/10/04 17:39:00 BASE 15.04 217 19.39 213 -9.5 73 -13.4 228 0 981.4 NA 0.0000 9999 1970 0 0 0
2019/10/04 17:40:00 BASE 14.65 217 19.39 213 -9.5 74 -13.4 228 0 981.4 NA 0.0000 9999 1940 0 0 0
2019/10/04 17:41:00 BASE 14.06 219 19.39 213 -9.5 74 -13.3 227 0 981.4 NA 0.0000 9999 2100 0 0 0
2019/10/04 17:42:00 BASE 13.39 221 17.75 217 -9.5 74 -13.3 229 0 981.5 NA 0.0000 9999 2400 0 0 0
2019/10/04 17:43:00 BASE 12.95 216 17.18 220 -9.5 74 -13.2 231 0 981.5 NA 0.0000 9999 1900 0 0 0
2019/10/04 17:44:00 BASE 13.81 215 17.18 220 -9.5 74 -13.2 233 0 981.4 NA 0.0000 9999 2030 0 0 0
2019/10/04 17:45:00 BASE 14.47 215 17.18 220 -9.5 75 -13.2 236 0 981.4 NA 0.0000 9999 2070 0 0 0
2019/10/04 17:46:00 BASE 14.54 208 17.18 220 -9.5 75 -13.2 241 0 981.4 NA 0.0000 9999 2000 0 0 0
2019/10/04 17:47:00 BASE 14.39 207 17.18 220 -9.6 75 -13.2 242 0 981.4 NA 0.0000 9999 1970 0 0 0
2019/10/04 17:48:00 BASE 13.95 208 17.18 220 -9.6 75 -13.2 238 0 981.5 NA 0.0000 9999 1970 0 0 0
2019/10/04 17:49:00 BASE 14.32 213 17.08 202 -9.6 75 -13.2 231 0 981.4 NA 0.0000 9999 2070 0 0 0
2019/10/04 17:50:00 BASE 14.45 215 17.08 202 -9.6 75 -13.2 228 0 981.5 NA 0.0000 9999 2070 0 0 0
2019/10/04 17:51:00 BASE 13.56 215 17.08 202 -9.6 75 -13.2 228 0 981.5 NA 0.0000 7000 2360 0 0 0
2019/10/04 17:52:00 BASE 14.08 213 17.08 202 -9.6 75 -13.2 229 0 981.4 NA 0.0000 9999 2130 24440 0 0
2019/10/04 17:53:00 BASE 14.76 210 17.08 202 -9.6 75 -13.2 227 0 981.5 NA 0.0000 9999 2170 0 0 0
2019/10/04 17:54:00 BASE 14.80 213 17.08 202 -9.6 75 -13.2 222 0 981.5 NA 0.0000 9999 2070 0 0 0
2019/10/04 17:55:00 BASE 14.26 212 17.08 202 -9.6 75 -13.2 215 0 981.5 NA 0.0000 9999 2460 0 0 0
2019/10/04 17:56:00 BASE 13.95 211 16.98 214 -9.6 75 -13.2 212 0 981.5 NA 0.0000 -SN 9000 330 0 0 0
2019/10/04 17:57:00 BASE 14.77 210 16.98 214 -9.6 75 -13.2 212 0 981.5 NA 0.0000 -SN 9999 2100 0 0 0
2019/10/04 17:58:00 BASE 15.70 209 17.90 212 -9.6 75 -13.2 212 0 981.5 NA 0.0000 -SN 9999 2070 0 0 0
2019/10/04 17:59:00 BASE 15.70 210 17.90 212 -9.6 75 -13.2 213 0 981.5 NA 0.0000 -SN 9999 390 0 0 0
2019/10/04 18:00:00 BASE 14.17 208 17.90 212 -9.6 75 -13.3 216 0 981.5 NA 0.0000 -SN 9999 1970 22870 0 0
2019/10/04 18:01:00 BASE 14.14 208 17.90 212 -9.7 75 -13.3 217 0 981.5 NA 0.0000 -SN 9999 2070 0 0 0
2019/10/04 18:02:00 BASE 15.18 210 17.90 212 -9.7 74 -13.4 216 0 981.5 NA 0.0000 -SN 9999 2100 0 0 0
2019/10/04 18:03:00 BASE 14.82 209 17.90 212 -9.7 74 -13.4 215 0 981.5 NA 0.0000 -SN 9999 2360 0 0 0
2019/10/04 18:04:00 BASE 14.51 207 17.90 212 -9.7 74 -13.5 215 0 981.5 NA 0.0000 -SN 9999 2100 0 0 0
2019/10/04 18:05:00 BASE 13.76 207 17.90 212 -9.7 74 -13.5 213 0 981.6 NA 0.0000 -SN 8000 2490 0 0 0
2019/10/04 18:06:00 BASE 13.38 207 17.90 212 -9.7 74 -13.5 211 0 981.5 NA 0.0000 -SN 8000 2490 0 0 0
2019/10/04 18:07:00 BASE 13.77 209 17.90 212 -9.7 74 -13.4 208 0 981.6 NA 0.0000 -SN 9999 2030 0 0 0
2019/10/04 18:08:00 BASE 13.95 214 17.65 212 -9.6 74 -13.4 207 0 981.6 NA 0.0000 -SN 9999 2000 0 0 0
2019/10/04 18:09:00 BASE 13.99 216 17.65 212 -9.6 74 -13.4 206 0 981.6 NA 0.0000 -SN 9999 1970 0 0 0
2019/10/04 18:10:00 BASE 13.89 216 17.65 212 -9.6 74 -13.3 207 0 981.6 NA 0.0000 -SN 9999 1970 0 0 0
2019/10/04 18:11:00 BASE 14.05 217 17.65 212 -9.6 75 -13.3 211 0 981.6 NA 0.0000 -SN 9000 1870 0 0 0
2019/10/04 18:12:00 BASE 13.33 217 17.29 200 -9.6 75 -13.2 214 0 981.6 NA 0.0000 -SN 9999 2330 0 0 0
2019/10/04 18:13:00 BASE 13.51 215 17.29 200 -9.6 75 -13.2 212 0 981.6 NA 0.0000 -SN 9999 1970 0 0 0
2019/10/04 18:14:00 BASE 14.27 217 17.29 200 -9.6 75 -13.2 207 0 981.6 NA 0.0000 -SN 9000 1870 0 0 0
2019/10/04 18:15:00 BASE 13.27 214 17.29 200 -9.6 75 -13.2 203 0 981.7 NA 0.0000 -SN 7000 1740 0 0 0
2019/10/04 18:16:00 BASE 12.78 215 16.20 221 -9.6 75 -13.2 202 0 981.7 NA 0.0000 -SN 9999 1770 0 0 0
2019/10/04 18:17:00 BASE 12.97 218 16.20 221 -9.6 75 -13.2 204 0 981.7 NA 0.0000 -SN 9999 1770 0 0 0
2019/10/04 18:18:00 BASE 12.92 224 16.20 221 -9.6 75 -13.2 206 0 981.7 NA 0.0000 -SN 9999 1870 21520 0 0
2019/10/04 18:19:00 BASE 13.64 228 16.20 221 -9.5 75 -13.1 207 0 981.7 NA 0.0000 -SN 9999 1900 18310 0 0
2019/10/04 18:20:00 BASE 14.81 224 16.82 220 -9.5 75 -13.1 206 0 981.7 NA 0.0000 -SN 9999 1900 0 0 0
2019/10/04 18:21:00 BASE 14.84 221 16.82 220 -9.5 76 -13.0 203 0 981.7 NA 0.0000 -SN 9999 1710 2430 0 0
2019/10/04 18:22:00 BASE 13.88 219 16.82 220 -9.5 76 -13.0 198 0 981.7 NA 0.0000 -SN 9999 1740 0 0 0
2019/10/04 18:23:00 BASE 12.69 221 16.82 220 -9.5 76 -12.9 194 0 981.8 NA 0.0000 -SN 9999 1640 0 0 0
2019/10/04 18:24:00 BASE 11.86 227 16.82 220 -9.5 76 -12.9 193 0 981.8 NA 0.0000 -SN 9999 1710 0 0 0
2019/10/04 18:25:00 BASE 14.62 228 19.86 227 -9.5 77 -12.9 191 0 981.7 NA 0.0000 -SN 9999 1770 0 0 0
2019/10/04 18:26:00 BASE 16.77 229 19.86 227 -9.5 77 -12.8 188 0 981.7 NA 0.0000 -SN 9999 1800 20540 0 0
2019/10/04 18:27:00 BASE 16.14 229 19.86 227 -9.5 77 -12.8 186 0 981.8 NA 0.0000 -SN 8000 1740 0 0 0
2019/10/04 18:28:00 BASE 14.97 227 19.86 227 -9.6 77 -12.8 185 0 981.9 NA 0.0000 -SN 9999 1740 0 0 0
2019/10/04 18:29:00 BASE 13.19 227 19.86 227 -9.6 78 -12.8 186 0 981.9 NA 0.0000 -SN 9000 1710 0 0 0
2019/10/04 18:30:00 BASE 11.95 231 19.86 227 -9.6 78 -12.7 189 0 981.9 NA 0.0000 -SN 5000 390 0 0 0
2019/10/04 18:31:00 BASE 11.42 230 19.86 227 -9.6 78 -12.7 193 0 982.0 NA 0.0000 -SN 4700 1640 0 0 0
2019/10/04 18:32:00 BASE 12.28 226 19.86 227 -9.6 78 -12.6 191 0 981.9 NA 0.0000 -SN 7000 1840 0 0 0
2019/10/04 18:33:00 BASE 13.73 226 19.86 227 -9.5 79 -12.6 184 0 981.9 NA 0.0000 -SN 9999 1770 0 0 0
2019/10/04 18:34:00 BASE 13.01 227 19.86 227 -9.5 79 -12.5 177 0 981.9 NA 0.0000 -SN 9999 1940 0 0 0
2019/10/04 18:35:00 BASE 12.37 229 17.34 232 -9.5 79 -12.4 171 0 981.9 NA 0.0000 -SN 9000 1800 0 0 0
2019/10/04 18:36:00 BASE 13.09 230 17.34 232 -9.5 79 -12.4 169 0 981.9 NA 0.0000 -SN 9999 2300 0 0 0
2019/10/04 18:37:00 BASE 12.97 223 17.03 218 -9.5 80 -12.4 167 0 982.0 NA 0.0000 -SN 5000 2130 0 0 0
2019/10/04 18:38:00 BASE 14.12 214 17.03 218 -9.5 80 -12.3 163 0 981.9 NA 0.0000 -SN 9999 1900 0 0 0
2019/10/04 18:39:00 BASE 16.05 216 18.16 225 -9.5 80 -12.3 159 0 982.0 NA 0.0000 -SN 9999 1940 21130 0 0
2019/10/04 18:40:00 BASE 16.10 224 18.16 225 -9.6 80 -12.4 158 0 982.0 NA 0.0000 -SN 9000 390 2300 0 0
2019/10/04 18:41:00 BASE 15.56 226 18.16 225 -9.6 80 -12.4 162 0 982.0 NA 0.0000 -SN 5000 330 0 0 0
2019/10/04 18:42:00 BASE 14.92 226 18.16 225 -9.6 80 -12.4 170 0 982.1 NA 0.0000 -SN 4100 360 0 0 0
2019/10/04 18:43:00 BASE 13.84 225 18.16 225 -9.6 80 -12.4 175 0 982.1 NA 0.0000 -SN 3900 2030 2690 0 0
2019/10/04 18:44:00 BASE 13.76 225 18.16 225 -9.6 80 -12.4 179 0 982.2 NA 0.0000 -SN 9999 2620 0 0 0
2019/10/04 18:45:00 BASE 14.04 228 18.16 225 -9.6 81 -12.3 179 0 982.2 NA 0.0000 -SN 9999 2660 3280 0 0
2019/10/04 18:46:00 BASE 13.93 226 18.16 225 -9.6 81 -12.3 169 0 982.1 NA 0.0000 -SN 9999 430 0 0 0
2019/10/04 18:47:00 BASE 13.67 221 18.16 225 -9.6 81 -12.3 160 0 982.2 NA 0.0000 -SN 6000 0 0 0 2660
2019/10/04 18:48:00 BASE 13.14 223 18.16 225 -9.6 81 -12.3 159 0 982.2 NA 0.0000 -SN 2900 230 0 0 0
2019/10/04 18:49:00 BASE 11.70 229 17.54 227 -9.7 81 -12.3 159 0 982.2 NA 0.0000 -SN 3300 330 0 0 0
2019/10/04 18:50:00 BASE 11.39 230 17.54 227 -9.7 81 -12.3 164 0 982.2 NA 0.0000 -SN 3400 300 0 0 0
2019/10/04 18:51:00 BASE 12.56 227 15.95 219 -9.6 81 -12.3 166 0 982.2 NA 0.0000 -SN 6000 2300 0 0 0
2019/10/04 18:52:01 BASE 13.94 225 15.95 219 -9.6 81 -12.3 156 0 982.2 NA 0.0000 -SN 8000 0 0 0 3020
2019/10/04 18:53:01 BASE 15.18 223 16.87 222 -9.6 81 -12.3 159 0 982.2 NA 0.0000 -SN 4200 0 0 0 2260
2019/10/04 18:54:01 BASE 15.21 222 16.87 222 -9.6 81 -12.3 155 0 982.2 NA 0.0000 -SN 5000 230 0 0 0
2019/10/04 18:55:01 BASE 14.63 220 16.87 222 -9.6 81 -12.3 148 0 982.2 NA 0.0000 -SN 5000 0 0 0 2620
2019/10/04 18:56:01 BASE 14.01 217 16.87 222 -9.7 81 -12.3 142 0 982.2 NA 0.0000 -SN 2500 0 0 0 2130
2019/10/04 18:57:01 BASE 13.06 218 16.87 222 -9.7 81 -12.3 143 0 982.2 NA 0.0000 -SN 2500 0 0 0 1900
2019/10/04 18:58:01 BASE 13.36 221 16.87 222 -9.7 82 -12.3 144 0 982.2 NA 0.0000 -SN 2200 0 0 0 2490
2019/10/04 18:59:01 BASE 13.80 222 16.87 222 -9.8 82 -12.3 149 0 982.2 NA 0.0000 -SN 3000 0 0 0 2530
2019/10/04 19:00:01 BASE 13.13 225 16.87 222 -9.8 82 -12.3 144 0 982.2 NA 0.0000 -SN 2200 0 0 0 2530
2019/10/04 19:01:01 BASE 14.21 224 16.87 222 -9.8 82 -12.3 146 0 982.2 NA 0.0000 -SN 2200 0 0 0 2300
2019/10/04 19:02:01 BASE 15.73 224 17.03 230 -9.8 82 -12.3 145 0 982.2 NA 0.0000 -SN 1800 0 0 0 2560
2019/10/04 19:03:01 BASE 15.72 225 17.03 230 -9.8 82 -12.2 143 0 982.3 NA 0.0000 -SN 2600 0 0 0 2560
2019/10/04 19:04:01 BASE 14.23 224 17.03 230 -9.8 83 -12.2 140 0 982.3 NA 0.0000 -SN 1800 0 0 0 2260
2019/10/04 19:05:01 BASE 13.48 219 17.59 209 -9.8 83 -12.1 140 0 982.3 NA 0.0000 -SN 2000 0 0 0 1740
2019/10/04 19:06:01 BASE 15.67 213 18.73 207 -9.8 83 -12.1 147 0 982.2 NA 0.0000 -SN 1500 0 0 0 1710
2019/10/04 19:07:01 BASE 17.41 214 19.03 223 -9.8 83 -12.1 159 0 982.2 NA 0.0000 -SN 1600 0 0 0 2030
2019/10/04 19:08:01 BASE 17.06 219 19.03 223 -9.8 83 -12.1 167 0 982.2 NA 0.0000 -SN 2600 300 2000 0 0
2019/10/04 19:09:01 BASE 16.03 219 19.03 223 -9.8 83 -12.1 164 0 982.3 NA 0.0000 -SN 4300 430 0 0 0
2019/10/04 19:10:01 BASE 15.50 225 19.03 223 -9.8 83 -12.1 157 0 982.3 NA 0.0000 -SN 5000 0 0 0 2130
2019/10/04 19:11:01 BASE 16.60 230 19.86 231 -9.8 83 -12.1 169 0 982.3 NA 0.0000 -SN 3700 0 0 0 2300
2019/10/04 19:12:01 BASE 16.42 231 19.86 231 -9.8 84 -12.0 171 0 982.3 NA 0.0000 -SN 3300 620 0 0 0
2019/10/04 19:13:01 BASE 16.40 230 19.86 231 -9.8 84 -12.0 177 0 982.2 NA 0.0000 -SN 9999 330 1250 0 0
2019/10/04 19:14:01 BASE 16.74 226 19.86 231 -9.7 84 -11.9 173 0 982.3 NA 0.0000 -SN BR 9999 360 0 0 0
2019/10/04 19:15:01 BASE 15.86 221 19.86 231 -9.7 84 -11.9 171 0 982.3 NA 0.0000 -SN BR 4000 0 0 0 3080
2019/10/04 19:16:01 BASE 16.13 222 19.86 231 -9.7 84 -11.9 174 0 982.3 NA 0.0000 -SN 2500 0 0 0 3120
2019/10/04 19:17:01 BASE 15.52 223 19.86 231 -9.7 84 -11.9 174 0 982.3 NA 0.0000 -SN 6000 950 2490 0 0
2019/10/04 19:18:01 BASE 13.96 226 19.86 231 -9.7 83 -12.0 178 0 982.3 NA 0.0000 -SN 9999 850 0 0 0
2019/10/04 19:19:01 BASE 15.15 231 20.06 229 -9.7 83 -12.0 184 0 982.3 NA 0.0000 -SN 9999 1350 1970 0 0
2019/10/04 19:20:01 BASE 16.28 232 20.06 229 -9.7 83 -12.0 192 0 982.3 NA 0.0000 -SN 9999 2000 2920 0 0
2019/10/04 19:21:00 BASE 16.49 232 20.06 229 -9.7 83 -12.0 192 0 982.3 NA 0.0000 -SN 9999 2260 0 0 0
2019/10/04 19:22:01 BASE 16.67 234 20.06 229 -9.7 83 -12.0 183 0 982.3 NA 0.0000 -SN 9999 2030 2590 0 0
2019/10/04 19:23:00 BASE 15.37 236 20.06 229 -9.7 83 -12.0 178 0 982.3 NA 0.0000 -SN 9999 2230 2660 0 0
2019/10/04 19:24:01 BASE 15.22 238 20.06 229 -9.7 83 -12.0 174 0 982.3 NA 0.0000 -SN 9999 2950 3450 0 0
2019/10/04 19:25:01 BASE 15.68 237 20.06 229 -9.7 83 -12.0 172 0 982.4 NA 0.0000 -SN 9999 2690 3510 0 0
2019/10/04 19:26:00 BASE 16.33 232 20.06 229 -9.6 83 -12.0 171 0 982.3 NA 0.0000 9999 2990 0 0 0
2019/10/04 19:27:00 BASE 16.39 231 20.06 229 -9.6 83 -12.0 170 0 982.4 NA 0.0000 9999 3050 3480 0 0
2019/10/04 19:28:01 BASE 16.00 233 20.06 229 -9.6 82 -12.1 166 0 982.4 NA 0.0000 9999 3510 4100 0 0
2019/10/04 19:29:00 BASE 15.50 235 19.24 232 -9.6 82 -12.1 164 0 982.4 NA 0.0000 9999 2260 2920 3770 0
2019/10/04 19:30:00 BASE 14.68 237 19.24 232 -9.6 82 -12.1 162 0 982.5 NA 0.0000 9999 2760 3670 0 0
2019/10/04 19:31:00 BASE 14.23 233 18.47 233 -9.6 82 -12.2 160 0 982.5 NA 0.0000 9999 2890 3450 0 0
2019/10/04 19:32:01 BASE 13.34 231 18.42 228 -9.6 82 -12.2 160 0 982.5 NA 0.0000 9999 3380 0 0 0
2019/10/04 19:33:00 BASE 13.97 231 18.42 228 -9.6 81 -12.2 161 0 982.5 NA 0.0000 9999 3770 21490 0 0
2019/10/04 19:34:00 BASE 15.62 230 20.01 237 -9.6 81 -12.2 160 0 982.5 NA 0.0000 9999 3020 4530 0 0
2019/10/04 19:35:00 BASE 16.60 228 20.01 237 -9.6 81 -12.3 157 0 982.5 NA 0.0000 9999 2330 4430 0 0
2019/10/04 19:36:00 BASE 17.32 228 20.01 237 -9.6 81 -12.3 157 0 982.5 NA 0.0000 9999 2170 0 0 0
2019/10/04 19:37:00 BASE 15.47 228 20.01 237 -9.6 81 -12.3 156 0 982.6 NA 0.0000 9999 2720 3450 23070 0
2019/10/04 19:38:00 BASE 13.54 228 20.01 237 -9.6 81 -12.3 155 0 982.6 NA 0.0000 9999 3280 0 0 0
2019/10/04 19:39:00 BASE 15.18 230 20.01 237 -9.6 81 -12.3 153 0 982.6 NA 0.0000 9999 3580 0 0 0
2019/10/04 19:40:00 BASE 16.21 232 20.01 237 -9.6 80 -12.3 148 0 982.6 NA 0.0000 9999 3640 4360 0 0
2019/10/04 19:41:00 BASE 15.51 228 20.01 237 -9.6 80 -12.4 142 0 982.6 NA 0.0000 9999 2100 2850 4270 0
2019/10/04 19:42:00 BASE 15.30 225 20.01 237 -9.6 80 -12.4 140 0 982.6 NA 0.0000 9999 2130 2820 23560 0
2019/10/04 19:43:00 BASE 15.41 227 20.01 237 -9.6 80 -12.4 141 0 982.7 NA 0.0000 9999 2100 0 0 0
2019/10/04 19:44:00 BASE 15.18 227 18.98 226 -9.6 80 -12.4 144 0 982.6 NA 0.0000 9999 2230 0 0 0
2019/10/04 19:45:00 BASE 15.32 228 18.98 226 -9.6 80 -12.4 148 0 982.7 NA 0.0000 9999 2490 0 0 0
2019/10/04 19:46:00 BASE 15.65 231 18.42 241 -9.6 80 -12.5 152 0 982.6 NA 0.0000 9999 2530 2950 0 0
2019/10/04 19:47:00 BASE 15.44 234 18.42 231 -9.6 80 -12.5 154 0 982.7 NA 0.0000 9999 2820 3970 0 0
2019/10/04 19:48:00 BASE 15.50 233 18.42 231 -9.7 79 -12.6 156 0 982.6 NA 0.0000 9999 3380 4720 0 0
2019/10/04 19:49:00 BASE 15.20 233 18.42 231 -9.7 79 -12.6 154 0 982.7 NA 0.0000 9999 2950 3510 0 0
2019/10/04 19:50:00 BASE 14.55 234 18.62 225 -9.7 79 -12.7 147 0 982.7 NA 0.0000 9999 2820 0 0 0
2019/10/04 19:51:00 BASE 13.98 234 18.62 225 -9.7 79 -12.7 137 0 982.7 NA 0.0000 9999 2130 0 0 0
2019/10/04 19:52:00 BASE 12.93 235 18.62 225 -9.7 79 -12.7 131 0 982.7 NA 0.0000 9999 2330 0 0 0
2019/10/04 19:53:00 BASE 12.77 231 18.62 225 -9.7 78 -12.7 129 0 982.7 NA 0.0000 9999 2620 0 0 0
2019/10/04 19:54:00 BASE 14.60 226 18.62 225 -9.7 78 -12.7 128 0 982.7 NA 0.0000 9999 2200 3220 0 0
2019/10/04 19:55:00 BASE 15.90 227 18.62 225 -9.6 78 -12.8 127 0 982.7 NA 0.0000 9999 2170 0 0 0
2019/10/04 19:56:00 BASE 16.24 230 19.03 237 -9.6 78 -12.8 128 0 982.7 NA 0.0000 9999 2170 0 0 0
2019/10/04 19:57:00 BASE 15.76 231 19.03 237 -9.6 77 -12.8 129 0 982.7 NA 0.0000 9999 2590 0 0 0
2019/10/04 19:58:00 BASE 15.39 229 19.03 237 -9.6 77 -12.9 128 0 982.7 NA 0.0000 9999 2690 0 0 0
2019/10/04 19:59:00 BASE 16.02 229 19.03 237 -9.6 77 -12.9 127 0 982.7 NA 0.0000 9999 2790 3350 0 0
2019/10/04 20:00:00 BASE 15.21 230 19.03 237 -9.6 77 -12.9 125 0 982.8 NA 0.0000 9999 2300 3080 0 0
2019/10/04 20:01:00 BASE 14.47 228 19.03 237 -9.6 77 -12.9 124 0 982.8 NA 0.0000 9999 2460 0 0 0
2019/10/04 20:02:00 BASE 16.11 229 19.09 239 -9.7 77 -12.9 124 0 982.7 NA 0.0000 9999 2620 0 0 0
2019/10/04 20:03:00 BASE 17.28 229 19.45 223 -9.7 77 -13.0 124 0 982.7 NA 0.0000 9999 2920 0 0 0
2019/10/04 20:04:00 BASE 16.54 225 19.45 223 -9.7 77 -13.0 124 0 982.8 NA 0.0000 9999 2300 2920 0 0
2019/10/04 20:05:00 BASE 15.69 228 19.45 223 -9.7 76 -13.1 125 0 982.8 NA 0.0000 9999 2360 17160 0 0
2019/10/04 20:06:00 BASE 15.80 231 19.45 223 -9.7 76 -13.1 127 0 982.7 NA 0.0000 9999 2260 0 0 0
2019/10/04 20:07:00 BASE 16.19 228 19.45 223 -9.7 76 -13.1 128 0 982.7 NA 0.0000 9999 2490 3310 0 0
2019/10/04 20:08:00 BASE 15.66 227 19.45 223 -9.7 76 -13.2 126 0 982.7 NA 0.0000 9999 3050 0 0 0
2019/10/04 20:09:00 BASE 14.50 227 19.45 223 -9.7 76 -13.2 124 0 982.8 NA 0.0000 9999 2460 3150 4530 0
2019/10/04 20:10:00 BASE 14.10 225 19.45 223 -9.6 75 -13.2 123 0 982.7 NA 0.0000 9999 2260 0 0 0
2019/10/04 20:11:00 BASE 14.77 226 19.45 223 -9.6 75 -13.2 124 0 982.8 NA 0.0000 9999 2530 3050 0 0
2019/10/04 20:12:00 BASE 14.79 227 19.45 223 -9.6 75 -13.2 125 0 982.8 NA 0.0000 9999 2620 0 0 0
2019/10/04 20:13:00 BASE 14.56 228 18.31 227 -9.6 75 -13.2 127 0 982.8 NA 0.0000 9999 3180 4070 0 0
2019/10/04 20:14:00 BASE 15.11 225 18.31 225 -9.6 75 -13.1 127 0 982.8 NA 0.0000 9999 4130 22210 0 0
2019/10/04 20:15:00 BASE 14.66 226 18.31 225 -9.6 76 -13.1 128 0 982.8 NA 0.0000 9999 4630 22250 0 0
2019/10/04 20:16:00 BASE 14.16 231 18.31 225 -9.6 76 -13.1 126 0 982.8 NA 0.0000 9999 2430 4720 0 0
2019/10/04 20:17:00 BASE 15.12 229 18.37 225 -9.6 76 -13.0 124 0 982.8 NA 0.0000 9999 2990 3580 0 0
2019/10/04 20:18:00 BASE 16.15 227 18.37 225 -9.6 76 -13.0 121 0 982.8 NA 0.0000 9999 2360 0 0 0
2019/10/04 20:19:00 BASE 15.96 232 18.37 225 -9.6 76 -13.0 116 0 982.9 NA 0.0000 9999 3080 0 0 0
2019/10/04 20:20:00 BASE 15.86 237 18.78 243 -9.6 76 -13.0 114 0 982.9 NA 0.0000 9999 790 4630 0 0
2019/10/04 20:21:00 BASE 16.17 236 18.78 243 -9.6 76 -13.1 114 0 982.8 NA 0.0000 9999 2660 0 0 0
2019/10/04 20:22:00 BASE 15.96 232 18.78 243 -9.6 76 -13.0 115 0 982.9 NA 0.0000 9999 2460 3410 20210 0
2019/10/04 20:23:00 BASE 16.31 228 18.78 243 -9.6 76 -13.0 116 0 982.9 NA 0.0000 9999 3020 0 0 0
2019/10/04 20:24:00 BASE 16.35 232 19.45 234 -9.7 77 -13.0 116 0 982.9 NA 0.0000 9999 1970 3250 0 0
2019/10/04 20:25:00 BASE 16.52 235 19.45 234 -9.7 77 -13.0 114 0 982.9 NA 0.0000 9999 2590 3670 0 0
2019/10/04 20:26:00 BASE 17.36 234 21.50 232 -9.7 77 -13.0 112 0 982.9 NA 0.0000 9999 1940 2530 0 0
2019/10/04 20:27:00 BASE 18.26 232 21.50 232 -9.7 77 -13.0 111 0 982.9 NA 0.0000 9999 2720 0 0 0
2019/10/04 20:28:00 BASE 17.56 228 21.50 232 -9.7 77 -13.0 109 0 983.0 NA 0.0000 9999 3080 0 0 0
2019/10/04 20:29:01 BASE 16.91 226 21.50 232 -9.8 77 -13.0 110 0 983.0 NA 0.0000 9999 1970 3480 0 0
2019/10/04 20:30:00 BASE 17.94 227 21.50 232 -9.8 77 -13.0 112 0 983.0 NA 0.0000 9999 2430 0 0 0
2019/10/04 20:31:00 BASE 19.33 227 21.81 225 -9.8 78 -13.0 115 0 982.9 NA 0.0000 9999 2820 3450 0 0
2019/10/04 20:32:00 BASE 19.75 224 21.81 225 -9.9 78 -13.0 117 0 983.0 NA 0.0000 9999 2400 3350 0 0
2019/10/04 20:33:00 BASE 18.91 225 21.81 225 -9.9 78 -13.0 120 0 983.0 NA 0.0000 9999 2200 0 0 0
2019/10/04 20:34:00 BASE 19.35 227 23.20 224 -9.9 77 -13.1 120 0 983.0 NA 0.0000 9999 2820 0 0 0
2019/10/04 20:35:00 BASE 18.73 230 23.20 224 -9.9 77 -13.1 118 0 983.1 NA 0.0000 9999 2990 3710 0 0
2019/10/04 20:36:00 BASE 17.66 232 23.20 224 -9.9 77 -13.2 115 0 983.1 NA 0.0000 9999 2360 0 0 0
2019/10/04 20:37:00 BASE 19.09 232 23.20 224 -9.9 77 -13.2 111 0 983.1 NA 0.0000 9999 2790 3250 0 0
2019/10/04 20:38:00 BASE 19.14 230 23.20 224 -9.9 77 -13.2 107 0 983.1 NA 0.0000 9999 3150 3710 0 0
2019/10/04 20:39:00 BASE 16.91 228 23.20 224 -9.9 77 -13.2 104 0 983.2 NA 0.0000 9999 2170 2890 0 0
2019/10/04 20:40:00 BASE 15.05 231 23.20 224 -9.9 77 -13.2 103 0 983.2 NA 0.0000 9999 2100 0 0 0
2019/10/04 20:41:00 BASE 16.18 233 23.20 224 -9.9 77 -13.1 104 0 983.1 NA 0.0000 9999 2200 0 0 0
2019/10/04 20:42:00 BASE 18.92 230 23.20 224 -9.9 77 -13.1 106 0 983.1 NA 0.0000 9999 2660 0 0 0
2019/10/04 20:43:01 BASE 18.81 229 23.20 224 -9.9 78 -13.1 107 0 983.1 NA 0.0000 9999 2000 2690 0 0
2019/10/04 20:44:00 BASE 18.10 231 22.17 228 -9.9 78 -13.1 106 0 983.1 NA 0.0000 9999 2100 3810 23890 0
2019/10/04 20:45:00 BASE 18.25 232 22.17 228 -10.0 78 -13.0 103 0 983.2 NA 0.0000 9999 2760 0 0 0
2019/10/04 20:46:00 BASE 17.70 235 22.17 228 -10.0 78 -13.0 100 0 983.2 NA 0.0000 9999 1870 3540 0 0
2019/10/04 20:47:00 BASE 17.36 235 22.17 228 -10.0 79 -13.0 101 0 983.2 NA 0.0000 9999 1870 0 0 0
2019/10/04 20:48:00 BASE 16.92 235 22.17 228 -10.0 79 -13.0 103 0 983.2 NA 0.0000 9999 2260 0 0 0
2019/10/04 20:49:00 BASE 16.55 237 22.17 228 -10.0 79 -13.0 102 0 983.2 NA 0.0000 9999 2530 3350 4200 0
2019/10/04 20:50:00 BASE 17.65 236 22.17 228 -10.0 79 -13.0 103 0 983.2 NA 0.0000 9999 2620 4430 0 0
2019/10/04 20:51:00 BASE 16.75 236 21.71 231 -10.0 79 -13.0 106 0 983.3 NA 0.0000 9999 2070 0 0 0
2019/10/04 20:52:00 BASE 16.20 234 20.94 239 -10.0 79 -13.0 107 0 983.3 NA 0.0000 9999 2230 22930 23360 0
2019/10/04 20:53:00 BASE 17.30 231 20.94 239 -10.0 79 -13.0 106 0 983.3 NA 0.0000 9999 4400 0 0 0
2019/10/04 20:54:00 BASE 17.06 230 20.94 239 -10.0 79 -13.0 105 0 983.4 NA 0.0000 9999 4360 0 0 0
2019/10/04 20:55:00 BASE 16.60 231 20.94 239 -10.0 79 -13.0 103 0 983.4 NA 0.0000 9999 2920 4590 0 0
2019/10/04 20:56:00 BASE 16.10 232 20.94 239 -10.1 79 -13.0 100 0 983.4 NA 0.0000 9999 2260 0 0 0
2019/10/04 20:57:00 BASE 15.30 234 20.94 239 -10.1 79 -13.0 96 0 983.4 NA 0.0000 9999 2030 2720 4790 0
2019/10/04 20:58:00 BASE 15.73 238 20.94 239 -10.1 79 -13.0 94 0 983.4 NA 0.0000 9999 2030 4690 0 0
2019/10/04 20:59:00 BASE 16.66 238 20.94 239 -10.1 79 -13.0 92 0 983.4 NA 0.0000 9999 2170 4590 0 0
2019/10/04 21:00:00 BASE 16.11 238 20.01 231 -10.0 79 -13.0 90 0 983.5 NA 0.0000 9999 2000 0 0 0
2019/10/04 21:01:00 BASE 16.89 241 20.01 231 -10.0 79 -13.0 88 0 983.5 NA 0.0000 9999 2130 0 0 0
2019/10/04 21:02:00 BASE 17.34 240 20.01 231 -10.1 79 -13.0 89 0 983.5 NA 0.0000 9999 2030 0 0 0
2019/10/04 21:03:00 BASE 14.96 237 20.01 231 -10.1 79 -13.0 92 0 983.6 NA 0.0000 9999 2030 0 0 0
2019/10/04 21:04:00 BASE 13.87 238 20.01 231 -10.0 79 -13.0 94 0 983.5 NA 0.0000 9999 2200 0 0 0
2019/10/04 21:05:00 BASE 15.98 236 19.86 243 -10.1 79 -13.0 97 0 983.5 NA 0.0000 9999 2070 0 0 0
2019/10/04 21:06:00 BASE 16.49 234 19.86 243 -10.1 79 -13.0 100 0 983.6 NA 0.0000 9999 2030 0 0 0
2019/10/04 21:07:00 BASE 15.30 235 19.86 243 -10.1 79 -13.0 100 0 983.6 NA 0.0000 9999 2130 3020 0 0
2019/10/04 21:08:00 BASE 15.41 239 19.86 243 -10.1 79 -13.0 101 0 983.6 NA 0.0000 9999 2170 0 0 0
2019/10/04 21:09:00 BASE 16.52 243 20.11 249 -10.1 79 -13.0 98 0 983.6 NA 0.0000 9999 2230 0 0 0
2019/10/04 21:10:00 BASE 17.13 242 20.11 249 -10.1 79 -13.1 92 0 983.7 NA 0.0000 9999 2260 2720 0 0
2019/10/04 21:11:00 BASE 15.80 242 20.11 249 -10.1 79 -13.1 89 0 983.7 NA 0.0000 9999 2260 0 0 0
2019/10/04 21:12:00 BASE 15.58 240 20.11 249 -10.1 78 -13.2 87 0 983.7 NA 0.0000 9999 1710 0 0 0
2019/10/04 21:13:00 BASE 16.28 242 20.11 249 -10.1 78 -13.2 82 0 983.8 NA 0.0000 9999 1940 0 0 0
2019/10/04 21:14:00 BASE 17.16 244 21.50 237 -10.2 78 -13.2 80 0 983.7 NA 0.0000 8000 690 0 0 0
2019/10/04 21:15:00 BASE 18.79 243 22.33 248 -10.2 78 -13.3 80 0 983.7 NA 0.0000 -SN 8000 1510 0 0 0
2019/10/04 21:16:00 BASE 19.69 244 22.33 248 -10.3 79 -13.2 78 0 983.7 NA 0.0000 -SN 6000 1940 2360 0 0
2019/10/04 21:17:00 BASE 19.14 243 22.33 248 -10.3 79 -13.2 73 0 983.7 NA 0.0000 -SN 7000 1510 0 0 0
2019/10/04 21:18:00 BASE 17.84 246 22.33 248 -10.4 80 -13.2 68 0 983.8 NA 0.0000 -SN 8000 430 0 0 0
2019/10/04 21:19:00 BASE 18.78 246 23.36 256 -10.4 80 -13.2 64 0 983.8 NA 0.0000 -SN 6000 430 0 0 0
2019/10/04 21:20:00 BASE 20.58 246 24.69 242 -10.5 80 -13.2 62 0 983.7 NA 0.0000 -SN 6000 390 0 0 0
2019/10/04 21:21:00 BASE 20.27 246 24.69 242 -10.5 81 -13.2 62 0 983.8 NA 0.0000 -SN 5000 390 0 0 0
2019/10/04 21:22:00 BASE 19.10 243 24.69 242 -10.6 81 -13.2 61 0 983.8 NA 0.0000 -SN 5000 390 0 0 0
2019/10/04 21:23:00 BASE 17.86 242 24.69 242 -10.6 81 -13.2 60 0 983.8 NA 0.0000 -SN 6000 360 21880 0 0
2019/10/04 21:24:00 BASE 17.89 242 24.69 242 -10.6 81 -13.1 59 0 983.8 NA 0.0000 -SN 5000 330 2430 0 0
2019/10/04 21:25:00 BASE 19.72 242 24.69 242 -10.5 82 -13.1 55 0 983.8 NA 0.0000 -SN 5000 330 2530 0 0
2019/10/04 21:26:00 BASE 20.69 244 24.69 242 -10.5 82 -13.0 54 0 983.8 NA 0.0000 -SN 5000 390 0 0 0
2019/10/04 21:27:00 BASE 21.16 245 24.69 242 -10.5 82 -13.0 56 0 983.8 NA 0.0000 -SN 5000 300 1840 0 0
2019/10/04 21:28:00 BASE 21.74 245 26.24 251 -10.6 82 -13.0 57 0 983.8 NA 0.0000 -SN 3700 0 0 0 2460
2019/10/04 21:29:00 BASE 21.57 247 26.24 251 -10.6 82 -13.1 56 0 983.8 NA 0.0000 -SN 4700 330 1970 0 0
2019/10/04 21:30:00 BASE 19.60 249 26.24 251 -10.7 82 -13.1 58 0 983.9 NA 0.0000 -SN 5000 390 0 0 0
2019/10/04 21:31:00 BASE 20.05 249 26.24 251 -10.7 82 -13.1 62 0 983.7 NA 0.0000 -SN 5000 360 1670 0 0
2019/10/04 21:32:00 BASE 23.02 246 26.24 251 -10.7 82 -13.2 62 0 983.8 NA 0.0000 -SN 4800 2030 2760 0 0
2019/10/04 21:33:00 BASE 22.48 246 26.24 251 -10.8 83 -13.2 63 0 983.9 NA 0.0000 -SN 4800 2620 4950 0 0
2019/10/04 21:34:00 BASE 20.25 244 26.24 251 -10.8 83 -13.1 65 0 983.9 NA 0.0000 -SN 3600 0 0 0 2400
2019/10/04 21:35:00 BASE 18.89 242 26.24 251 -10.8 83 -13.1 63 0 984.0 NA 0.0000 -SN 3100 2400 0 0 0
2019/10/04 21:36:00 BASE 18.80 245 26.24 251 -10.8 83 -13.1 63 0 984.0 NA 0.0000 -SN 3500 260 1870 0 0
2019/10/04 21:37:00 BASE 19.27 249 26.24 251 -10.8 83 -13.1 65 0 984.0 NA 0.0000 -SN 4300 360 2260 0 0
2019/10/04 21:38:00 BASE 19.67 247 25.31 247 -10.8 83 -13.1 65 0 984.0 NA 0.0000 -SN 3600 300 1740 0 0
2019/10/04 21:39:00 BASE 19.89 248 25.31 247 -10.8 83 -13.1 64 0 984.1 NA 0.0000 -SN 3200 260 1940 0 0
2019/10/04 21:40:00 BASE 19.74 249 25.31 247 -10.8 83 -13.1 65 0 984.0 NA 0.0000 -SN 3400 230 0 0 0
2019/10/04 21:41:00 BASE 21.40 247 25.67 241 -10.9 83 -13.1 65 0 984.0 NA 0.0000 -SN 3900 300 1840 0 0
2019/10/04 21:42:00 BASE 21.63 244 25.67 241 -10.9 84 -13.1 60 0 984.1 NA 0.0000 -SN 3700 0 0 0 2360
2019/10/04 21:43:00 BASE 19.71 243 25.67 241 -10.9 84 -13.1 56 0 984.1 NA 0.0000 -SN BR 3700 0 0 0 2000
2019/10/04 21:44:00 BASE 18.31 243 25.67 241 -10.9 84 -13.1 54 0 984.2 NA 0.0000 -SN BR 5000 390 1870 0 0
2019/10/04 21:45:00 BASE 16.40 241 25.67 241 -10.9 84 -13.1 52 0 984.2 NA 0.0000 -SN BR 5000 430 0 0 0
2019/10/04 21:46:00 BASE 15.86 243 25.67 241 -10.9 84 -13.1 49 0 984.2 NA 0.0000 -SN BR 5000 430 0 0 0
2019/10/04 21:47:00 BASE 17.04 243 25.67 241 -10.9 84 -13.1 48 0 984.2 NA 0.0000 -SN BR 5000 430 1940 0 0
2019/10/04 21:48:00 BASE 17.57 241 25.67 241 -10.9 84 -13.1 46 0 984.2 NA 0.0000 -SN BR 5000 330 1870 0 0
2019/10/04 21:49:00 BASE 16.48 244 25.67 241 -10.9 84 -13.1 44 0 984.2 NA 0.0000 -SN BR 5000 1970 0 0 0
2019/10/04 21:50:00 BASE 16.76 245 25.67 241 -10.9 84 -13.1 40 0 984.2 NA 0.0000 -SN BR 5000 390 0 0 0
2019/10/04 21:51:00 BASE 19.10 246 22.79 244 -11.0 84 -13.1 39 0 984.2 NA 0.0000 -SN BR 5000 390 0 0 0
2019/10/04 21:52:00 BASE 19.34 251 22.22 245 -11.0 84 -13.2 40 0 984.2 NA 0.0000 -SN BR 5000 2030 0 0 0
2019/10/04 21:53:00 BASE 18.91 250 23.10 240 -11.0 84 -13.2 40 0 984.2 NA 0.0000 -SN BR 5000 620 0 0 0
2019/10/04 21:54:00 BASE 18.86 251 23.10 240 -11.1 84 -13.2 38 0 984.2 NA 0.0000 BR 5000 1670 0 0 0
2019/10/04 21:55:00 BASE 19.06 252 23.10 240 -11.1 84 -13.3 36 0 984.2 NA 0.0000 BR 5000 1510 0 0 0
2019/10/04 21:56:00 BASE 19.14 247 23.10 240 -11.1 84 -13.3 33 0 984.3 NA 0.0000 BR 5000 1610 0 0 0
2019/10/04 21:57:00 BASE 17.62 246 23.10 240 -11.1 84 -13.3 32 0 984.3 NA 0.0000 BR 4900 1510 0 0 0
2019/10/04 21:58:00 BASE 17.14 248 23.10 240 -11.1 84 -13.3 31 0 984.3 NA 0.0000 BR 4900 1570 0 0 0
2019/10/04 21:59:00 BASE 17.87 251 23.10 240 -11.1 85 -13.2 30 0 984.3 NA 0.0000 BR 4900 1640 0 0 0
2019/10/04 22:00:00 BASE 17.79 256 23.10 240 -11.2 85 -13.2 30 0 984.4 NA 0.0000 BR 5000 1870 0 0 0
2019/10/04 22:01:00 BASE 16.53 259 23.10 240 -11.2 85 -13.2 29 0 984.4 NA 0.0000 BR 9000 1440 0 0 0
2019/10/04 22:02:00 BASE 16.34 258 23.10 240 -11.2 85 -13.3 28 0 984.4 NA 0.0000 BR 9999 1570 0 0 0
2019/10/04 22:03:00 BASE 18.89 251 24.64 249 -11.3 85 -13.4 28 0 984.4 NA 0.0000 BR 9000 1280 2070 0 0
2019/10/04 22:04:00 BASE 19.01 251 24.64 249 -11.4 85 -13.4 29 0 984.4 NA 0.0000 BR 8000 1280 0 0 0
2019/10/04 22:05:00 BASE 17.26 258 24.64 249 -11.4 85 -13.5 28 0 984.4 NA 0.0000 BR 8000 890 0 0 0
2019/10/04 22:06:00 BASE 17.54 258 24.64 249 -11.5 85 -13.5 28 0 984.5 NA 0.0000 BR 8000 1020 0 0 0
2019/10/04 22:07:00 BASE 18.10 258 24.64 249 -11.5 85 -13.5 28 0 984.5 NA 0.0000 BR 8000 1180 0 0 0
2019/10/04 22:08:00 BASE 17.75 258 24.64 249 -11.5 85 -13.6 27 0 984.5 NA 0.0000 BR 8000 430 0 0 0
2019/10/04 22:09:00 BASE 18.95 256 24.64 249 -11.6 85 -13.6 26 0 984.5 NA 0.0000 BR 8000 2070 0 0 0
2019/10/04 22:10:00 BASE 20.63 254 24.64 249 -11.6 85 -13.6 25 0 984.5 NA 0.0000 BR 8000 1210 1900 0 0
2019/10/04 22:11:00 BASE 18.50 255 24.64 249 -11.7 85 -13.7 24 0 984.5 NA 0.0000 BR 8000 1670 2130 0 0
2019/10/04 22:12:00 BASE 16.71 257 24.64 249 -11.8 86 -13.7 23 0 984.6 NA 0.0000 BR 8000 1310 0 0 0
2019/10/04 22:13:00 BASE 18.06 257 24.44 255 -11.8 86 -13.7 21 0 984.5 NA 0.0000 BR 8000 1410 2430 0 0
2019/10/04 22:14:00 BASE 18.65 255 24.44 255 -11.8 86 -13.7 20 0 984.6 NA 0.0000 BR 8000 620 2400 0 0
2019/10/04 22:15:00 BASE 17.16 256 24.44 255 -11.8 86 -13.7 19 0 984.7 NA 0.0000 BR 7000 1480 2070 0 0
2019/10/04 22:16:00 BASE 16.46 256 24.44 255 -11.8 86 -13.6 19 0 984.7 NA 0.0000 BR 7000 1740 2260 0 0
2019/10/04 22:17:00 BASE 15.15 258 24.44 255 -11.8 86 -13.6 18 0 984.7 NA 0.0000 BR 7000 1150 0 0 0
2019/10/04 22:18:00 BASE 15.45 262 24.44 255 -11.8 87 -13.6 17 0 984.7 NA 0.0000 BR 7000 1610 0 0 0
2019/10/04 22:19:00 BASE 16.47 261 24.44 255 -11.8 87 -13.5 16 0 984.7 NA 0.0000 BR 7000 720 2130 0 0
2019/10/04 22:20:00 BASE 15.82 258 22.79 259 -11.8 87 -13.5 16 0 984.7 NA 0.0000 BR 7000 1210 0 0 0
2019/10/04 22:21:00 BASE 16.87 259 22.79 259 -11.8 87 -13.6 15 0 984.7 NA 0.0000 BR 6000 520 0 0 0
2019/10/04 22:22:00 BASE 17.47 259 22.79 259 -11.9 87 -13.6 14 0 984.7 NA 0.0000 -SN BR 4400 390 1640 0 0
2019/10/04 22:23:00 BASE 18.42 259 22.22 258 -11.9 87 -13.7 14 0 984.7 NA 0.0000 -SN BR 4000 360 0 0 0
2019/10/04 22:24:00 BASE 17.79 258 22.22 258 -12.0 87 -13.7 13 0 984.8 NA 0.0000 -SN BR 3500 360 2070 0 0
2019/10/04 22:25:00 BASE 17.14 259 22.22 258 -12.0 87 -13.7 13 0 984.8 NA 0.0000 -SN BR 3900 430 2300 0 0
2019/10/04 22:26:00 BASE 15.72 262 22.22 258 -12.0 88 -13.6 12 0 984.8 NA 0.0000 -SN BR 4900 390 1570 0 0
2019/10/04 22:27:00 BASE 14.52 264 22.22 258 -12.0 88 -13.6 12 0 984.8 NA 0.0000 -SN BR 5000 390 2130 0 0
2019/10/04 22:28:00 BASE 16.41 263 22.22 258 -12.0 88 -13.6 11 0 984.8 NA 0.0000 -SN BR 3400 1310 1900 0 0
2019/10/04 22:29:00 BASE 17.05 260 22.22 258 -12.0 88 -13.6 10 0 984.8 NA 0.0000 -SN BR 3400 1440 0 0 0
2019/10/04 22:30:00 BASE 16.53 261 22.22 258 -12.0 88 -13.6 10 0 984.8 NA 0.0000 -SN BR 3400 1280 0 0 0
2019/10/04 22:31:00 BASE 15.96 266 22.22 258 -12.0 88 -13.6 10 0 984.8 NA 0.0000 -SN BR 3400 1210 0 0 0
2019/10/04 22:32:00 BASE 15.45 264 22.22 258 -12.0 88 -13.6 10 0 984.9 NA 0.0000 -SN BR 3900 1280 0 0 0
2019/10/04 22:33:00 BASE 14.53 261 20.83 263 -12.0 88 -13.6 10 0 984.9 NA 0.0000 -SN BR 8000 1310 0 0 0
2019/10/04 22:34:00 BASE 15.23 261 20.83 263 -12.0 88 -13.5 10 0 984.9 NA 0.0000 -SN BR 9999 1410 2260 0 0
2019/10/04 22:35:00 BASE 15.58 260 20.83 263 -12.0 89 -13.5 9 0 984.9 NA 0.0000 -SN BR 9999 1410 2660 0 0
2019/10/04 22:36:00 BASE 15.72 260 20.83 263 -12.0 89 -13.5 9 0 984.9 NA 0.0000 -SN BR 9999 1640 0 0 0
2019/10/04 22:37:00 BASE 15.30 262 20.83 263 -12.0 89 -13.4 8 0 984.9 NA 0.0000 -SN BR 9000 690 0 0 0
2019/10/04 22:38:00 BASE 15.65 260 20.83 263 -12.0 89 -13.4 8 0 984.9 NA 0.0000 BR 9999 1480 0 0 0
2019/10/04 22:39:00 BASE 15.22 263 20.83 263 -12.0 89 -13.4 7 0 984.9 NA 0.0000 BR 9999 1410 2360 0 0
2019/10/04 22:40:00 BASE 14.36 264 20.53 254 -12.0 89 -13.4 7 0 984.9 NA 0.0000 BR 9000 890 0 0 0
2019/10/04 22:41:00 BASE 16.00 261 20.53 254 -12.0 89 -13.5 6 0 984.9 NA 0.0000 BR 9999 1380 2200 0 0
2019/10/04 22:42:00 BASE 14.08 261 20.53 254 -12.0 89 -13.4 5 0 985.0 NA 0.0000 BR 9000 1800 2200 0 0
2019/10/04 22:43:00 BASE 13.21 260 20.53 254 -12.0 89 -13.4 4 0 984.9 NA 0.0000 9999 1440 2430 0 0
2019/10/04 22:44:00 BASE 14.84 260 20.53 254 -12.0 89 -13.4 4 0 984.9 NA 0.0000 BR 9000 1570 2720 0 0
2019/10/04 22:45:00 BASE 15.68 261 19.81 254 -12.0 89 -13.4 3 0 984.9 NA 0.0000 BR 8000 1840 0 0 0
2019/10/04 22:46:00 BASE 15.37 262 19.81 254 -12.0 89 -13.4 3 0 984.9 NA 0.0000 BR 9000 1740 0 0 0
2019/10/04 22:47:00 BASE 16.63 262 21.71 263 -12.0 89 -13.4 3 0 984.9 NA 0.0000 BR 8000 1940 0 0 0
2019/10/04 22:48:00 BASE 17.74 262 21.71 263 -12.0 89 -13.5 3 0 985.0 NA 0.0000 BR 8000 1710 2620 0 0
2019/10/04 22:49:00 BASE 16.02 266 22.07 267 -12.0 88 -13.5 2 0 985.0 NA 0.0000 BR 9999 1540 0 0 0
2019/10/04 22:50:00 BASE 16.23 270 22.07 267 -12.0 88 -13.5 2 0 985.0 NA 0.0000 BR 9999 2300 0 0 0
2019/10/04 22:51:00 BASE 16.33 268 22.07 267 -12.0 88 -13.6 2 0 985.0 NA 0.0000 BR 9000 520 1870 0 0
2019/10/04 22:52:00 BASE 15.45 266 22.07 267 -12.0 88 -13.6 2 0 985.0 NA 0.0000 BR 7000 620 2430 0 0
2019/10/04 22:53:00 BASE 14.35 267 22.07 267 -12.0 88 -13.6 2 0 985.1 NA 0.0000 BR 7000 560 1870 0 0
2019/10/04 22:54:00 BASE 13.58 267 22.07 267 -12.0 88 -13.6 2 0 985.1 NA 0.0000 BR 7000 620 1670 0 0
2019/10/04 22:55:00 BASE 14.88 268 22.07 267 -11.9 88 -13.6 2 0 985.0 NA 0.0000 BR 7000 390 1970 0 0
2019/10/04 22:56:00 BASE 13.84 269 22.07 267 -11.9 87 -13.6 1 0 985.1 NA 0.0000 BR 7000 490 1900 0 0
2019/10/04 22:57:00 BASE 11.71 268 22.07 267 -11.9 87 -13.6 1 0 985.1 NA 0.0000 BR 8000 1380 3020 0 0
2019/10/04 22:58:00 BASE 12.04 269 22.07 267 -11.9 87 -13.6 1 0 985.1 NA 0.0000 BR 8000 1800 2560 0 0
2019/10/04 22:59:00 BASE 12.79 272 20.68 256 -11.9 87 -13.6 1 0 985.1 NA 0.0000 BR 8000 1740 2430 0 0
2019/10/04 23:00:00 BASE 14.10 275 20.68 256 -11.9 87 -13.6 1 0 985.1 NA 0.0000 BR 8000 1510 2230 0 0
2019/10/04 23:01:00 BASE 14.09 276 20.68 256 -11.9 87 -13.6 1 0 985.1 NA 0.0000 BR 8000 1540 0 0 0
2019/10/04 23:02:00 BASE 14.20 275 19.34 270 -11.9 87 -13.7 0 0 985.1 NA 0.0000 BR 8000 1510 0 0 0
2019/10/04 23:03:00 BASE 15.32 275 19.34 270 -12.0 87 -13.7 0 0 985.1 NA 0.0000 BR 8000 1510 0 0 0
2019/10/04 23:04:00 BASE 15.48 276 19.34 270 -12.0 86 -13.8 0 0 985.1 NA 0.0000 BR 8000 1540 0 0 0
2019/10/04 23:05:00 BASE 14.76 276 18.01 289 -12.0 86 -13.8 0 0 985.1 NA 0.0000 BR 8000 1540 0 0 0
2019/10/04 23:06:00 BASE 14.10 275 18.01 289 -11.9 86 -13.8 0 0 985.1 NA 0.0000 BR 9999 1670 0 0 0
2019/10/04 23:07:00 BASE 13.43 272 18.01 289 -11.9 86 -13.7 0 0 985.1 NA 0.0000 -SN BR 8000 1540 0 0 0
2019/10/04 23:08:00 BASE 13.10 274 18.01 289 -11.8 86 -13.7 0 0 985.1 NA 0.0000 -SN BR 9999 1740 0 0 0
2019/10/04 23:09:00 BASE 14.19 276 19.70 274 -11.8 86 -13.6 0 0 985.1 NA 0.0000 -SN BR 9999 1900 2620 0 0
2019/10/04 23:10:00 BASE 14.00 275 19.70 274 -11.7 86 -13.6 0 0 985.1 NA 0.0000 -SN BR 9999 1510 2260 0 0
2019/10/04 23:11:00 BASE 13.66 276 19.70 274 -11.7 86 -13.6 0 0 985.1 NA 0.0000 -SN BR 9999 1900 2490 0 0
2019/10/04 23:12:00 BASE 14.49 276 19.70 274 -11.7 86 -13.6 0 0 985.1 NA 0.0000 -SN BR 9999 2890 0 0 0
2019/10/04 23:13:00 BASE 15.17 275 19.70 274 -11.7 86 -13.6 0 0 985.1 NA 0.0000 -SN 9999 1770 0 0 0
2019/10/04 23:14:00 BASE 14.34 276 19.70 274 -11.7 86 -13.6 0 0 985.1 NA 0.0000 -SN 9999 1540 2460 0 0
2019/10/04 23:15:00 BASE 12.95 278 19.70 274 -11.7 86 -13.6 0 0 985.1 NA 0.0000 -SN 9999 1640 0 0 0
2019/10/04 23:16:00 BASE 13.99 277 19.70 274 -11.7 86 -13.7 0 0 985.1 NA 0.0000 -SN 9999 1770 2460 0 0
2019/10/04 23:17:00 BASE 13.78 275 19.70 274 -11.7 85 -13.7 0 0 985.1 NA 0.0000 -SN 9999 1640 2430 0 0
2019/10/04 23:18:00 BASE 12.15 272 19.70 274 -11.7 85 -13.6 0 0 985.2 NA 0.0000 9999 1610 0 0 0
2019/10/04 23:19:00 BASE 12.71 270 17.90 291 -11.6 85 -13.6 0 0 985.1 NA 0.0000 9999 1670 2890 0 0
2019/10/04 23:20:00 BASE 12.35 271 17.90 291 -11.6 85 -13.6 0 0 985.2 NA 0.0000 9999 2490 0 0 0
2019/10/04 23:21:00 BASE 11.09 274 17.34 275 -11.5 85 -13.5 0 0 985.2 NA 0.0000 9999 1770 2400 0 0
2019/10/04 23:22:00 BASE 12.52 278 17.34 275 -11.5 85 -13.5 0 0 985.1 NA 0.0000 9999 2100 2490 0 0
2019/10/04 23:23:00 BASE 13.72 275 17.08 262 -11.4 85 -13.5 0 0 985.1 NA 0.0000 9999 2430 0 0 0
2019/10/04 23:24:00 BASE 12.65 278 17.08 262 -11.4 85 -13.4 0 0 985.2 NA 0.0000 9999 2620 0 0 0
2019/10/04 23:25:00 BASE 12.71 281 17.08 262 -11.4 85 -13.4 0 0 985.2 NA 0.0000 9999 2490 0 0 0
2019/10/04 23:26:00 BASE 13.02 279 17.08 262 -11.4 85 -13.4 0 0 985.2 NA 0.0000 9999 2560 0 0 0
2019/10/04 23:27:00 BASE 10.93 279 17.08 262 -11.4 85 -13.5 0 0 985.2 NA 0.0000 9999 2490 0 0 0
2019/10/04 23:28:00 BASE 10.20 262 17.08 262 -11.4 85 -13.5 0 0 985.2 NA 0.0000 9999 2560 0 0 0
2019/10/04 23:29:00 BASE 11.64 243 16.41 276 -11.4 85 -13.4 0 0 985.2 NA 0.0000 9999 2590 0 0 0
2019/10/04 23:30:00 BASE 13.17 240 17.65 238 -11.3 85 -13.4 0 0 985.2 NA 0.0000 9999 2490 0 0 0
2019/10/04 23:31:00 BASE 15.30 239 18.37 244 -11.2 85 -13.3 0 0 985.1 NA 0.0000 9999 2300 0 0 0
2019/10/04 23:32:01 BASE 15.06 240 18.37 244 -11.2 84 -13.3 0 0 985.2 NA 0.0000 9999 2330 0 0 0
2019/10/04 23:33:01 BASE 13.32 240 18.37 244 -11.1 84 -13.3 0 0 985.3 NA 0.0000 9999 2330 0 0 0
2019/10/04 23:34:01 BASE 13.11 240 18.37 244 -11.1 83 -13.4 0 0 985.3 NA 0.0000 9999 2360 0 0 0
2019/10/04 23:35:01 BASE 12.75 236 18.37 244 -11.0 82 -13.5 0 0 985.3 NA 0.0000 9999 2590 0 0 0
2019/10/04 23:36:01 BASE 14.52 233 19.03 233 -11.0 81 -13.6 0 0 985.2 NA 0.0000 9999 2530 0 0 0
2019/10/04 23:37:01 BASE 17.68 231 21.25 230 -11.0 81 -13.7 0 0 985.2 NA 0.0000 9999 3020 0 0 0
2019/10/04 23:38:01 BASE 17.58 228 21.25 230 -11.0 80 -13.8 0 0 985.3 NA 0.0000 9999 2620 3250 0 0
2019/10/04 23:39:01 BASE 16.88 228 21.25 230 -11.0 79 -13.9 0 0 985.2 NA 0.0000 9999 2430 0 0 0
2019/10/04 23:40:01 BASE 16.69 233 21.25 230 -11.0 79 -14.0 0 0 985.2 NA 0.0000 9999 2530 0 0 0
2019/10/04 23:41:01 BASE 17.89 231 21.71 219 -11.1 78 -14.1 0 0 985.2 NA 0.0000 9999 2170 0 0 0
2019/10/04 23:42:01 BASE 19.54 226 21.71 219 -11.1 78 -14.2 0 0 985.2 NA 0.0000 9999 2560 0 0 0
2019/10/04 23:43:01 BASE 18.75 230 21.71 219 -11.1 78 -14.2 0 0 985.2 NA 0.0000 9999 2590 0 0 0
2019/10/04 23:44:01 BASE 18.13 230 21.71 219 -11.2 78 -14.3 0 0 985.2 NA 0.0000 9999 2920 0 0 0
2019/10/04 23:45:01 BASE 17.48 231 21.71 219 -11.2 78 -14.3 0 0 985.2 NA 0.0000 9999 3150 0 0 0
2019/10/04 23:46:01 BASE 16.98 233 21.76 227 -11.2 78 -14.3 0 0 985.3 NA 0.0000 9999 3120 0 0 0
2019/10/04 23:47:01 BASE 17.98 231 21.76 227 -11.2 78 -14.3 0 0 985.3 NA 0.0000 9999 2690 0 0 0
2019/10/04 23:48:01 BASE 18.27 229 21.76 227 -11.2 77 -14.4 0 0 985.3 NA 0.0000 9999 2260 3050 0 0
2019/10/04 23:49:01 BASE 16.00 228 21.76 227 -11.2 77 -14.4 0 0 985.4 NA 0.0000 9999 2000 0 0 0
2019/10/04 23:50:01 BASE 13.88 228 21.76 227 -11.2 77 -14.5 0 0 985.4 NA 0.0000 9999 2100 0 0 0
2019/10/04 23:51:01 BASE 13.05 232 21.76 227 -11.2 77 -14.5 0 0 985.4 NA 0.0000 9999 2360 0 0 0
2019/10/04 23:52:01 BASE 12.30 234 21.76 227 -11.2 76 -14.6 0 0 985.4 NA 0.0000 9999 2430 0 0 0
2019/10/04 23:53:01 BASE 12.22 230 21.76 227 -11.2 76 -14.6 0 0 985.4 NA 0.0000 9999 2360 0 0 0
2019/10/04 23:54:01 BASE 13.24 231 21.76 227 -11.2 76 -14.6 0 0 985.4 NA 0.0000 9999 2430 0 0 0
2019/10/04 23:55:01 BASE 14.35 232 21.76 227 -11.2 76 -14.6 0 0 985.4 NA 0.0000 9999 2530 0 0 0
2019/10/04 23:56:01 BASE 15.23 231 20.94 226 -11.2 76 -14.6 0 0 985.4 NA 0.0000 9999 2200 0 0 0
2019/10/04 23:57:01 BASE 14.93 226 19.50 226 -11.2 76 -14.6 0 0 985.4 NA 0.0000 9999 2070 0 0 0
2019/10/04 23:58:01 BASE 13.72 223 16.87 224 -11.2 75 -14.7 0 0 985.4 NA 0.0000 9999 2490 0 0 0
2019/10/04 23:59:01 BASE 12.69 223 16.87 224 -11.2 75 -14.7 0 0 985.4 NA 0.0000 9999 2530 3310 0 0